<?xml version="1.0" encoding="UTF-8" standalone="no" ?>
<gpx xmlns="http://www.topografix.com/GPX/1/1" xmlns:xsi="http://www.w3.org/2001/XMLSchema-instance" xsi:schemaLocation="http://www.topografix.com/GPX/1/1 http://www.topografix.com/GPX/1/1/gpx.xsd" version="1.1" creator="VisuGPX - https://www.visugpx.com">
  <metadata>
    <name>PlCy-P10</name>
  </metadata>
  <trk>
    <name><![CDATA[PlCy-P10]]></name>
    <trkseg>
      <trkpt lat="48.02087" lon="-4.21833">
        <ele>142.17082754195</ele>
        <time>2021-03-07T17:07:40.000Z</time>
      </trkpt>
      <trkpt lat="48.02048" lon="-4.21738">
        <ele>142.72943059162</ele>
        <time>2021-03-07T17:07:40.012Z</time>
      </trkpt>
      <trkpt lat="48.02" lon="-4.21635">
        <ele>144.33059402615</ele>
        <time>2021-03-07T17:07:40.037Z</time>
      </trkpt>
      <trkpt lat="48.01951" lon="-4.21533">
        <ele>146.25558966706</ele>
        <time>2021-03-07T17:07:40.076Z</time>
      </trkpt>
      <trkpt lat="48.01953" lon="-4.21528">
        <ele>147.93928946998</ele>
        <time>2021-03-07T17:07:40.116Z</time>
      </trkpt>
      <trkpt lat="48.01951" lon="-4.2152">
        <ele>149.27238437742</ele>
        <time>2021-03-07T17:07:40.156Z</time>
      </trkpt>
      <trkpt lat="48.01944" lon="-4.21516">
        <ele>150.30306153106</ele>
        <time>2021-03-07T17:07:40.198Z</time>
      </trkpt>
      <trkpt lat="48.01907" lon="-4.21435">
        <ele>151.28798922488</ele>
        <time>2021-03-07T17:07:40.250Z</time>
      </trkpt>
      <trkpt lat="48.0187" lon="-4.21354">
        <ele>151.98112113463</ele>
        <time>2021-03-07T17:07:40.313Z</time>
      </trkpt>
      <trkpt lat="48.01871" lon="-4.21344">
        <ele>152.56204825906</ele>
        <time>2021-03-07T17:07:40.377Z</time>
      </trkpt>
      <trkpt lat="48.01864" lon="-4.21339">
        <ele>153.07491615298</ele>
        <time>2021-03-07T17:07:40.442Z</time>
      </trkpt>
      <trkpt lat="48.01827" lon="-4.21266">
        <ele>153.79458925699</ele>
        <time>2021-03-07T17:07:40.517Z</time>
      </trkpt>
      <trkpt lat="48.01789" lon="-4.21193">
        <ele>154.61955063073</ele>
        <time>2021-03-07T17:07:40.602Z</time>
      </trkpt>
      <trkpt lat="48.0175" lon="-4.21108">
        <ele>155.57542153776</ele>
        <time>2021-03-07T17:07:40.698Z</time>
      </trkpt>
      <trkpt lat="48.01723" lon="-4.21042">
        <ele>156.35500042904</ele>
        <time>2021-03-07T17:07:40.802Z</time>
      </trkpt>
      <trkpt lat="48.01696" lon="-4.20977">
        <ele>156.89066359875</ele>
        <time>2021-03-07T17:07:40.914Z</time>
      </trkpt>
      <trkpt lat="48.01651" lon="-4.20884">
        <ele>157.35941463416</ele>
        <time>2021-03-07T17:07:41.039Z</time>
      </trkpt>
      <trkpt lat="48.01605" lon="-4.20792">
        <ele>157.8432030401</ele>
        <time>2021-03-07T17:07:41.176Z</time>
      </trkpt>
      <trkpt lat="48.01566" lon="-4.20708">
        <ele>158.17790648442</ele>
        <time>2021-03-07T17:07:41.324Z</time>
      </trkpt>
      <trkpt lat="48.01559" lon="-4.2064">
        <ele>158.3293745939</ele>
        <time>2021-03-07T17:07:41.479Z</time>
      </trkpt>
      <trkpt lat="48.01551" lon="-4.20573">
        <ele>158.40092849157</ele>
        <time>2021-03-07T17:07:41.642Z</time>
      </trkpt>
      <trkpt lat="48.01544" lon="-4.20526">
        <ele>158.36908505341</ele>
        <time>2021-03-07T17:07:41.810Z</time>
      </trkpt>
      <trkpt lat="48.01533" lon="-4.20393">
        <ele>158.25103865881</ele>
        <time>2021-03-07T17:07:41.992Z</time>
      </trkpt>
      <trkpt lat="48.01531" lon="-4.20311">
        <ele>157.86138579951</ele>
        <time>2021-03-07T17:07:42.183Z</time>
      </trkpt>
      <trkpt lat="48.01526" lon="-4.20308">
        <ele>157.39168114985</ele>
        <time>2021-03-07T17:07:42.375Z</time>
      </trkpt>
      <trkpt lat="48.01524" lon="-4.203">
        <ele>156.79564063481</ele>
        <time>2021-03-07T17:07:42.568Z</time>
      </trkpt>
      <trkpt lat="48.01527" lon="-4.20291">
        <ele>156.09483030074</ele>
        <time>2021-03-07T17:07:42.762Z</time>
      </trkpt>
      <trkpt lat="48.01531" lon="-4.20288">
        <ele>155.29307894375</ele>
        <time>2021-03-07T17:07:42.957Z</time>
      </trkpt>
      <trkpt lat="48.01528" lon="-4.20176">
        <ele>154.27325707664</ele>
        <time>2021-03-07T17:07:43.164Z</time>
      </trkpt>
      <trkpt lat="48.01524" lon="-4.20064">
        <ele>153.14803770916</ele>
        <time>2021-03-07T17:07:43.383Z</time>
      </trkpt>
      <trkpt lat="48.01512" lon="-4.19951">
        <ele>151.86354245329</ele>
        <time>2021-03-07T17:07:43.614Z</time>
      </trkpt>
      <trkpt lat="48.01504" lon="-4.19932">
        <ele>150.55463672843</ele>
        <time>2021-03-07T17:07:43.847Z</time>
      </trkpt>
      <trkpt lat="48.01495" lon="-4.19897">
        <ele>149.10507364805</ele>
        <time>2021-03-07T17:07:44.084Z</time>
      </trkpt>
      <trkpt lat="48.01492" lon="-4.19876">
        <ele>147.59909506315</ele>
        <time>2021-03-07T17:07:44.324Z</time>
      </trkpt>
      <trkpt lat="48.01562" lon="-4.19871">
        <ele>146.27123166594</ele>
        <time>2021-03-07T17:07:44.575Z</time>
      </trkpt>
      <trkpt lat="48.01607" lon="-4.19862">
        <ele>144.93224376504</ele>
        <time>2021-03-07T17:07:44.833Z</time>
      </trkpt>
      <trkpt lat="48.01684" lon="-4.19831">
        <ele>143.40465564598</ele>
        <time>2021-03-07T17:07:45.104Z</time>
      </trkpt>
      <trkpt lat="48.0176" lon="-4.198">
        <ele>141.78555434346</ele>
        <time>2021-03-07T17:07:45.388Z</time>
      </trkpt>
      <trkpt lat="48.01823" lon="-4.19784">
        <ele>140.22424375969</ele>
        <time>2021-03-07T17:07:45.682Z</time>
      </trkpt>
      <trkpt lat="48.01901" lon="-4.19777">
        <ele>138.44284986762</ele>
        <time>2021-03-07T17:07:45.988Z</time>
      </trkpt>
      <trkpt lat="48.019" lon="-4.19777">
        <ele>136.96327285952</ele>
        <time>2021-03-07T17:07:46.295Z</time>
      </trkpt>
      <trkpt lat="48.0198" lon="-4.19773">
        <ele>135.37154218741</ele>
        <time>2021-03-07T17:07:46.614Z</time>
      </trkpt>
      <trkpt lat="48.02001" lon="-4.19766">
        <ele>134.06444721311</ele>
        <time>2021-03-07T17:07:46.937Z</time>
      </trkpt>
      <trkpt lat="48.02016" lon="-4.19759">
        <ele>133.0371118836</ele>
        <time>2021-03-07T17:07:47.262Z</time>
      </trkpt>
      <trkpt lat="48.02064" lon="-4.19723">
        <ele>132.24183558456</ele>
        <time>2021-03-07T17:07:47.596Z</time>
      </trkpt>
      <trkpt lat="48.02091" lon="-4.19714">
        <ele>131.84570809911</ele>
        <time>2021-03-07T17:07:47.934Z</time>
      </trkpt>
      <trkpt lat="48.02142" lon="-4.19711">
        <ele>131.76439863048</ele>
        <time>2021-03-07T17:07:48.281Z</time>
      </trkpt>
      <trkpt lat="48.02193" lon="-4.19707">
        <ele>132.0661860424</ele>
        <time>2021-03-07T17:07:48.636Z</time>
      </trkpt>
      <trkpt lat="48.02203" lon="-4.19707">
        <ele>132.61935527744</ele>
        <time>2021-03-07T17:07:48.992Z</time>
      </trkpt>
      <trkpt lat="48.02231" lon="-4.19714">
        <ele>133.46382062095</ele>
        <time>2021-03-07T17:07:49.353Z</time>
      </trkpt>
      <trkpt lat="48.02288" lon="-4.19733">
        <ele>134.61483552531</ele>
        <time>2021-03-07T17:07:49.723Z</time>
      </trkpt>
      <trkpt lat="48.02345" lon="-4.19752">
        <ele>135.84432722361</ele>
        <time>2021-03-07T17:07:50.103Z</time>
      </trkpt>
      <trkpt lat="48.02366" lon="-4.19749">
        <ele>137.16521074133</ele>
        <time>2021-03-07T17:07:50.486Z</time>
      </trkpt>
      <trkpt lat="48.02399" lon="-4.19735">
        <ele>138.61524652608</ele>
        <time>2021-03-07T17:07:50.874Z</time>
      </trkpt>
      <trkpt lat="48.02415" lon="-4.19733">
        <ele>139.89671004956</ele>
        <time>2021-03-07T17:07:51.265Z</time>
      </trkpt>
      <trkpt lat="48.02438" lon="-4.1973">
        <ele>141.08594538861</ele>
        <time>2021-03-07T17:07:51.660Z</time>
      </trkpt>
      <trkpt lat="48.02476" lon="-4.19735">
        <ele>142.09839778331</ele>
        <time>2021-03-07T17:07:52.061Z</time>
      </trkpt>
      <trkpt lat="48.02492" lon="-4.1973">
        <ele>142.95266663564</ele>
        <time>2021-03-07T17:07:52.464Z</time>
      </trkpt>
      <trkpt lat="48.02528" lon="-4.19714">
        <ele>143.62536562696</ele>
        <time>2021-03-07T17:07:52.873Z</time>
      </trkpt>
      <trkpt lat="48.02546" lon="-4.19714">
        <ele>144.07316290738</ele>
        <time>2021-03-07T17:07:53.285Z</time>
      </trkpt>
      <trkpt lat="48.02562" lon="-4.19716">
        <ele>144.31930111419</ele>
        <time>2021-03-07T17:07:53.700Z</time>
      </trkpt>
      <trkpt lat="48.0259" lon="-4.19723">
        <ele>144.36720195612</ele>
        <time>2021-03-07T17:07:54.119Z</time>
      </trkpt>
      <trkpt lat="48.02636" lon="-4.19737">
        <ele>144.28018667456</ele>
        <time>2021-03-07T17:07:54.546Z</time>
      </trkpt>
      <trkpt lat="48.02669" lon="-4.19733">
        <ele>144.14883137516</ele>
        <time>2021-03-07T17:07:54.978Z</time>
      </trkpt>
      <trkpt lat="48.02698" lon="-4.19726">
        <ele>143.95342969222</ele>
        <time>2021-03-07T17:07:55.415Z</time>
      </trkpt>
      <trkpt lat="48.02752" lon="-4.19701">
        <ele>143.57281339953</ele>
        <time>2021-03-07T17:07:55.861Z</time>
      </trkpt>
      <trkpt lat="48.02806" lon="-4.19676">
        <ele>142.9247391609</ele>
        <time>2021-03-07T17:07:56.316Z</time>
      </trkpt>
      <trkpt lat="48.02834" lon="-4.19669">
        <ele>142.31262139269</ele>
        <time>2021-03-07T17:07:56.776Z</time>
      </trkpt>
      <trkpt lat="48.02883" lon="-4.19666">
        <ele>141.63365323443</ele>
        <time>2021-03-07T17:07:57.243Z</time>
      </trkpt>
      <trkpt lat="48.02932" lon="-4.19662">
        <ele>140.85001758758</ele>
        <time>2021-03-07T17:07:57.718Z</time>
      </trkpt>
      <trkpt lat="48.02973" lon="-4.19651">
        <ele>140.07497132556</ele>
        <time>2021-03-07T17:07:58.200Z</time>
      </trkpt>
      <trkpt lat="48.03003" lon="-4.19637">
        <ele>139.1981162071</ele>
        <time>2021-03-07T17:07:58.687Z</time>
      </trkpt>
      <trkpt lat="48.03019" lon="-4.1963">
        <ele>138.18847689757</ele>
        <time>2021-03-07T17:07:59.177Z</time>
      </trkpt>
      <trkpt lat="48.03068" lon="-4.19622">
        <ele>137.07260565406</ele>
        <time>2021-03-07T17:07:59.675Z</time>
      </trkpt>
      <trkpt lat="48.03125" lon="-4.19606">
        <ele>135.77971495847</ele>
        <time>2021-03-07T17:08:00.182Z</time>
      </trkpt>
      <trkpt lat="48.03181" lon="-4.1959">
        <ele>134.21187594276</ele>
        <time>2021-03-07T17:08:00.698Z</time>
      </trkpt>
      <trkpt lat="48.03208" lon="-4.19588">
        <ele>132.41733839449</ele>
        <time>2021-03-07T17:08:01.218Z</time>
      </trkpt>
      <trkpt lat="48.03272" lon="-4.19584">
        <ele>130.43044954411</ele>
        <time>2021-03-07T17:08:01.749Z</time>
      </trkpt>
      <trkpt lat="48.03336" lon="-4.1958">
        <ele>128.21140319298</ele>
        <time>2021-03-07T17:08:02.290Z</time>
      </trkpt>
      <trkpt lat="48.03396" lon="-4.19564">
        <ele>125.61487021161</ele>
        <time>2021-03-07T17:08:02.841Z</time>
      </trkpt>
      <trkpt lat="48.03452" lon="-4.19543">
        <ele>122.87240237603</ele>
        <time>2021-03-07T17:08:03.401Z</time>
      </trkpt>
      <trkpt lat="48.03482" lon="-4.19532">
        <ele>120.09317403547</ele>
        <time>2021-03-07T17:08:03.966Z</time>
      </trkpt>
      <trkpt lat="48.03505" lon="-4.19531">
        <ele>117.23942808316</ele>
        <time>2021-03-07T17:08:04.534Z</time>
      </trkpt>
      <trkpt lat="48.03531" lon="-4.19536">
        <ele>114.3773328356</ele>
        <time>2021-03-07T17:08:05.107Z</time>
      </trkpt>
      <trkpt lat="48.03559" lon="-4.19545">
        <ele>111.5880045652</ele>
        <time>2021-03-07T17:08:05.684Z</time>
      </trkpt>
      <trkpt lat="48.03606" lon="-4.19574">
        <ele>108.90438326488</ele>
        <time>2021-03-07T17:08:06.269Z</time>
      </trkpt>
      <trkpt lat="48.0365" lon="-4.19618">
        <ele>106.17320162427</ele>
        <time>2021-03-07T17:08:06.863Z</time>
      </trkpt>
      <trkpt lat="48.03684" lon="-4.19663">
        <ele>103.67511168275</ele>
        <time>2021-03-07T17:08:07.464Z</time>
      </trkpt>
      <trkpt lat="48.03745" lon="-4.19754">
        <ele>101.25773589458</ele>
        <time>2021-03-07T17:08:08.079Z</time>
      </trkpt>
      <trkpt lat="48.03807" lon="-4.19844">
        <ele>99.46512356557</ele>
        <time>2021-03-07T17:08:08.708Z</time>
      </trkpt>
      <trkpt lat="48.03868" lon="-4.19935">
        <ele>98.01509225804</ele>
        <time>2021-03-07T17:08:09.351Z</time>
      </trkpt>
      <trkpt lat="48.03927" lon="-4.20018">
        <ele>96.93014003042</ele>
        <time>2021-03-07T17:08:10.007Z</time>
      </trkpt>
      <trkpt lat="48.03948" lon="-4.20049">
        <ele>96.45790290713</ele>
        <time>2021-03-07T17:08:10.667Z</time>
      </trkpt>
      <trkpt lat="48.03966" lon="-4.2008">
        <ele>96.38543706719</ele>
        <time>2021-03-07T17:08:11.332Z</time>
      </trkpt>
      <trkpt lat="48.03981" lon="-4.20111">
        <ele>96.62423452213</ele>
        <time>2021-03-07T17:08:12.001Z</time>
      </trkpt>
      <trkpt lat="48.04" lon="-4.20164">
        <ele>97.11916398059</ele>
        <time>2021-03-07T17:08:12.676Z</time>
      </trkpt>
      <trkpt lat="48.04024" lon="-4.20247">
        <ele>98.05709263339</ele>
        <time>2021-03-07T17:08:13.361Z</time>
      </trkpt>
      <trkpt lat="48.04047" lon="-4.20331">
        <ele>99.17655865125</ele>
        <time>2021-03-07T17:08:14.056Z</time>
      </trkpt>
      <trkpt lat="48.04063" lon="-4.20368">
        <ele>100.57226272503</ele>
        <time>2021-03-07T17:08:14.756Z</time>
      </trkpt>
      <trkpt lat="48.04075" lon="-4.20388">
        <ele>102.18033672291</ele>
        <time>2021-03-07T17:08:15.458Z</time>
      </trkpt>
      <trkpt lat="48.04116" lon="-4.20441">
        <ele>104.07822071773</ele>
        <time>2021-03-07T17:08:16.169Z</time>
      </trkpt>
      <trkpt lat="48.04154" lon="-4.20484">
        <ele>106.0496012482</ele>
        <time>2021-03-07T17:08:16.888Z</time>
      </trkpt>
      <trkpt lat="48.0416" lon="-4.20486">
        <ele>108.02005462729</ele>
        <time>2021-03-07T17:08:17.608Z</time>
      </trkpt>
      <trkpt lat="48.04167" lon="-4.20484">
        <ele>110.02977786694</ele>
        <time>2021-03-07T17:08:18.329Z</time>
      </trkpt>
      <trkpt lat="48.04219" lon="-4.20465">
        <ele>112.2321919122</ele>
        <time>2021-03-07T17:08:19.058Z</time>
      </trkpt>
      <trkpt lat="48.04225" lon="-4.20467">
        <ele>114.2061427081</ele>
        <time>2021-03-07T17:08:19.788Z</time>
      </trkpt>
      <trkpt lat="48.04231" lon="-4.20474">
        <ele>116.10663050262</ele>
        <time>2021-03-07T17:08:20.520Z</time>
      </trkpt>
      <trkpt lat="48.04235" lon="-4.20486">
        <ele>117.90155387109</ele>
        <time>2021-03-07T17:08:21.253Z</time>
      </trkpt>
      <trkpt lat="48.04249" lon="-4.2057">
        <ele>119.56073507291</ele>
        <time>2021-03-07T17:08:21.995Z</time>
      </trkpt>
      <trkpt lat="48.04258" lon="-4.20595">
        <ele>121.04747199818</ele>
        <time>2021-03-07T17:08:22.740Z</time>
      </trkpt>
      <trkpt lat="48.04275" lon="-4.20612">
        <ele>122.44221374482</ele>
        <time>2021-03-07T17:08:23.489Z</time>
      </trkpt>
      <trkpt lat="48.04305" lon="-4.20635">
        <ele>123.73763112524</ele>
        <time>2021-03-07T17:08:24.243Z</time>
      </trkpt>
      <trkpt lat="48.04321" lon="-4.20641">
        <ele>124.82011093828</ele>
        <time>2021-03-07T17:08:25.000Z</time>
      </trkpt>
      <trkpt lat="48.04372" lon="-4.20643">
        <ele>125.70562590733</ele>
        <time>2021-03-07T17:08:25.765Z</time>
      </trkpt>
      <trkpt lat="48.04385" lon="-4.2064">
        <ele>126.23488407778</ele>
        <time>2021-03-07T17:08:26.532Z</time>
      </trkpt>
      <trkpt lat="48.04393" lon="-4.20634">
        <ele>126.50078867765</ele>
        <time>2021-03-07T17:08:27.300Z</time>
      </trkpt>
      <trkpt lat="48.04398" lon="-4.20637">
        <ele>126.47169497</ele>
        <time>2021-03-07T17:08:28.069Z</time>
      </trkpt>
      <trkpt lat="48.04399" lon="-4.20641">
        <ele>126.15350141808</ele>
        <time>2021-03-07T17:08:28.839Z</time>
      </trkpt>
      <trkpt lat="48.04412" lon="-4.20649">
        <ele>125.55322351687</ele>
        <time>2021-03-07T17:08:29.611Z</time>
      </trkpt>
      <trkpt lat="48.04492" lon="-4.20674">
        <ele>124.61780275384</ele>
        <time>2021-03-07T17:08:30.396Z</time>
      </trkpt>
      <trkpt lat="48.04576" lon="-4.20697">
        <ele>123.26090042615</ele>
        <time>2021-03-07T17:08:31.195Z</time>
      </trkpt>
      <trkpt lat="48.04639" lon="-4.20704">
        <ele>121.84931119218</ele>
        <time>2021-03-07T17:08:32.004Z</time>
      </trkpt>
      <trkpt lat="48.04666" lon="-4.20704">
        <ele>120.1728597112</ele>
        <time>2021-03-07T17:08:32.817Z</time>
      </trkpt>
      <trkpt lat="48.04691" lon="-4.20702">
        <ele>118.27595038981</ele>
        <time>2021-03-07T17:08:33.634Z</time>
      </trkpt>
      <trkpt lat="48.0472" lon="-4.20693">
        <ele>116.23628343443</ele>
        <time>2021-03-07T17:08:34.456Z</time>
      </trkpt>
      <trkpt lat="48.04743" lon="-4.20688">
        <ele>114.03473539606</ele>
        <time>2021-03-07T17:08:35.282Z</time>
      </trkpt>
      <trkpt lat="48.04786" lon="-4.20669">
        <ele>111.56796971089</ele>
        <time>2021-03-07T17:08:36.115Z</time>
      </trkpt>
      <trkpt lat="48.04832" lon="-4.20641">
        <ele>109.04309610322</ele>
        <time>2021-03-07T17:08:36.956Z</time>
      </trkpt>
      <trkpt lat="48.04909" lon="-4.20581">
        <ele>106.38900972566</ele>
        <time>2021-03-07T17:08:37.811Z</time>
      </trkpt>
      <trkpt lat="48.04987" lon="-4.20522">
        <ele>103.63392731009</ele>
        <time>2021-03-07T17:08:38.680Z</time>
      </trkpt>
      <trkpt lat="48.05064" lon="-4.20462">
        <ele>101.21798491912</ele>
        <time>2021-03-07T17:08:39.563Z</time>
      </trkpt>
      <trkpt lat="48.05134" lon="-4.20411">
        <ele>99.02708871968</ele>
        <time>2021-03-07T17:08:40.458Z</time>
      </trkpt>
      <trkpt lat="48.05203" lon="-4.20359">
        <ele>96.97084047613</ele>
        <time>2021-03-07T17:08:41.365Z</time>
      </trkpt>
      <trkpt lat="48.05227" lon="-4.20346">
        <ele>95.00528769931</ele>
        <time>2021-03-07T17:08:42.277Z</time>
      </trkpt>
      <trkpt lat="48.05249" lon="-4.20336">
        <ele>93.1705159509</ele>
        <time>2021-03-07T17:08:43.192Z</time>
      </trkpt>
      <trkpt lat="48.0528" lon="-4.20331">
        <ele>91.44679213325</ele>
        <time>2021-03-07T17:08:44.112Z</time>
      </trkpt>
      <trkpt lat="48.05338" lon="-4.20336">
        <ele>89.81201657037</ele>
        <time>2021-03-07T17:08:45.042Z</time>
      </trkpt>
      <trkpt lat="48.0541" lon="-4.20344">
        <ele>88.26700557524</ele>
        <time>2021-03-07T17:08:45.983Z</time>
      </trkpt>
      <trkpt lat="48.05483" lon="-4.20351">
        <ele>87.02128731591</ele>
        <time>2021-03-07T17:08:46.936Z</time>
      </trkpt>
      <trkpt lat="48.05555" lon="-4.20359">
        <ele>85.91664136276</ele>
        <time>2021-03-07T17:08:47.900Z</time>
      </trkpt>
      <trkpt lat="48.05608" lon="-4.20361">
        <ele>85.08111928167</ele>
        <time>2021-03-07T17:08:48.873Z</time>
      </trkpt>
      <trkpt lat="48.05675" lon="-4.20361">
        <ele>84.42255974925</ele>
        <time>2021-03-07T17:08:49.857Z</time>
      </trkpt>
      <trkpt lat="48.05743" lon="-4.20362">
        <ele>84.09236809057</ele>
        <time>2021-03-07T17:08:50.851Z</time>
      </trkpt>
      <trkpt lat="48.05809" lon="-4.20364">
        <ele>83.93951273605</ele>
        <time>2021-03-07T17:08:51.856Z</time>
      </trkpt>
      <trkpt lat="48.05826" lon="-4.20359">
        <ele>84.02754351329</ele>
        <time>2021-03-07T17:08:52.864Z</time>
      </trkpt>
      <trkpt lat="48.05841" lon="-4.20352">
        <ele>84.32001899936</ele>
        <time>2021-03-07T17:08:53.874Z</time>
      </trkpt>
      <trkpt lat="48.05865" lon="-4.20338">
        <ele>84.8134815587</ele>
        <time>2021-03-07T17:08:54.888Z</time>
      </trkpt>
      <trkpt lat="48.0589" lon="-4.20319">
        <ele>85.43059213548</ele>
        <time>2021-03-07T17:08:55.907Z</time>
      </trkpt>
      <trkpt lat="48.0591" lon="-4.20308">
        <ele>86.13590612149</ele>
        <time>2021-03-07T17:08:56.929Z</time>
      </trkpt>
      <trkpt lat="48.05932" lon="-4.20301">
        <ele>86.94521976338</ele>
        <time>2021-03-07T17:08:57.955Z</time>
      </trkpt>
      <trkpt lat="48.05955" lon="-4.20301">
        <ele>87.86201440175</ele>
        <time>2021-03-07T17:08:58.985Z</time>
      </trkpt>
      <trkpt lat="48.06035" lon="-4.20319">
        <ele>88.92566141676</ele>
        <time>2021-03-07T17:09:00.028Z</time>
      </trkpt>
      <trkpt lat="48.06047" lon="-4.20319">
        <ele>90.01363644469</ele>
        <time>2021-03-07T17:09:01.073Z</time>
      </trkpt>
      <trkpt lat="48.06097" lon="-4.2031">
        <ele>91.18621874406</ele>
        <time>2021-03-07T17:09:02.126Z</time>
      </trkpt>
      <trkpt lat="48.06146" lon="-4.20301">
        <ele>92.45398344096</ele>
        <time>2021-03-07T17:09:03.187Z</time>
      </trkpt>
      <trkpt lat="48.06163" lon="-4.20296">
        <ele>93.6958675989</ele>
        <time>2021-03-07T17:09:04.250Z</time>
      </trkpt>
      <trkpt lat="48.06181" lon="-4.20284">
        <ele>94.92281788188</ele>
        <time>2021-03-07T17:09:05.316Z</time>
      </trkpt>
      <trkpt lat="48.06238" lon="-4.20244">
        <ele>96.15724089184</ele>
        <time>2021-03-07T17:09:06.392Z</time>
      </trkpt>
      <trkpt lat="48.06294" lon="-4.20204">
        <ele>97.62387148005</ele>
        <time>2021-03-07T17:09:07.478Z</time>
      </trkpt>
      <trkpt lat="48.06327" lon="-4.20177">
        <ele>99.0430054129</ele>
        <time>2021-03-07T17:09:08.570Z</time>
      </trkpt>
      <trkpt lat="48.0638" lon="-4.2013">
        <ele>100.46807274225</ele>
        <time>2021-03-07T17:09:09.672Z</time>
      </trkpt>
      <trkpt lat="48.06432" lon="-4.20082">
        <ele>101.78273231878</ele>
        <time>2021-03-07T17:09:10.784Z</time>
      </trkpt>
      <trkpt lat="48.06453" lon="-4.20071">
        <ele>102.85041967198</ele>
        <time>2021-03-07T17:09:11.900Z</time>
      </trkpt>
      <trkpt lat="48.0647" lon="-4.20068">
        <ele>103.76571536242</ele>
        <time>2021-03-07T17:09:13.018Z</time>
      </trkpt>
      <trkpt lat="48.06487" lon="-4.20071">
        <ele>104.59277081637</ele>
        <time>2021-03-07T17:09:14.139Z</time>
      </trkpt>
      <trkpt lat="48.06532" lon="-4.20086">
        <ele>105.21307211484</ele>
        <time>2021-03-07T17:09:15.268Z</time>
      </trkpt>
      <trkpt lat="48.06577" lon="-4.20101">
        <ele>105.92023040103</ele>
        <time>2021-03-07T17:09:16.404Z</time>
      </trkpt>
      <trkpt lat="48.06588" lon="-4.20101">
        <ele>106.57104989089</ele>
        <time>2021-03-07T17:09:17.542Z</time>
      </trkpt>
      <trkpt lat="48.066" lon="-4.20097">
        <ele>107.20332138417</ele>
        <time>2021-03-07T17:09:18.682Z</time>
      </trkpt>
      <trkpt lat="48.06611" lon="-4.20089">
        <ele>107.82331656107</ele>
        <time>2021-03-07T17:09:19.824Z</time>
      </trkpt>
      <trkpt lat="48.06641" lon="-4.20052">
        <ele>108.44334713176</ele>
        <time>2021-03-07T17:09:20.972Z</time>
      </trkpt>
      <trkpt lat="48.06687" lon="-4.19989">
        <ele>109.19795490686</ele>
        <time>2021-03-07T17:09:22.130Z</time>
      </trkpt>
      <trkpt lat="48.06732" lon="-4.19925">
        <ele>110.08514466185</ele>
        <time>2021-03-07T17:09:23.298Z</time>
      </trkpt>
      <trkpt lat="48.06747" lon="-4.19897">
        <ele>110.9671154124</ele>
        <time>2021-03-07T17:09:24.470Z</time>
      </trkpt>
      <trkpt lat="48.06761" lon="-4.19866">
        <ele>111.84195886629</ele>
        <time>2021-03-07T17:09:25.646Z</time>
      </trkpt>
      <trkpt lat="48.06786" lon="-4.19793">
        <ele>112.63983551508</ele>
        <time>2021-03-07T17:09:26.831Z</time>
      </trkpt>
      <trkpt lat="48.06811" lon="-4.19719">
        <ele>113.56985295776</ele>
        <time>2021-03-07T17:09:28.024Z</time>
      </trkpt>
      <trkpt lat="48.0686" lon="-4.19615">
        <ele>114.48957483732</ele>
        <time>2021-03-07T17:09:29.231Z</time>
      </trkpt>
      <trkpt lat="48.06871" lon="-4.19599">
        <ele>115.32789527537</ele>
        <time>2021-03-07T17:09:30.440Z</time>
      </trkpt>
      <trkpt lat="48.06884" lon="-4.19585">
        <ele>116.11599007974</ele>
        <time>2021-03-07T17:09:31.652Z</time>
      </trkpt>
      <trkpt lat="48.06941" lon="-4.1955">
        <ele>116.76024720932</ele>
        <time>2021-03-07T17:09:32.874Z</time>
      </trkpt>
      <trkpt lat="48.06997" lon="-4.19515">
        <ele>117.47681041027</ele>
        <time>2021-03-07T17:09:34.106Z</time>
      </trkpt>
      <trkpt lat="48.0703" lon="-4.19498">
        <ele>118.38136244561</ele>
        <time>2021-03-07T17:09:35.343Z</time>
      </trkpt>
      <trkpt lat="48.07093" lon="-4.19472">
        <ele>119.09899712572</ele>
        <time>2021-03-07T17:09:36.591Z</time>
      </trkpt>
      <trkpt lat="48.07105" lon="-4.19465">
        <ele>119.74211917199</ele>
        <time>2021-03-07T17:09:37.841Z</time>
      </trkpt>
      <trkpt lat="48.07165" lon="-4.19411">
        <ele>120.43725338354</ele>
        <time>2021-03-07T17:09:39.102Z</time>
      </trkpt>
      <trkpt lat="48.072" lon="-4.19372">
        <ele>121.12692235402</ele>
        <time>2021-03-07T17:09:40.370Z</time>
      </trkpt>
      <trkpt lat="48.07199" lon="-4.19372">
        <ele>121.73694866889</ele>
        <time>2021-03-07T17:09:41.638Z</time>
      </trkpt>
      <trkpt lat="48.07233" lon="-4.19334">
        <ele>122.35741110697</ele>
        <time>2021-03-07T17:09:42.913Z</time>
      </trkpt>
      <trkpt lat="48.07282" lon="-4.19296">
        <ele>122.92867358375</ele>
        <time>2021-03-07T17:09:44.197Z</time>
      </trkpt>
      <trkpt lat="48.07299" lon="-4.19278">
        <ele>123.52564075402</ele>
        <time>2021-03-07T17:09:45.484Z</time>
      </trkpt>
      <trkpt lat="48.07301" lon="-4.19279">
        <ele>124.06291805912</ele>
        <time>2021-03-07T17:09:46.771Z</time>
      </trkpt>
      <trkpt lat="48.07304" lon="-4.19277">
        <ele>124.58960991701</ele>
        <time>2021-03-07T17:09:48.059Z</time>
      </trkpt>
      <trkpt lat="48.07314" lon="-4.19282">
        <ele>125.10857437242</ele>
        <time>2021-03-07T17:09:49.349Z</time>
      </trkpt>
      <trkpt lat="48.07348" lon="-4.19289">
        <ele>125.66782093543</ele>
        <time>2021-03-07T17:09:50.644Z</time>
      </trkpt>
      <trkpt lat="48.07387" lon="-4.19328">
        <ele>126.10203638991</ele>
        <time>2021-03-07T17:09:51.947Z</time>
      </trkpt>
      <trkpt lat="48.07425" lon="-4.19367">
        <ele>126.6087852999</ele>
        <time>2021-03-07T17:09:53.257Z</time>
      </trkpt>
      <trkpt lat="48.07476" lon="-4.19396">
        <ele>126.93153223961</ele>
        <time>2021-03-07T17:09:54.576Z</time>
      </trkpt>
      <trkpt lat="48.07523" lon="-4.19425">
        <ele>127.26770337822</ele>
        <time>2021-03-07T17:09:55.903Z</time>
      </trkpt>
      <trkpt lat="48.0757" lon="-4.19454">
        <ele>127.5641412684</ele>
        <time>2021-03-07T17:09:57.238Z</time>
      </trkpt>
      <trkpt lat="48.07607" lon="-4.19468">
        <ele>127.93988779751</ele>
        <time>2021-03-07T17:09:58.579Z</time>
      </trkpt>
      <trkpt lat="48.07649" lon="-4.19489">
        <ele>128.22265425525</ele>
        <time>2021-03-07T17:09:59.927Z</time>
      </trkpt>
      <trkpt lat="48.07691" lon="-4.19491">
        <ele>128.42584345606</ele>
        <time>2021-03-07T17:10:01.282Z</time>
      </trkpt>
      <trkpt lat="48.0771" lon="-4.19489">
        <ele>128.63997720844</ele>
        <time>2021-03-07T17:10:02.640Z</time>
      </trkpt>
      <trkpt lat="48.07718" lon="-4.19485">
        <ele>128.78423701212</ele>
        <time>2021-03-07T17:10:03.999Z</time>
      </trkpt>
      <trkpt lat="48.07728" lon="-4.19476">
        <ele>128.85473906313</ele>
        <time>2021-03-07T17:10:05.360Z</time>
      </trkpt>
      <trkpt lat="48.07745" lon="-4.19445">
        <ele>128.8491100177</ele>
        <time>2021-03-07T17:10:06.726Z</time>
      </trkpt>
      <trkpt lat="48.07761" lon="-4.19376">
        <ele>128.69602311936</ele>
        <time>2021-03-07T17:10:08.099Z</time>
      </trkpt>
      <trkpt lat="48.07777" lon="-4.19307">
        <ele>128.45381107548</ele>
        <time>2021-03-07T17:10:09.480Z</time>
      </trkpt>
      <trkpt lat="48.07786" lon="-4.19222">
        <ele>128.10658191452</ele>
        <time>2021-03-07T17:10:10.871Z</time>
      </trkpt>
      <trkpt lat="48.07784" lon="-4.19207">
        <ele>127.57504633786</ele>
        <time>2021-03-07T17:10:12.263Z</time>
      </trkpt>
      <trkpt lat="48.07785" lon="-4.19194">
        <ele>126.89538722212</ele>
        <time>2021-03-07T17:10:13.657Z</time>
      </trkpt>
      <trkpt lat="48.07792" lon="-4.19172">
        <ele>126.06540836217</ele>
        <time>2021-03-07T17:10:15.053Z</time>
      </trkpt>
      <trkpt lat="48.07817" lon="-4.19123">
        <ele>125.0928409759</ele>
        <time>2021-03-07T17:10:16.456Z</time>
      </trkpt>
      <trkpt lat="48.07826" lon="-4.19116">
        <ele>124.00877532468</ele>
        <time>2021-03-07T17:10:17.860Z</time>
      </trkpt>
      <trkpt lat="48.07838" lon="-4.1905">
        <ele>122.78644914311</ele>
        <time>2021-03-07T17:10:19.272Z</time>
      </trkpt>
      <trkpt lat="48.0785" lon="-4.18971">
        <ele>121.4110619171</ele>
        <time>2021-03-07T17:10:20.692Z</time>
      </trkpt>
      <trkpt lat="48.07857" lon="-4.18894">
        <ele>120.05773125432</ele>
        <time>2021-03-07T17:10:22.121Z</time>
      </trkpt>
      <trkpt lat="48.07863" lon="-4.18825">
        <ele>118.51891301624</ele>
        <time>2021-03-07T17:10:23.557Z</time>
      </trkpt>
      <trkpt lat="48.07868" lon="-4.18756">
        <ele>116.95054772078</ele>
        <time>2021-03-07T17:10:25.001Z</time>
      </trkpt>
      <trkpt lat="48.07877" lon="-4.18659">
        <ele>115.46646286236</ele>
        <time>2021-03-07T17:10:26.455Z</time>
      </trkpt>
      <trkpt lat="48.07886" lon="-4.18562">
        <ele>114.01785255769</ele>
        <time>2021-03-07T17:10:27.920Z</time>
      </trkpt>
      <trkpt lat="48.07902" lon="-4.18489">
        <ele>112.89821833989</ele>
        <time>2021-03-07T17:10:29.393Z</time>
      </trkpt>
      <trkpt lat="48.07918" lon="-4.18445">
        <ele>111.96332831239</ele>
        <time>2021-03-07T17:10:30.871Z</time>
      </trkpt>
      <trkpt lat="48.07966" lon="-4.18334">
        <ele>111.3504275493</ele>
        <time>2021-03-07T17:10:32.363Z</time>
      </trkpt>
      <trkpt lat="48.08014" lon="-4.18223">
        <ele>111.29261576158</ele>
        <time>2021-03-07T17:10:33.870Z</time>
      </trkpt>
      <trkpt lat="48.08062" lon="-4.18112">
        <ele>110.82136914718</ele>
        <time>2021-03-07T17:10:35.391Z</time>
      </trkpt>
      <trkpt lat="48.081" lon="-4.18009">
        <ele>110.59682542911</ele>
        <time>2021-03-07T17:10:36.924Z</time>
      </trkpt>
      <trkpt lat="48.08138" lon="-4.17906">
        <ele>110.85465133758</ele>
        <time>2021-03-07T17:10:38.470Z</time>
      </trkpt>
      <trkpt lat="48.08176" lon="-4.17803">
        <ele>111.4106521941</ele>
        <time>2021-03-07T17:10:40.029Z</time>
      </trkpt>
      <trkpt lat="48.08214" lon="-4.177">
        <ele>112.43039031246</ele>
        <time>2021-03-07T17:10:41.600Z</time>
      </trkpt>
      <trkpt lat="48.08245" lon="-4.17605">
        <ele>113.51647465497</ele>
        <time>2021-03-07T17:10:43.183Z</time>
      </trkpt>
      <trkpt lat="48.08251" lon="-4.17574">
        <ele>114.71423211764</ele>
        <time>2021-03-07T17:10:44.769Z</time>
      </trkpt>
      <trkpt lat="48.08262" lon="-4.17497">
        <ele>116.04487884</ele>
        <time>2021-03-07T17:10:46.364Z</time>
      </trkpt>
      <trkpt lat="48.08264" lon="-4.17434">
        <ele>117.54287259504</ele>
        <time>2021-03-07T17:10:47.965Z</time>
      </trkpt>
      <trkpt lat="48.08258" lon="-4.17363">
        <ele>119.21012785196</ele>
        <time>2021-03-07T17:10:49.574Z</time>
      </trkpt>
      <trkpt lat="48.0824" lon="-4.17264">
        <ele>120.88084953882</ele>
        <time>2021-03-07T17:10:51.194Z</time>
      </trkpt>
      <trkpt lat="48.08222" lon="-4.17165">
        <ele>122.78045698612</ele>
        <time>2021-03-07T17:10:52.825Z</time>
      </trkpt>
      <trkpt lat="48.08209" lon="-4.17079">
        <ele>124.88619305905</ele>
        <time>2021-03-07T17:10:54.465Z</time>
      </trkpt>
      <trkpt lat="48.08195" lon="-4.16994">
        <ele>126.97972277515</ele>
        <time>2021-03-07T17:10:56.115Z</time>
      </trkpt>
      <trkpt lat="48.08177" lon="-4.16866">
        <ele>129.02100661351</ele>
        <time>2021-03-07T17:10:57.779Z</time>
      </trkpt>
      <trkpt lat="48.08159" lon="-4.16739">
        <ele>130.91131972657</ele>
        <time>2021-03-07T17:10:59.457Z</time>
      </trkpt>
      <trkpt lat="48.0815" lon="-4.16643">
        <ele>132.88558796846</ele>
        <time>2021-03-07T17:11:01.145Z</time>
      </trkpt>
      <trkpt lat="48.0814" lon="-4.16547">
        <ele>134.72535389628</ele>
        <time>2021-03-07T17:11:02.844Z</time>
      </trkpt>
      <trkpt lat="48.08137" lon="-4.16505">
        <ele>136.33177183774</ele>
        <time>2021-03-07T17:11:04.547Z</time>
      </trkpt>
      <trkpt lat="48.08138" lon="-4.16408">
        <ele>137.62053429061</ele>
        <time>2021-03-07T17:11:06.261Z</time>
      </trkpt>
      <trkpt lat="48.08138" lon="-4.16312">
        <ele>138.89424488797</ele>
        <time>2021-03-07T17:11:07.985Z</time>
      </trkpt>
      <trkpt lat="48.0814" lon="-4.16265">
        <ele>140.05935281979</ele>
        <time>2021-03-07T17:11:09.714Z</time>
      </trkpt>
      <trkpt lat="48.08145" lon="-4.16237">
        <ele>141.12440427222</ele>
        <time>2021-03-07T17:11:11.446Z</time>
      </trkpt>
      <trkpt lat="48.08153" lon="-4.16209">
        <ele>142.14199522467</ele>
        <time>2021-03-07T17:11:13.181Z</time>
      </trkpt>
      <trkpt lat="48.08181" lon="-4.16148">
        <ele>143.30983666789</ele>
        <time>2021-03-07T17:11:14.924Z</time>
      </trkpt>
      <trkpt lat="48.08222" lon="-4.16098">
        <ele>144.34208978748</ele>
        <time>2021-03-07T17:11:16.676Z</time>
      </trkpt>
      <trkpt lat="48.08262" lon="-4.16047">
        <ele>145.08927678967</ele>
        <time>2021-03-07T17:11:18.436Z</time>
      </trkpt>
      <trkpt lat="48.08319" lon="-4.15972">
        <ele>145.78776630751</ele>
        <time>2021-03-07T17:11:20.208Z</time>
      </trkpt>
      <trkpt lat="48.0834" lon="-4.15933">
        <ele>146.46423068473</ele>
        <time>2021-03-07T17:11:21.986Z</time>
      </trkpt>
      <trkpt lat="48.08353" lon="-4.15897">
        <ele>147.04393588692</ele>
        <time>2021-03-07T17:11:23.768Z</time>
      </trkpt>
      <trkpt lat="48.0837" lon="-4.15834">
        <ele>147.67830318629</ele>
        <time>2021-03-07T17:11:25.557Z</time>
      </trkpt>
      <trkpt lat="48.08386" lon="-4.15771">
        <ele>148.18297591999</ele>
        <time>2021-03-07T17:11:27.354Z</time>
      </trkpt>
      <trkpt lat="48.08415" lon="-4.15668">
        <ele>148.50621525701</ele>
        <time>2021-03-07T17:11:29.163Z</time>
      </trkpt>
      <trkpt lat="48.08444" lon="-4.15566">
        <ele>148.59184797689</ele>
        <time>2021-03-07T17:11:30.983Z</time>
      </trkpt>
      <trkpt lat="48.08473" lon="-4.15463">
        <ele>148.75586013575</ele>
        <time>2021-03-07T17:11:32.815Z</time>
      </trkpt>
      <trkpt lat="48.08496" lon="-4.1538">
        <ele>148.90431318745</ele>
        <time>2021-03-07T17:11:34.657Z</time>
      </trkpt>
      <trkpt lat="48.08518" lon="-4.15296">
        <ele>148.90387920702</ele>
        <time>2021-03-07T17:11:36.509Z</time>
      </trkpt>
      <trkpt lat="48.08535" lon="-4.15206">
        <ele>148.6508865094</ele>
        <time>2021-03-07T17:11:38.371Z</time>
      </trkpt>
      <trkpt lat="48.08543" lon="-4.15109">
        <ele>148.40233842107</ele>
        <time>2021-03-07T17:11:40.243Z</time>
      </trkpt>
      <trkpt lat="48.08551" lon="-4.15011">
        <ele>148.082128657</ele>
        <time>2021-03-07T17:11:42.126Z</time>
      </trkpt>
      <trkpt lat="48.08559" lon="-4.14914">
        <ele>147.57621942879</ele>
        <time>2021-03-07T17:11:44.019Z</time>
      </trkpt>
      <trkpt lat="48.08566" lon="-4.14855">
        <ele>147.21509956964</ele>
        <time>2021-03-07T17:11:45.919Z</time>
      </trkpt>
      <trkpt lat="48.08572" lon="-4.14825">
        <ele>147.06043637073</ele>
        <time>2021-03-07T17:11:47.822Z</time>
      </trkpt>
      <trkpt lat="48.08585" lon="-4.14786">
        <ele>147.14097813967</ele>
        <time>2021-03-07T17:11:49.730Z</time>
      </trkpt>
      <trkpt lat="48.08595" lon="-4.14761">
        <ele>147.41965528609</ele>
        <time>2021-03-07T17:11:51.641Z</time>
      </trkpt>
      <trkpt lat="48.08621" lon="-4.14721">
        <ele>147.93234490865</ele>
        <time>2021-03-07T17:11:53.558Z</time>
      </trkpt>
      <trkpt lat="48.08645" lon="-4.14693">
        <ele>148.61259315052</ele>
        <time>2021-03-07T17:11:55.480Z</time>
      </trkpt>
      <trkpt lat="48.08681" lon="-4.14656">
        <ele>149.47227292655</ele>
        <time>2021-03-07T17:11:57.409Z</time>
      </trkpt>
      <trkpt lat="48.08754" lon="-4.14595">
        <ele>150.64522284519</ele>
        <time>2021-03-07T17:11:59.351Z</time>
      </trkpt>
      <trkpt lat="48.0881" lon="-4.14541">
        <ele>151.82884566649</ele>
        <time>2021-03-07T17:12:01.304Z</time>
      </trkpt>
      <trkpt lat="48.08865" lon="-4.14487">
        <ele>152.64483535926</ele>
        <time>2021-03-07T17:12:03.267Z</time>
      </trkpt>
      <trkpt lat="48.0891" lon="-4.14438">
        <ele>153.71639939616</ele>
        <time>2021-03-07T17:12:05.239Z</time>
      </trkpt>
      <trkpt lat="48.0892" lon="-4.14419">
        <ele>154.83442208186</ele>
        <time>2021-03-07T17:12:07.214Z</time>
      </trkpt>
      <trkpt lat="48.08946" lon="-4.14363">
        <ele>156.05366715216</ele>
        <time>2021-03-07T17:12:09.196Z</time>
      </trkpt>
      <trkpt lat="48.08961" lon="-4.14316">
        <ele>157.2208465484</ele>
        <time>2021-03-07T17:12:11.184Z</time>
      </trkpt>
      <trkpt lat="48.08987" lon="-4.14201">
        <ele>158.42822758811</ele>
        <time>2021-03-07T17:12:13.185Z</time>
      </trkpt>
      <trkpt lat="48.09007" lon="-4.14097">
        <ele>159.40985928974</ele>
        <time>2021-03-07T17:12:15.197Z</time>
      </trkpt>
      <trkpt lat="48.09027" lon="-4.13993">
        <ele>160.41875366297</ele>
        <time>2021-03-07T17:12:17.221Z</time>
      </trkpt>
      <trkpt lat="48.09047" lon="-4.1389">
        <ele>161.45335335123</ele>
        <time>2021-03-07T17:12:19.257Z</time>
      </trkpt>
      <trkpt lat="48.09067" lon="-4.13786">
        <ele>162.57439174734</ele>
        <time>2021-03-07T17:12:21.304Z</time>
      </trkpt>
      <trkpt lat="48.09087" lon="-4.13682">
        <ele>163.72488957842</ele>
        <time>2021-03-07T17:12:23.363Z</time>
      </trkpt>
      <trkpt lat="48.09104" lon="-4.13602">
        <ele>164.95269848575</ele>
        <time>2021-03-07T17:12:25.431Z</time>
      </trkpt>
      <trkpt lat="48.09124" lon="-4.13546">
        <ele>166.06616256813</ele>
        <time>2021-03-07T17:12:27.506Z</time>
      </trkpt>
      <trkpt lat="48.09168" lon="-4.13451">
        <ele>167.07457261726</ele>
        <time>2021-03-07T17:12:29.593Z</time>
      </trkpt>
      <trkpt lat="48.09217" lon="-4.13343">
        <ele>168.01165075873</ele>
        <time>2021-03-07T17:12:31.694Z</time>
      </trkpt>
      <trkpt lat="48.09265" lon="-4.13234">
        <ele>168.862485943</ele>
        <time>2021-03-07T17:12:33.809Z</time>
      </trkpt>
      <trkpt lat="48.09314" lon="-4.13126">
        <ele>169.4945017635</ele>
        <time>2021-03-07T17:12:35.938Z</time>
      </trkpt>
      <trkpt lat="48.09326" lon="-4.13095">
        <ele>170.10598727451</ele>
        <time>2021-03-07T17:12:38.071Z</time>
      </trkpt>
      <trkpt lat="48.09335" lon="-4.13051">
        <ele>170.62440765481</ele>
        <time>2021-03-07T17:12:40.209Z</time>
      </trkpt>
      <trkpt lat="48.09348" lon="-4.12969">
        <ele>171.02362083563</ele>
        <time>2021-03-07T17:12:42.356Z</time>
      </trkpt>
      <trkpt lat="48.0936" lon="-4.12886">
        <ele>171.2899031373</ele>
        <time>2021-03-07T17:12:44.512Z</time>
      </trkpt>
      <trkpt lat="48.0936" lon="-4.12887">
        <ele>171.4022074769</ele>
        <time>2021-03-07T17:12:46.668Z</time>
      </trkpt>
      <trkpt lat="48.09377" lon="-4.12781">
        <ele>171.50643350883</ele>
        <time>2021-03-07T17:12:48.836Z</time>
      </trkpt>
      <trkpt lat="48.09393" lon="-4.12676">
        <ele>171.25605555786</ele>
        <time>2021-03-07T17:12:51.015Z</time>
      </trkpt>
      <trkpt lat="48.0941" lon="-4.1257">
        <ele>170.76964720048</ele>
        <time>2021-03-07T17:12:53.206Z</time>
      </trkpt>
      <trkpt lat="48.09436" lon="-4.12474">
        <ele>170.18685221681</ele>
        <time>2021-03-07T17:12:55.408Z</time>
      </trkpt>
      <trkpt lat="48.0947" lon="-4.12392">
        <ele>169.45307869425</ele>
        <time>2021-03-07T17:12:57.620Z</time>
      </trkpt>
      <trkpt lat="48.09499" lon="-4.12352">
        <ele>168.623867733</ele>
        <time>2021-03-07T17:12:59.839Z</time>
      </trkpt>
      <trkpt lat="48.0953" lon="-4.12289">
        <ele>167.60981580645</ele>
        <time>2021-03-07T17:13:02.066Z</time>
      </trkpt>
      <trkpt lat="48.0954" lon="-4.12228">
        <ele>166.44377536644</ele>
        <time>2021-03-07T17:13:04.300Z</time>
      </trkpt>
      <trkpt lat="48.09539" lon="-4.12153">
        <ele>165.02348293754</ele>
        <time>2021-03-07T17:13:06.542Z</time>
      </trkpt>
      <trkpt lat="48.0953" lon="-4.1207">
        <ele>163.43688595114</ele>
        <time>2021-03-07T17:13:08.793Z</time>
      </trkpt>
      <trkpt lat="48.09521" lon="-4.11988">
        <ele>161.93122613914</ele>
        <time>2021-03-07T17:13:11.053Z</time>
      </trkpt>
      <trkpt lat="48.09511" lon="-4.11876">
        <ele>160.02012978773</ele>
        <time>2021-03-07T17:13:13.325Z</time>
      </trkpt>
      <trkpt lat="48.09508" lon="-4.11801">
        <ele>157.92664034667</ele>
        <time>2021-03-07T17:13:15.605Z</time>
      </trkpt>
      <trkpt lat="48.09513" lon="-4.11723">
        <ele>155.53555746546</ele>
        <time>2021-03-07T17:13:17.893Z</time>
      </trkpt>
      <trkpt lat="48.0954" lon="-4.11615">
        <ele>152.91033546612</ele>
        <time>2021-03-07T17:13:20.194Z</time>
      </trkpt>
      <trkpt lat="48.09555" lon="-4.11561">
        <ele>150.16316651251</ele>
        <time>2021-03-07T17:13:22.501Z</time>
      </trkpt>
      <trkpt lat="48.09595" lon="-4.11448">
        <ele>147.02746599127</ele>
        <time>2021-03-07T17:13:24.822Z</time>
      </trkpt>
      <trkpt lat="48.09636" lon="-4.11335">
        <ele>143.77100321185</ele>
        <time>2021-03-07T17:13:27.156Z</time>
      </trkpt>
      <trkpt lat="48.09676" lon="-4.11222">
        <ele>140.31783895799</ele>
        <time>2021-03-07T17:13:29.504Z</time>
      </trkpt>
      <trkpt lat="48.09716" lon="-4.11109">
        <ele>136.40981102074</ele>
        <time>2021-03-07T17:13:31.866Z</time>
      </trkpt>
      <trkpt lat="48.09757" lon="-4.10996">
        <ele>132.06352973809</ele>
        <time>2021-03-07T17:13:34.242Z</time>
      </trkpt>
      <trkpt lat="48.09797" lon="-4.10883">
        <ele>127.18313451554</ele>
        <time>2021-03-07T17:13:36.631Z</time>
      </trkpt>
      <trkpt lat="48.09826" lon="-4.10804">
        <ele>122.04408710252</ele>
        <time>2021-03-07T17:13:39.030Z</time>
      </trkpt>
      <trkpt lat="48.09855" lon="-4.10725">
        <ele>116.30783415923</ele>
        <time>2021-03-07T17:13:41.439Z</time>
      </trkpt>
      <trkpt lat="48.09893" lon="-4.10616">
        <ele>110.4963295189</ele>
        <time>2021-03-07T17:13:43.861Z</time>
      </trkpt>
      <trkpt lat="48.09932" lon="-4.10506">
        <ele>104.48825176889</ele>
        <time>2021-03-07T17:13:46.296Z</time>
      </trkpt>
      <trkpt lat="48.0997" lon="-4.10397">
        <ele>98.41386999863</ele>
        <time>2021-03-07T17:13:48.744Z</time>
      </trkpt>
      <trkpt lat="48.0997" lon="-4.10396">
        <ele>92.78392106639</ele>
        <time>2021-03-07T17:13:51.192Z</time>
      </trkpt>
      <trkpt lat="48.10008" lon="-4.10287">
        <ele>86.83308951864</ele>
        <time>2021-03-07T17:13:53.654Z</time>
      </trkpt>
      <trkpt lat="48.10024" lon="-4.10252">
        <ele>81.40836805505</ele>
        <time>2021-03-07T17:13:56.120Z</time>
      </trkpt>
      <trkpt lat="48.10051" lon="-4.10201">
        <ele>76.29773719297</ele>
        <time>2021-03-07T17:13:58.593Z</time>
      </trkpt>
      <trkpt lat="48.10082" lon="-4.10149">
        <ele>71.49845217452</ele>
        <time>2021-03-07T17:14:01.074Z</time>
      </trkpt>
      <trkpt lat="48.10116" lon="-4.101">
        <ele>66.99330658051</ele>
        <time>2021-03-07T17:14:03.562Z</time>
      </trkpt>
      <trkpt lat="48.10144" lon="-4.10048">
        <ele>63.11891923038</ele>
        <time>2021-03-07T17:14:06.057Z</time>
      </trkpt>
      <trkpt lat="48.10156" lon="-4.1002">
        <ele>59.84269433833</ele>
        <time>2021-03-07T17:14:08.556Z</time>
      </trkpt>
      <trkpt lat="48.10169" lon="-4.09968">
        <ele>56.99484268681</ele>
        <time>2021-03-07T17:14:11.061Z</time>
      </trkpt>
      <trkpt lat="48.10174" lon="-4.09919">
        <ele>54.86634635803</ele>
        <time>2021-03-07T17:14:13.571Z</time>
      </trkpt>
      <trkpt lat="48.10173" lon="-4.09854">
        <ele>53.19412102799</ele>
        <time>2021-03-07T17:14:16.088Z</time>
      </trkpt>
      <trkpt lat="48.1017" lon="-4.09788">
        <ele>51.98561239062</ele>
        <time>2021-03-07T17:14:18.612Z</time>
      </trkpt>
      <trkpt lat="48.10173" lon="-4.09707">
        <ele>51.37560585095</ele>
        <time>2021-03-07T17:14:21.145Z</time>
      </trkpt>
      <trkpt lat="48.10187" lon="-4.09605">
        <ele>51.24337863256</ele>
        <time>2021-03-07T17:14:23.689Z</time>
      </trkpt>
      <trkpt lat="48.10202" lon="-4.09521">
        <ele>51.57745128404</ele>
        <time>2021-03-07T17:14:26.242Z</time>
      </trkpt>
      <trkpt lat="48.10216" lon="-4.09436">
        <ele>52.345589035</ele>
        <time>2021-03-07T17:14:28.805Z</time>
      </trkpt>
      <trkpt lat="48.10241" lon="-4.09336">
        <ele>53.48074869749</ele>
        <time>2021-03-07T17:14:31.379Z</time>
      </trkpt>
      <trkpt lat="48.10265" lon="-4.09237">
        <ele>54.79539206105</ele>
        <time>2021-03-07T17:14:33.965Z</time>
      </trkpt>
      <trkpt lat="48.1029" lon="-4.09137">
        <ele>56.50996340853</ele>
        <time>2021-03-07T17:14:36.562Z</time>
      </trkpt>
      <trkpt lat="48.10306" lon="-4.09037">
        <ele>58.0927703264</ele>
        <time>2021-03-07T17:14:39.170Z</time>
      </trkpt>
      <trkpt lat="48.10322" lon="-4.08936">
        <ele>59.66522353932</ele>
        <time>2021-03-07T17:14:41.789Z</time>
      </trkpt>
      <trkpt lat="48.10334" lon="-4.08826">
        <ele>61.15169752664</ele>
        <time>2021-03-07T17:14:44.420Z</time>
      </trkpt>
      <trkpt lat="48.10347" lon="-4.08716">
        <ele>62.7791274419</ele>
        <time>2021-03-07T17:14:47.063Z</time>
      </trkpt>
      <trkpt lat="48.10359" lon="-4.08605">
        <ele>64.52021634689</ele>
        <time>2021-03-07T17:14:49.718Z</time>
      </trkpt>
      <trkpt lat="48.10371" lon="-4.08495">
        <ele>66.30106318269</ele>
        <time>2021-03-07T17:14:52.385Z</time>
      </trkpt>
      <trkpt lat="48.10378" lon="-4.08391">
        <ele>67.83250382632</ele>
        <time>2021-03-07T17:14:55.063Z</time>
      </trkpt>
      <trkpt lat="48.10384" lon="-4.08286">
        <ele>69.22888730255</ele>
        <time>2021-03-07T17:14:57.753Z</time>
      </trkpt>
      <trkpt lat="48.10394" lon="-4.08167">
        <ele>70.54266576235</ele>
        <time>2021-03-07T17:15:00.455Z</time>
      </trkpt>
      <trkpt lat="48.10405" lon="-4.08049">
        <ele>72.03894679294</ele>
        <time>2021-03-07T17:15:03.170Z</time>
      </trkpt>
      <trkpt lat="48.10415" lon="-4.0793">
        <ele>73.49198753279</ele>
        <time>2021-03-07T17:15:05.898Z</time>
      </trkpt>
      <trkpt lat="48.10421" lon="-4.07858">
        <ele>74.73895521754</ele>
        <time>2021-03-07T17:15:08.634Z</time>
      </trkpt>
      <trkpt lat="48.10426" lon="-4.07786">
        <ele>75.84065808711</ele>
        <time>2021-03-07T17:15:11.378Z</time>
      </trkpt>
      <trkpt lat="48.10426" lon="-4.07735">
        <ele>76.79118438397</ele>
        <time>2021-03-07T17:15:14.127Z</time>
      </trkpt>
      <trkpt lat="48.10426" lon="-4.07627">
        <ele>77.48864612573</ele>
        <time>2021-03-07T17:15:16.888Z</time>
      </trkpt>
      <trkpt lat="48.10474" lon="-4.07687">
        <ele>78.20388984642</ele>
        <time>2021-03-07T17:15:19.659Z</time>
      </trkpt>
      <trkpt lat="48.10521" lon="-4.07747">
        <ele>78.87308447998</ele>
        <time>2021-03-07T17:15:22.440Z</time>
      </trkpt>
      <trkpt lat="48.10555" lon="-4.07777">
        <ele>79.54992797993</ele>
        <time>2021-03-07T17:15:25.227Z</time>
      </trkpt>
      <trkpt lat="48.10585" lon="-4.07789">
        <ele>80.11168157008</ele>
        <time>2021-03-07T17:15:28.019Z</time>
      </trkpt>
      <trkpt lat="48.10609" lon="-4.07793">
        <ele>80.62051031623</ele>
        <time>2021-03-07T17:15:30.815Z</time>
      </trkpt>
      <trkpt lat="48.10636" lon="-4.07789">
        <ele>81.11472926569</ele>
        <time>2021-03-07T17:15:33.615Z</time>
      </trkpt>
      <trkpt lat="48.10679" lon="-4.07758">
        <ele>81.73545528777</ele>
        <time>2021-03-07T17:15:36.423Z</time>
      </trkpt>
      <trkpt lat="48.10721" lon="-4.07723">
        <ele>82.2492723008</ele>
        <time>2021-03-07T17:15:39.239Z</time>
      </trkpt>
      <trkpt lat="48.10763" lon="-4.07688">
        <ele>82.82426182222</ele>
        <time>2021-03-07T17:15:42.062Z</time>
      </trkpt>
      <trkpt lat="48.10784" lon="-4.07668">
        <ele>83.4120945477</ele>
        <time>2021-03-07T17:15:44.889Z</time>
      </trkpt>
      <trkpt lat="48.1081" lon="-4.07639">
        <ele>84.07783654105</ele>
        <time>2021-03-07T17:15:47.721Z</time>
      </trkpt>
      <trkpt lat="48.1083" lon="-4.0761">
        <ele>84.81985733293</ele>
        <time>2021-03-07T17:15:50.558Z</time>
      </trkpt>
      <trkpt lat="48.10843" lon="-4.07587">
        <ele>85.61639180684</ele>
        <time>2021-03-07T17:15:53.398Z</time>
      </trkpt>
      <trkpt lat="48.10886" lon="-4.07493">
        <ele>86.53595499374</ele>
        <time>2021-03-07T17:15:56.250Z</time>
      </trkpt>
      <trkpt lat="48.10913" lon="-4.07421">
        <ele>87.4923411306</ele>
        <time>2021-03-07T17:15:59.111Z</time>
      </trkpt>
      <trkpt lat="48.10913" lon="-4.07422">
        <ele>88.44627032367</ele>
        <time>2021-03-07T17:16:01.972Z</time>
      </trkpt>
      <trkpt lat="48.1094" lon="-4.07355">
        <ele>89.55166522247</ele>
        <time>2021-03-07T17:16:04.842Z</time>
      </trkpt>
      <trkpt lat="48.10981" lon="-4.07289">
        <ele>90.8088161586</ele>
        <time>2021-03-07T17:16:07.721Z</time>
      </trkpt>
      <trkpt lat="48.11012" lon="-4.07256">
        <ele>91.94748916728</ele>
        <time>2021-03-07T17:16:10.606Z</time>
      </trkpt>
      <trkpt lat="48.11029" lon="-4.07244">
        <ele>93.12951790644</ele>
        <time>2021-03-07T17:16:13.494Z</time>
      </trkpt>
      <trkpt lat="48.11059" lon="-4.07226">
        <ele>94.40354725993</ele>
        <time>2021-03-07T17:16:16.388Z</time>
      </trkpt>
      <trkpt lat="48.11099" lon="-4.07207">
        <ele>95.76543664948</ele>
        <time>2021-03-07T17:16:19.288Z</time>
      </trkpt>
      <trkpt lat="48.1113" lon="-4.07188">
        <ele>97.17025606649</ele>
        <time>2021-03-07T17:16:22.194Z</time>
      </trkpt>
      <trkpt lat="48.11169" lon="-4.07155">
        <ele>98.60213896974</ele>
        <time>2021-03-07T17:16:25.107Z</time>
      </trkpt>
      <trkpt lat="48.11233" lon="-4.07092">
        <ele>100.20596858465</ele>
        <time>2021-03-07T17:16:28.032Z</time>
      </trkpt>
      <trkpt lat="48.11297" lon="-4.07029">
        <ele>101.93682970956</ele>
        <time>2021-03-07T17:16:30.969Z</time>
      </trkpt>
      <trkpt lat="48.11323" lon="-4.07012">
        <ele>103.64831517191</ele>
        <time>2021-03-07T17:16:33.911Z</time>
      </trkpt>
      <trkpt lat="48.11341" lon="-4.07005">
        <ele>105.42656258829</ele>
        <time>2021-03-07T17:16:36.856Z</time>
      </trkpt>
      <trkpt lat="48.1136" lon="-4.07001">
        <ele>107.33999765869</ele>
        <time>2021-03-07T17:16:39.804Z</time>
      </trkpt>
      <trkpt lat="48.11405" lon="-4.07008">
        <ele>109.45857889111</ele>
        <time>2021-03-07T17:16:42.759Z</time>
      </trkpt>
      <trkpt lat="48.11421" lon="-4.07015">
        <ele>111.63211136978</ele>
        <time>2021-03-07T17:16:45.717Z</time>
      </trkpt>
      <trkpt lat="48.11424" lon="-4.06982">
        <ele>114.02147744579</ele>
        <time>2021-03-07T17:16:48.678Z</time>
      </trkpt>
      <trkpt lat="48.11431" lon="-4.06944">
        <ele>116.5825079825</ele>
        <time>2021-03-07T17:16:51.644Z</time>
      </trkpt>
      <trkpt lat="48.11457" lon="-4.06839">
        <ele>119.29209549023</ele>
        <time>2021-03-07T17:16:54.622Z</time>
      </trkpt>
      <trkpt lat="48.11483" lon="-4.06734">
        <ele>122.20026589832</ele>
        <time>2021-03-07T17:16:57.612Z</time>
      </trkpt>
      <trkpt lat="48.11513" lon="-4.06616">
        <ele>125.44921834428</ele>
        <time>2021-03-07T17:17:00.615Z</time>
      </trkpt>
      <trkpt lat="48.11542" lon="-4.06498">
        <ele>128.92536030247</ele>
        <time>2021-03-07T17:17:03.632Z</time>
      </trkpt>
      <trkpt lat="48.11556" lon="-4.06402">
        <ele>132.40587464279</ele>
        <time>2021-03-07T17:17:06.659Z</time>
      </trkpt>
      <trkpt lat="48.1157" lon="-4.06287">
        <ele>136.01273731034</ele>
        <time>2021-03-07T17:17:09.699Z</time>
      </trkpt>
      <trkpt lat="48.11583" lon="-4.06172">
        <ele>139.6540236271</ele>
        <time>2021-03-07T17:17:12.751Z</time>
      </trkpt>
      <trkpt lat="48.11596" lon="-4.06053">
        <ele>143.1843093217</ele>
        <time>2021-03-07T17:17:15.816Z</time>
      </trkpt>
      <trkpt lat="48.11609" lon="-4.05933">
        <ele>146.72210281996</ele>
        <time>2021-03-07T17:17:18.894Z</time>
      </trkpt>
      <trkpt lat="48.11622" lon="-4.05814">
        <ele>149.96728652967</ele>
        <time>2021-03-07T17:17:21.985Z</time>
      </trkpt>
      <trkpt lat="48.11635" lon="-4.05694">
        <ele>152.84313614558</ele>
        <time>2021-03-07T17:17:25.089Z</time>
      </trkpt>
      <trkpt lat="48.11648" lon="-4.05575">
        <ele>155.32639298274</ele>
        <time>2021-03-07T17:17:28.206Z</time>
      </trkpt>
      <trkpt lat="48.11658" lon="-4.05443">
        <ele>157.04418902087</ele>
        <time>2021-03-07T17:17:31.337Z</time>
      </trkpt>
      <trkpt lat="48.11654" lon="-4.05336">
        <ele>158.05429902912</ele>
        <time>2021-03-07T17:17:34.480Z</time>
      </trkpt>
      <trkpt lat="48.11649" lon="-4.05234">
        <ele>158.24894625256</ele>
        <time>2021-03-07T17:17:37.634Z</time>
      </trkpt>
      <trkpt lat="48.11643" lon="-4.05133">
        <ele>157.56600354849</ele>
        <time>2021-03-07T17:17:40.799Z</time>
      </trkpt>
      <trkpt lat="48.11655" lon="-4.05023">
        <ele>156.28482018693</ele>
        <time>2021-03-07T17:17:43.976Z</time>
      </trkpt>
      <trkpt lat="48.11666" lon="-4.04912">
        <ele>154.46354708408</ele>
        <time>2021-03-07T17:17:47.165Z</time>
      </trkpt>
      <trkpt lat="48.11682" lon="-4.04784">
        <ele>152.43211569438</ele>
        <time>2021-03-07T17:17:50.368Z</time>
      </trkpt>
      <trkpt lat="48.11697" lon="-4.04655">
        <ele>149.72862164514</ele>
        <time>2021-03-07T17:17:53.585Z</time>
      </trkpt>
      <trkpt lat="48.11711" lon="-4.04542">
        <ele>147.02717676024</ele>
        <time>2021-03-07T17:17:56.814Z</time>
      </trkpt>
      <trkpt lat="48.11725" lon="-4.04429">
        <ele>144.18742792664</ele>
        <time>2021-03-07T17:18:00.055Z</time>
      </trkpt>
      <trkpt lat="48.1174" lon="-4.04315">
        <ele>141.4662664694</ele>
        <time>2021-03-07T17:18:03.309Z</time>
      </trkpt>
      <trkpt lat="48.11754" lon="-4.04202">
        <ele>138.65633089977</ele>
        <time>2021-03-07T17:18:06.575Z</time>
      </trkpt>
      <trkpt lat="48.11768" lon="-4.04089">
        <ele>135.98928713827</ele>
        <time>2021-03-07T17:18:09.853Z</time>
      </trkpt>
      <trkpt lat="48.11782" lon="-4.04024">
        <ele>133.75541271193</ele>
        <time>2021-03-07T17:18:13.139Z</time>
      </trkpt>
      <trkpt lat="48.11796" lon="-4.03958">
        <ele>131.79146361364</ele>
        <time>2021-03-07T17:18:16.432Z</time>
      </trkpt>
      <trkpt lat="48.11809" lon="-4.03913">
        <ele>130.19660949658</ele>
        <time>2021-03-07T17:18:19.730Z</time>
      </trkpt>
      <trkpt lat="48.11844" lon="-4.0381">
        <ele>129.02449799807</ele>
        <time>2021-03-07T17:18:23.041Z</time>
      </trkpt>
      <trkpt lat="48.11878" lon="-4.03707">
        <ele>128.20072366684</ele>
        <time>2021-03-07T17:18:26.364Z</time>
      </trkpt>
      <trkpt lat="48.11885" lon="-4.03683">
        <ele>127.70487994507</ele>
        <time>2021-03-07T17:18:29.690Z</time>
      </trkpt>
      <trkpt lat="48.11897" lon="-4.0362">
        <ele>127.60629235063</ele>
        <time>2021-03-07T17:18:33.023Z</time>
      </trkpt>
      <trkpt lat="48.11901" lon="-4.03573">
        <ele>127.78713865879</ele>
        <time>2021-03-07T17:18:36.361Z</time>
      </trkpt>
      <trkpt lat="48.119" lon="-4.03509">
        <ele>128.26425585752</ele>
        <time>2021-03-07T17:18:39.706Z</time>
      </trkpt>
      <trkpt lat="48.11886" lon="-4.03385">
        <ele>129.25800444546</ele>
        <time>2021-03-07T17:18:43.064Z</time>
      </trkpt>
      <trkpt lat="48.11874" lon="-4.03294">
        <ele>130.49973855105</ele>
        <time>2021-03-07T17:18:46.432Z</time>
      </trkpt>
      <trkpt lat="48.11871" lon="-4.03235">
        <ele>131.80910036737</ele>
        <time>2021-03-07T17:18:49.807Z</time>
      </trkpt>
      <trkpt lat="48.11872" lon="-4.03202">
        <ele>133.19960245179</ele>
        <time>2021-03-07T17:18:53.185Z</time>
      </trkpt>
      <trkpt lat="48.11881" lon="-4.03132">
        <ele>134.69755519687</ele>
        <time>2021-03-07T17:18:56.571Z</time>
      </trkpt>
      <trkpt lat="48.11898" lon="-4.03068">
        <ele>136.22819669672</ele>
        <time>2021-03-07T17:18:59.964Z</time>
      </trkpt>
      <trkpt lat="48.11908" lon="-4.03043">
        <ele>137.66634455548</ele>
        <time>2021-03-07T17:19:03.360Z</time>
      </trkpt>
      <trkpt lat="48.11947" lon="-4.02959">
        <ele>139.03730063422</ele>
        <time>2021-03-07T17:19:06.767Z</time>
      </trkpt>
      <trkpt lat="48.11986" lon="-4.02874">
        <ele>140.44846321755</ele>
        <time>2021-03-07T17:19:10.185Z</time>
      </trkpt>
      <trkpt lat="48.12024" lon="-4.0279">
        <ele>141.77018236058</ele>
        <time>2021-03-07T17:19:13.614Z</time>
      </trkpt>
      <trkpt lat="48.12063" lon="-4.02705">
        <ele>143.0691906902</ele>
        <time>2021-03-07T17:19:17.054Z</time>
      </trkpt>
      <trkpt lat="48.12078" lon="-4.02663">
        <ele>144.25853793934</ele>
        <time>2021-03-07T17:19:20.499Z</time>
      </trkpt>
      <trkpt lat="48.12101" lon="-4.02587">
        <ele>145.317047683</ele>
        <time>2021-03-07T17:19:23.953Z</time>
      </trkpt>
      <trkpt lat="48.12124" lon="-4.0251">
        <ele>146.21475347929</ele>
        <time>2021-03-07T17:19:27.416Z</time>
      </trkpt>
      <trkpt lat="48.12153" lon="-4.02413">
        <ele>146.9963135384</ele>
        <time>2021-03-07T17:19:30.891Z</time>
      </trkpt>
      <trkpt lat="48.12178" lon="-4.02322">
        <ele>147.82131528505</ele>
        <time>2021-03-07T17:19:34.376Z</time>
      </trkpt>
      <trkpt lat="48.12208" lon="-4.02226">
        <ele>148.59956703638</ele>
        <time>2021-03-07T17:19:37.873Z</time>
      </trkpt>
      <trkpt lat="48.12215" lon="-4.02186">
        <ele>149.02463761497</ele>
        <time>2021-03-07T17:19:41.374Z</time>
      </trkpt>
      <trkpt lat="48.12216" lon="-4.02147">
        <ele>149.27327649072</ele>
        <time>2021-03-07T17:19:44.879Z</time>
      </trkpt>
      <trkpt lat="48.12257" lon="-4.02107">
        <ele>149.30733073131</ele>
        <time>2021-03-07T17:19:48.392Z</time>
      </trkpt>
      <trkpt lat="48.12256" lon="-4.02107">
        <ele>149.20392286947</ele>
        <time>2021-03-07T17:19:51.905Z</time>
      </trkpt>
      <trkpt lat="48.12323" lon="-4.02048">
        <ele>148.8795968102</ele>
        <time>2021-03-07T17:19:55.431Z</time>
      </trkpt>
      <trkpt lat="48.12398" lon="-4.02001">
        <ele>148.42189066074</ele>
        <time>2021-03-07T17:19:58.970Z</time>
      </trkpt>
      <trkpt lat="48.12473" lon="-4.01954">
        <ele>147.68898502684</ele>
        <time>2021-03-07T17:20:02.522Z</time>
      </trkpt>
      <trkpt lat="48.12472" lon="-4.01954">
        <ele>146.96284415597</ele>
        <time>2021-03-07T17:20:06.074Z</time>
      </trkpt>
      <trkpt lat="48.12544" lon="-4.01909">
        <ele>145.96684323889</ele>
        <time>2021-03-07T17:20:09.638Z</time>
      </trkpt>
      <trkpt lat="48.12616" lon="-4.01863">
        <ele>144.95587719503</ele>
        <time>2021-03-07T17:20:13.215Z</time>
      </trkpt>
      <trkpt lat="48.12641" lon="-4.01849">
        <ele>143.8807273164</ele>
        <time>2021-03-07T17:20:16.796Z</time>
      </trkpt>
      <trkpt lat="48.12667" lon="-4.01839">
        <ele>142.67760432085</ele>
        <time>2021-03-07T17:20:20.382Z</time>
      </trkpt>
      <trkpt lat="48.12732" lon="-4.01832">
        <ele>141.36825458201</ele>
        <time>2021-03-07T17:20:23.978Z</time>
      </trkpt>
      <trkpt lat="48.1279" lon="-4.01837">
        <ele>140.16661545974</ele>
        <time>2021-03-07T17:20:27.583Z</time>
      </trkpt>
      <trkpt lat="48.12848" lon="-4.01842">
        <ele>138.75282493135</ele>
        <time>2021-03-07T17:20:31.198Z</time>
      </trkpt>
      <trkpt lat="48.12896" lon="-4.01847">
        <ele>137.18367501084</ele>
        <time>2021-03-07T17:20:34.820Z</time>
      </trkpt>
      <trkpt lat="48.12944" lon="-4.01853">
        <ele>135.5355015303</ele>
        <time>2021-03-07T17:20:38.450Z</time>
      </trkpt>
      <trkpt lat="48.13023" lon="-4.01846">
        <ele>133.66642070225</ele>
        <time>2021-03-07T17:20:42.093Z</time>
      </trkpt>
      <trkpt lat="48.13088" lon="-4.01823">
        <ele>131.6954249182</ele>
        <time>2021-03-07T17:20:45.746Z</time>
      </trkpt>
      <trkpt lat="48.13155" lon="-4.01792">
        <ele>129.59667019923</ele>
        <time>2021-03-07T17:20:49.411Z</time>
      </trkpt>
      <trkpt lat="48.13222" lon="-4.01762">
        <ele>127.46544493368</ele>
        <time>2021-03-07T17:20:53.087Z</time>
      </trkpt>
      <trkpt lat="48.13289" lon="-4.01731">
        <ele>125.28085043602</ele>
        <time>2021-03-07T17:20:56.774Z</time>
      </trkpt>
      <trkpt lat="48.13371" lon="-4.01712">
        <ele>123.01234096866</ele>
        <time>2021-03-07T17:21:00.474Z</time>
      </trkpt>
      <trkpt lat="48.13454" lon="-4.01692">
        <ele>120.90697973096</ele>
        <time>2021-03-07T17:21:04.188Z</time>
      </trkpt>
      <trkpt lat="48.13536" lon="-4.01673">
        <ele>119.08022732608</ele>
        <time>2021-03-07T17:21:07.915Z</time>
      </trkpt>
      <trkpt lat="48.13613" lon="-4.01656">
        <ele>117.33367629075</ele>
        <time>2021-03-07T17:21:11.655Z</time>
      </trkpt>
      <trkpt lat="48.1369" lon="-4.01638">
        <ele>115.77264670431</ele>
        <time>2021-03-07T17:21:15.407Z</time>
      </trkpt>
      <trkpt lat="48.13767" lon="-4.01621">
        <ele>114.20297426101</ele>
        <time>2021-03-07T17:21:19.171Z</time>
      </trkpt>
      <trkpt lat="48.13844" lon="-4.01603">
        <ele>113.03377335496</ele>
        <time>2021-03-07T17:21:22.948Z</time>
      </trkpt>
      <trkpt lat="48.13921" lon="-4.01586">
        <ele>112.01531820237</ele>
        <time>2021-03-07T17:21:26.737Z</time>
      </trkpt>
      <trkpt lat="48.13952" lon="-4.01576">
        <ele>111.15032643671</ele>
        <time>2021-03-07T17:21:30.531Z</time>
      </trkpt>
      <trkpt lat="48.14006" lon="-4.01552">
        <ele>110.47144355194</ele>
        <time>2021-03-07T17:21:34.334Z</time>
      </trkpt>
      <trkpt lat="48.14059" lon="-4.01528">
        <ele>109.97226333238</ele>
        <time>2021-03-07T17:21:38.146Z</time>
      </trkpt>
      <trkpt lat="48.1408" lon="-4.0152">
        <ele>109.61284645477</ele>
        <time>2021-03-07T17:21:41.962Z</time>
      </trkpt>
      <trkpt lat="48.14161" lon="-4.01485">
        <ele>109.40417048729</ele>
        <time>2021-03-07T17:21:45.791Z</time>
      </trkpt>
      <trkpt lat="48.14241" lon="-4.01449">
        <ele>109.33244848413</ele>
        <time>2021-03-07T17:21:49.634Z</time>
      </trkpt>
      <trkpt lat="48.14322" lon="-4.01414">
        <ele>109.34033224004</ele>
        <time>2021-03-07T17:21:53.490Z</time>
      </trkpt>
      <trkpt lat="48.14382" lon="-4.0139">
        <ele>109.35904853242</ele>
        <time>2021-03-07T17:21:57.356Z</time>
      </trkpt>
      <trkpt lat="48.14443" lon="-4.01366">
        <ele>109.4557428096</ele>
        <time>2021-03-07T17:22:01.232Z</time>
      </trkpt>
      <trkpt lat="48.14503" lon="-4.01342">
        <ele>109.67746358627</ele>
        <time>2021-03-07T17:22:05.118Z</time>
      </trkpt>
      <trkpt lat="48.14581" lon="-4.01295">
        <ele>109.96951543854</ele>
        <time>2021-03-07T17:22:09.018Z</time>
      </trkpt>
      <trkpt lat="48.14639" lon="-4.01232">
        <ele>110.16470469866</ele>
        <time>2021-03-07T17:22:12.929Z</time>
      </trkpt>
      <trkpt lat="48.14672" lon="-4.0118">
        <ele>110.37385266582</ele>
        <time>2021-03-07T17:22:16.848Z</time>
      </trkpt>
      <trkpt lat="48.14706" lon="-4.01107">
        <ele>110.74547873295</ele>
        <time>2021-03-07T17:22:20.776Z</time>
      </trkpt>
      <trkpt lat="48.14722" lon="-4.01084">
        <ele>111.06169847798</ele>
        <time>2021-03-07T17:22:24.708Z</time>
      </trkpt>
      <trkpt lat="48.14735" lon="-4.0107">
        <ele>111.36953142799</ele>
        <time>2021-03-07T17:22:28.642Z</time>
      </trkpt>
      <trkpt lat="48.14759" lon="-4.01063">
        <ele>111.65474117626</ele>
        <time>2021-03-07T17:22:32.580Z</time>
      </trkpt>
      <trkpt lat="48.14789" lon="-4.0107">
        <ele>111.89331456158</ele>
        <time>2021-03-07T17:22:36.523Z</time>
      </trkpt>
      <trkpt lat="48.14817" lon="-4.01084">
        <ele>112.19331697116</ele>
        <time>2021-03-07T17:22:40.471Z</time>
      </trkpt>
      <trkpt lat="48.14876" lon="-4.01121">
        <ele>112.53182132624</ele>
        <time>2021-03-07T17:22:44.429Z</time>
      </trkpt>
      <trkpt lat="48.14935" lon="-4.01159">
        <ele>112.74718548084</ele>
        <time>2021-03-07T17:22:48.398Z</time>
      </trkpt>
      <trkpt lat="48.15012" lon="-4.0121">
        <ele>112.9167261261</ele>
        <time>2021-03-07T17:22:52.380Z</time>
      </trkpt>
      <trkpt lat="48.15056" lon="-4.01255">
        <ele>113.04866037288</ele>
        <time>2021-03-07T17:22:56.371Z</time>
      </trkpt>
      <trkpt lat="48.151" lon="-4.01301">
        <ele>113.27034903085</ele>
        <time>2021-03-07T17:23:00.370Z</time>
      </trkpt>
      <trkpt lat="48.15171" lon="-4.01368">
        <ele>113.6347725014</ele>
        <time>2021-03-07T17:23:04.383Z</time>
      </trkpt>
      <trkpt lat="48.15206" lon="-4.01396">
        <ele>113.70723700499</ele>
        <time>2021-03-07T17:23:08.402Z</time>
      </trkpt>
      <trkpt lat="48.15245" lon="-4.01417">
        <ele>113.43751603394</ele>
        <time>2021-03-07T17:23:12.428Z</time>
      </trkpt>
      <trkpt lat="48.15276" lon="-4.01429">
        <ele>113.06994714709</ele>
        <time>2021-03-07T17:23:16.459Z</time>
      </trkpt>
      <trkpt lat="48.15313" lon="-4.01437">
        <ele>112.71395960203</ele>
        <time>2021-03-07T17:23:20.496Z</time>
      </trkpt>
      <trkpt lat="48.15368" lon="-4.01436">
        <ele>112.3344426718</ele>
        <time>2021-03-07T17:23:24.541Z</time>
      </trkpt>
      <trkpt lat="48.15402" lon="-4.01431">
        <ele>111.80921706032</ele>
        <time>2021-03-07T17:23:28.592Z</time>
      </trkpt>
      <trkpt lat="48.15437" lon="-4.01419">
        <ele>111.2599842755</ele>
        <time>2021-03-07T17:23:32.649Z</time>
      </trkpt>
      <trkpt lat="48.15492" lon="-4.01393">
        <ele>110.75029810414</ele>
        <time>2021-03-07T17:23:36.715Z</time>
      </trkpt>
      <trkpt lat="48.15527" lon="-4.01384">
        <ele>110.36913765688</ele>
        <time>2021-03-07T17:23:40.787Z</time>
      </trkpt>
      <trkpt lat="48.15555" lon="-4.01386">
        <ele>109.8430922297</ele>
        <time>2021-03-07T17:23:44.863Z</time>
      </trkpt>
      <trkpt lat="48.15567" lon="-4.0139">
        <ele>109.26947084235</ele>
        <time>2021-03-07T17:23:48.941Z</time>
      </trkpt>
      <trkpt lat="48.15581" lon="-4.01393">
        <ele>108.72395272849</ele>
        <time>2021-03-07T17:23:53.021Z</time>
      </trkpt>
      <trkpt lat="48.15598" lon="-4.01403">
        <ele>108.15700708934</ele>
        <time>2021-03-07T17:23:57.104Z</time>
      </trkpt>
      <trkpt lat="48.15647" lon="-4.01438">
        <ele>107.55884598287</ele>
        <time>2021-03-07T17:24:01.196Z</time>
      </trkpt>
      <trkpt lat="48.15696" lon="-4.01473">
        <ele>106.86696476904</ele>
        <time>2021-03-07T17:24:05.297Z</time>
      </trkpt>
      <trkpt lat="48.15714" lon="-4.01478">
        <ele>106.33313031605</ele>
        <time>2021-03-07T17:24:09.401Z</time>
      </trkpt>
      <trkpt lat="48.15744" lon="-4.0148">
        <ele>105.78498714957</ele>
        <time>2021-03-07T17:24:13.509Z</time>
      </trkpt>
      <trkpt lat="48.15774" lon="-4.01475">
        <ele>105.40874366551</ele>
        <time>2021-03-07T17:24:17.622Z</time>
      </trkpt>
      <trkpt lat="48.15799" lon="-4.01466">
        <ele>105.27260008707</ele>
        <time>2021-03-07T17:24:21.739Z</time>
      </trkpt>
      <trkpt lat="48.15831" lon="-4.01447">
        <ele>105.37394609641</ele>
        <time>2021-03-07T17:24:25.862Z</time>
      </trkpt>
      <trkpt lat="48.1587" lon="-4.01421">
        <ele>105.48636485814</ele>
        <time>2021-03-07T17:24:29.992Z</time>
      </trkpt>
      <trkpt lat="48.15893" lon="-4.01415">
        <ele>105.4205795456</ele>
        <time>2021-03-07T17:24:34.125Z</time>
      </trkpt>
      <trkpt lat="48.15921" lon="-4.01417">
        <ele>105.31997705066</ele>
        <time>2021-03-07T17:24:38.263Z</time>
      </trkpt>
      <trkpt lat="48.15947" lon="-4.01429">
        <ele>105.17912909865</ele>
        <time>2021-03-07T17:24:42.405Z</time>
      </trkpt>
      <trkpt lat="48.15966" lon="-4.01443">
        <ele>105.02121617347</ele>
        <time>2021-03-07T17:24:46.551Z</time>
      </trkpt>
      <trkpt lat="48.16003" lon="-4.01482">
        <ele>104.80351399626</ele>
        <time>2021-03-07T17:24:50.704Z</time>
      </trkpt>
      <trkpt lat="48.16029" lon="-4.01501">
        <ele>104.68864562552</ele>
        <time>2021-03-07T17:24:54.862Z</time>
      </trkpt>
      <trkpt lat="48.16053" lon="-4.01511">
        <ele>104.54693610111</ele>
        <time>2021-03-07T17:24:59.024Z</time>
      </trkpt>
      <trkpt lat="48.16078" lon="-4.01513">
        <ele>104.17971990328</ele>
        <time>2021-03-07T17:25:03.190Z</time>
      </trkpt>
      <trkpt lat="48.16103" lon="-4.01504">
        <ele>103.76225913485</ele>
        <time>2021-03-07T17:25:07.360Z</time>
      </trkpt>
      <trkpt lat="48.16123" lon="-4.01494">
        <ele>103.35774554249</ele>
        <time>2021-03-07T17:25:11.533Z</time>
      </trkpt>
      <trkpt lat="48.16155" lon="-4.01457">
        <ele>102.95042233965</ele>
        <time>2021-03-07T17:25:15.713Z</time>
      </trkpt>
      <trkpt lat="48.16188" lon="-4.01398">
        <ele>102.54434914057</ele>
        <time>2021-03-07T17:25:19.901Z</time>
      </trkpt>
      <trkpt lat="48.16222" lon="-4.01307">
        <ele>102.37458473729</ele>
        <time>2021-03-07T17:25:24.100Z</time>
      </trkpt>
      <trkpt lat="48.16256" lon="-4.01215">
        <ele>101.9895703919</ele>
        <time>2021-03-07T17:25:28.310Z</time>
      </trkpt>
      <trkpt lat="48.1629" lon="-4.01124">
        <ele>101.60556467218</ele>
        <time>2021-03-07T17:25:32.531Z</time>
      </trkpt>
      <trkpt lat="48.16305" lon="-4.011">
        <ele>101.21614267328</ele>
        <time>2021-03-07T17:25:36.756Z</time>
      </trkpt>
      <trkpt lat="48.16321" lon="-4.01089">
        <ele>100.81804533006</ele>
        <time>2021-03-07T17:25:40.984Z</time>
      </trkpt>
      <trkpt lat="48.16338" lon="-4.01086">
        <ele>100.41379002929</ele>
        <time>2021-03-07T17:25:45.214Z</time>
      </trkpt>
      <trkpt lat="48.16356" lon="-4.01088">
        <ele>99.98696035005</ele>
        <time>2021-03-07T17:25:49.447Z</time>
      </trkpt>
      <trkpt lat="48.16367" lon="-4.01095">
        <ele>99.50811712398</ele>
        <time>2021-03-07T17:25:53.682Z</time>
      </trkpt>
      <trkpt lat="48.16395" lon="-4.01124">
        <ele>98.98416110626</ele>
        <time>2021-03-07T17:25:57.923Z</time>
      </trkpt>
      <trkpt lat="48.1643" lon="-4.01167">
        <ele>98.41730832855</ele>
        <time>2021-03-07T17:26:02.171Z</time>
      </trkpt>
      <trkpt lat="48.16465" lon="-4.0121">
        <ele>97.7087237866</ele>
        <time>2021-03-07T17:26:06.426Z</time>
      </trkpt>
      <trkpt lat="48.16492" lon="-4.01238">
        <ele>96.7599829104</ele>
        <time>2021-03-07T17:26:10.686Z</time>
      </trkpt>
      <trkpt lat="48.16525" lon="-4.0126">
        <ele>95.89358630229</ele>
        <time>2021-03-07T17:26:14.952Z</time>
      </trkpt>
      <trkpt lat="48.16582" lon="-4.01285">
        <ele>94.89111900602</ele>
        <time>2021-03-07T17:26:19.228Z</time>
      </trkpt>
      <trkpt lat="48.16614" lon="-4.01288">
        <ele>93.888529166</ele>
        <time>2021-03-07T17:26:23.509Z</time>
      </trkpt>
      <trkpt lat="48.16646" lon="-4.01281">
        <ele>92.922463786</ele>
        <time>2021-03-07T17:26:27.795Z</time>
      </trkpt>
      <trkpt lat="48.16692" lon="-4.01255">
        <ele>91.87106438407</ele>
        <time>2021-03-07T17:26:32.089Z</time>
      </trkpt>
      <trkpt lat="48.16735" lon="-4.01213">
        <ele>90.88713702591</ele>
        <time>2021-03-07T17:26:36.391Z</time>
      </trkpt>
      <trkpt lat="48.1677" lon="-4.01154">
        <ele>89.99337671706</ele>
        <time>2021-03-07T17:26:40.702Z</time>
      </trkpt>
      <trkpt lat="48.16793" lon="-4.01095">
        <ele>88.79782513662</ele>
        <time>2021-03-07T17:26:45.020Z</time>
      </trkpt>
      <trkpt lat="48.16803" lon="-4.01051">
        <ele>87.93223050558</ele>
        <time>2021-03-07T17:26:49.343Z</time>
      </trkpt>
      <trkpt lat="48.16815" lon="-4.00964">
        <ele>87.06920945686</ele>
        <time>2021-03-07T17:26:53.675Z</time>
      </trkpt>
      <trkpt lat="48.16827" lon="-4.00877">
        <ele>86.150512997</ele>
        <time>2021-03-07T17:26:58.017Z</time>
      </trkpt>
      <trkpt lat="48.16834" lon="-4.00795">
        <ele>85.53685810818</ele>
        <time>2021-03-07T17:27:02.368Z</time>
      </trkpt>
      <trkpt lat="48.16826" lon="-4.0072">
        <ele>84.8624597053</ele>
        <time>2021-03-07T17:27:06.727Z</time>
      </trkpt>
      <trkpt lat="48.16811" lon="-4.00645">
        <ele>84.28112803921</ele>
        <time>2021-03-07T17:27:11.094Z</time>
      </trkpt>
      <trkpt lat="48.16785" lon="-4.00579">
        <ele>83.77578748478</ele>
        <time>2021-03-07T17:27:15.469Z</time>
      </trkpt>
      <trkpt lat="48.16759" lon="-4.00514">
        <ele>83.34036020779</ele>
        <time>2021-03-07T17:27:19.853Z</time>
      </trkpt>
      <trkpt lat="48.16744" lon="-4.00465">
        <ele>83.0277327307</ele>
        <time>2021-03-07T17:27:24.242Z</time>
      </trkpt>
      <trkpt lat="48.16745" lon="-4.00445">
        <ele>82.83956189016</ele>
        <time>2021-03-07T17:27:28.634Z</time>
      </trkpt>
      <trkpt lat="48.16754" lon="-4.00396">
        <ele>82.77703032358</ele>
        <time>2021-03-07T17:27:33.031Z</time>
      </trkpt>
      <trkpt lat="48.16774" lon="-4.00359">
        <ele>82.77962162479</ele>
        <time>2021-03-07T17:27:37.433Z</time>
      </trkpt>
      <trkpt lat="48.16804" lon="-4.00334">
        <ele>82.86261463806</ele>
        <time>2021-03-07T17:27:41.841Z</time>
      </trkpt>
      <trkpt lat="48.16817" lon="-4.00328">
        <ele>82.93942701415</ele>
        <time>2021-03-07T17:27:46.251Z</time>
      </trkpt>
      <trkpt lat="48.16864" lon="-4.00335">
        <ele>82.9332578512</ele>
        <time>2021-03-07T17:27:50.668Z</time>
      </trkpt>
      <trkpt lat="48.16884" lon="-4.00333">
        <ele>83.04620740565</ele>
        <time>2021-03-07T17:27:55.089Z</time>
      </trkpt>
      <trkpt lat="48.16907" lon="-4.00328">
        <ele>83.20718092867</ele>
        <time>2021-03-07T17:27:59.513Z</time>
      </trkpt>
      <trkpt lat="48.16928" lon="-4.00307">
        <ele>83.32739453178</ele>
        <time>2021-03-07T17:28:03.941Z</time>
      </trkpt>
      <trkpt lat="48.16981" lon="-4.0024">
        <ele>83.36009546381</ele>
        <time>2021-03-07T17:28:08.380Z</time>
      </trkpt>
      <trkpt lat="48.17034" lon="-4.00176">
        <ele>83.35302657312</ele>
        <time>2021-03-07T17:28:12.830Z</time>
      </trkpt>
      <trkpt lat="48.17087" lon="-4.00111">
        <ele>83.34352798645</ele>
        <time>2021-03-07T17:28:17.291Z</time>
      </trkpt>
      <trkpt lat="48.1714" lon="-4.00047">
        <ele>83.36297942444</ele>
        <time>2021-03-07T17:28:21.763Z</time>
      </trkpt>
      <trkpt lat="48.17173" lon="-4.00014">
        <ele>83.29793149919</ele>
        <time>2021-03-07T17:28:26.242Z</time>
      </trkpt>
      <trkpt lat="48.17202" lon="-4.00007">
        <ele>83.26528680023</ele>
        <time>2021-03-07T17:28:30.725Z</time>
      </trkpt>
      <trkpt lat="48.17228" lon="-4.00004">
        <ele>83.2518650518</ele>
        <time>2021-03-07T17:28:35.212Z</time>
      </trkpt>
      <trkpt lat="48.17277" lon="-4.00002">
        <ele>83.23708368092</ele>
        <time>2021-03-07T17:28:39.707Z</time>
      </trkpt>
      <trkpt lat="48.17326" lon="-4">
        <ele>83.03481838622</ele>
        <time>2021-03-07T17:28:44.210Z</time>
      </trkpt>
      <trkpt lat="48.17345" lon="-3.99997">
        <ele>82.87841897131</ele>
        <time>2021-03-07T17:28:48.716Z</time>
      </trkpt>
      <trkpt lat="48.17383" lon="-3.99982">
        <ele>82.64524285333</ele>
        <time>2021-03-07T17:28:53.229Z</time>
      </trkpt>
      <trkpt lat="48.17419" lon="-3.99953">
        <ele>82.44730892062</ele>
        <time>2021-03-07T17:28:57.748Z</time>
      </trkpt>
      <trkpt lat="48.17435" lon="-3.99934">
        <ele>82.17685022977</ele>
        <time>2021-03-07T17:29:02.270Z</time>
      </trkpt>
      <trkpt lat="48.17447" lon="-3.99917">
        <ele>81.83096684677</ele>
        <time>2021-03-07T17:29:06.795Z</time>
      </trkpt>
      <trkpt lat="48.17464" lon="-3.99889">
        <ele>81.42945626334</ele>
        <time>2021-03-07T17:29:11.324Z</time>
      </trkpt>
      <trkpt lat="48.17482" lon="-3.99846">
        <ele>80.95787454235</ele>
        <time>2021-03-07T17:29:15.858Z</time>
      </trkpt>
      <trkpt lat="48.17504" lon="-3.99759">
        <ele>80.42147947628</ele>
        <time>2021-03-07T17:29:20.402Z</time>
      </trkpt>
      <trkpt lat="48.17526" lon="-3.99672">
        <ele>79.70516037287</ele>
        <time>2021-03-07T17:29:24.956Z</time>
      </trkpt>
      <trkpt lat="48.17538" lon="-3.99634">
        <ele>78.961030568</ele>
        <time>2021-03-07T17:29:29.515Z</time>
      </trkpt>
      <trkpt lat="48.17574" lon="-3.99533">
        <ele>78.07446904087</ele>
        <time>2021-03-07T17:29:34.086Z</time>
      </trkpt>
      <trkpt lat="48.17574" lon="-3.99534">
        <ele>77.21240072748</ele>
        <time>2021-03-07T17:29:38.657Z</time>
      </trkpt>
      <trkpt lat="48.17612" lon="-3.99432">
        <ele>76.19118084662</ele>
        <time>2021-03-07T17:29:43.241Z</time>
      </trkpt>
      <trkpt lat="48.17623" lon="-3.99392">
        <ele>75.23515875273</ele>
        <time>2021-03-07T17:29:47.829Z</time>
      </trkpt>
      <trkpt lat="48.17638" lon="-3.99271">
        <ele>74.00406387892</ele>
        <time>2021-03-07T17:29:52.431Z</time>
      </trkpt>
      <trkpt lat="48.17653" lon="-3.9915">
        <ele>72.78355244571</ele>
        <time>2021-03-07T17:29:57.046Z</time>
      </trkpt>
      <trkpt lat="48.17667" lon="-3.9903">
        <ele>71.57162192067</ele>
        <time>2021-03-07T17:30:01.674Z</time>
      </trkpt>
      <trkpt lat="48.17682" lon="-3.98909">
        <ele>70.33697718835</ele>
        <time>2021-03-07T17:30:06.315Z</time>
      </trkpt>
      <trkpt lat="48.17697" lon="-3.98788">
        <ele>68.77269786069</ele>
        <time>2021-03-07T17:30:10.969Z</time>
      </trkpt>
      <trkpt lat="48.1771" lon="-3.98747">
        <ele>67.26808488658</ele>
        <time>2021-03-07T17:30:15.628Z</time>
      </trkpt>
      <trkpt lat="48.17728" lon="-3.98714">
        <ele>65.72818745492</ele>
        <time>2021-03-07T17:30:20.292Z</time>
      </trkpt>
      <trkpt lat="48.17759" lon="-3.9868">
        <ele>64.13465821477</ele>
        <time>2021-03-07T17:30:24.962Z</time>
      </trkpt>
      <trkpt lat="48.17799" lon="-3.98662">
        <ele>62.38978657965</ele>
        <time>2021-03-07T17:30:29.638Z</time>
      </trkpt>
      <trkpt lat="48.17843" lon="-3.98667">
        <ele>60.77499329393</ele>
        <time>2021-03-07T17:30:34.321Z</time>
      </trkpt>
      <trkpt lat="48.17902" lon="-3.9868">
        <ele>59.12483362481</ele>
        <time>2021-03-07T17:30:39.014Z</time>
      </trkpt>
      <trkpt lat="48.17962" lon="-3.98692">
        <ele>57.2504107719</ele>
        <time>2021-03-07T17:30:43.717Z</time>
      </trkpt>
      <trkpt lat="48.18021" lon="-3.98705">
        <ele>55.04138074947</ele>
        <time>2021-03-07T17:30:48.429Z</time>
      </trkpt>
      <trkpt lat="48.18076" lon="-3.98713">
        <ele>52.97989223681</ele>
        <time>2021-03-07T17:30:53.150Z</time>
      </trkpt>
      <trkpt lat="48.18111" lon="-3.98706">
        <ele>51.03324036516</ele>
        <time>2021-03-07T17:30:57.877Z</time>
      </trkpt>
      <trkpt lat="48.18159" lon="-3.98687">
        <ele>49.2142445187</ele>
        <time>2021-03-07T17:31:02.612Z</time>
      </trkpt>
      <trkpt lat="48.18207" lon="-3.98667">
        <ele>47.28860668344</ele>
        <time>2021-03-07T17:31:07.355Z</time>
      </trkpt>
      <trkpt lat="48.18282" lon="-3.98648">
        <ele>45.28043046881</ele>
        <time>2021-03-07T17:31:12.110Z</time>
      </trkpt>
      <trkpt lat="48.18337" lon="-3.98654">
        <ele>43.37492339493</ele>
        <time>2021-03-07T17:31:16.874Z</time>
      </trkpt>
      <trkpt lat="48.18391" lon="-3.98669">
        <ele>41.50183229956</ele>
        <time>2021-03-07T17:31:21.647Z</time>
      </trkpt>
      <trkpt lat="48.18444" lon="-3.98694">
        <ele>39.78603616043</ele>
        <time>2021-03-07T17:31:26.428Z</time>
      </trkpt>
      <trkpt lat="48.18498" lon="-3.98694">
        <ele>38.13852223693</ele>
        <time>2021-03-07T17:31:31.218Z</time>
      </trkpt>
      <trkpt lat="48.18567" lon="-3.98678">
        <ele>36.54687666869</ele>
        <time>2021-03-07T17:31:36.019Z</time>
      </trkpt>
      <trkpt lat="48.18616" lon="-3.98676">
        <ele>35.110839791</ele>
        <time>2021-03-07T17:31:40.828Z</time>
      </trkpt>
      <trkpt lat="48.18666" lon="-3.98673">
        <ele>33.75019616173</ele>
        <time>2021-03-07T17:31:45.645Z</time>
      </trkpt>
      <trkpt lat="48.18713" lon="-3.98673">
        <ele>32.70393024333</ele>
        <time>2021-03-07T17:31:50.470Z</time>
      </trkpt>
      <trkpt lat="48.1876" lon="-3.98672">
        <ele>31.64119836006</ele>
        <time>2021-03-07T17:31:55.302Z</time>
      </trkpt>
      <trkpt lat="48.18815" lon="-3.98666">
        <ele>30.43359911983</ele>
        <time>2021-03-07T17:32:00.143Z</time>
      </trkpt>
      <trkpt lat="48.18866" lon="-3.98672">
        <ele>29.39270650549</ele>
        <time>2021-03-07T17:32:04.992Z</time>
      </trkpt>
      <trkpt lat="48.18899" lon="-3.98666">
        <ele>28.47788943607</ele>
        <time>2021-03-07T17:32:09.846Z</time>
      </trkpt>
      <trkpt lat="48.18935" lon="-3.98654">
        <ele>27.66707163082</ele>
        <time>2021-03-07T17:32:14.706Z</time>
      </trkpt>
      <trkpt lat="48.18987" lon="-3.9864">
        <ele>26.98817767898</ele>
        <time>2021-03-07T17:32:19.575Z</time>
      </trkpt>
      <trkpt lat="48.19039" lon="-3.98626">
        <ele>26.3333254005</ele>
        <time>2021-03-07T17:32:24.452Z</time>
      </trkpt>
      <trkpt lat="48.19091" lon="-3.98614">
        <ele>25.85085336817</ele>
        <time>2021-03-07T17:32:29.338Z</time>
      </trkpt>
      <trkpt lat="48.19092" lon="-3.98613">
        <ele>25.50722614922</ele>
        <time>2021-03-07T17:32:34.224Z</time>
      </trkpt>
      <trkpt lat="48.19144" lon="-3.98601">
        <ele>25.3330455411</ele>
        <time>2021-03-07T17:32:39.118Z</time>
      </trkpt>
      <trkpt lat="48.1916" lon="-3.98592">
        <ele>25.22032196265</ele>
        <time>2021-03-07T17:32:44.015Z</time>
      </trkpt>
      <trkpt lat="48.19177" lon="-3.98578">
        <ele>25.24118863289</ele>
        <time>2021-03-07T17:32:48.915Z</time>
      </trkpt>
      <trkpt lat="48.19192" lon="-3.98546">
        <ele>25.30537607941</ele>
        <time>2021-03-07T17:32:53.819Z</time>
      </trkpt>
      <trkpt lat="48.19214" lon="-3.98475">
        <ele>25.34004103375</ele>
        <time>2021-03-07T17:32:58.732Z</time>
      </trkpt>
      <trkpt lat="48.19214" lon="-3.98476">
        <ele>25.47086665298</ele>
        <time>2021-03-07T17:33:03.645Z</time>
      </trkpt>
      <trkpt lat="48.19244" lon="-3.98382">
        <ele>25.46555654195</ele>
        <time>2021-03-07T17:33:08.569Z</time>
      </trkpt>
      <trkpt lat="48.19255" lon="-3.98356">
        <ele>25.77153205121</ele>
        <time>2021-03-07T17:33:13.496Z</time>
      </trkpt>
      <trkpt lat="48.19267" lon="-3.9834">
        <ele>26.20253679525</ele>
        <time>2021-03-07T17:33:18.426Z</time>
      </trkpt>
      <trkpt lat="48.19308" lon="-3.98301">
        <ele>26.74827557278</ele>
        <time>2021-03-07T17:33:23.364Z</time>
      </trkpt>
      <trkpt lat="48.19366" lon="-3.98252">
        <ele>27.31598545364</ele>
        <time>2021-03-07T17:33:28.312Z</time>
      </trkpt>
      <trkpt lat="48.19428" lon="-3.98195">
        <ele>28.08246528828</ele>
        <time>2021-03-07T17:33:33.272Z</time>
      </trkpt>
      <trkpt lat="48.1949" lon="-3.98137">
        <ele>28.95057410936</ele>
        <time>2021-03-07T17:33:38.244Z</time>
      </trkpt>
      <trkpt lat="48.19549" lon="-3.98086">
        <ele>30.01544044437</ele>
        <time>2021-03-07T17:33:43.227Z</time>
      </trkpt>
      <trkpt lat="48.19608" lon="-3.98034">
        <ele>31.04372768406</ele>
        <time>2021-03-07T17:33:48.221Z</time>
      </trkpt>
      <trkpt lat="48.19655" lon="-3.97989">
        <ele>32.29459038568</ele>
        <time>2021-03-07T17:33:53.224Z</time>
      </trkpt>
      <trkpt lat="48.19702" lon="-3.97943">
        <ele>33.87666166035</ele>
        <time>2021-03-07T17:33:58.235Z</time>
      </trkpt>
      <trkpt lat="48.19744" lon="-3.97908">
        <ele>35.45554563003</ele>
        <time>2021-03-07T17:34:03.254Z</time>
      </trkpt>
      <trkpt lat="48.19776" lon="-3.97887">
        <ele>37.02994741469</ele>
        <time>2021-03-07T17:34:08.279Z</time>
      </trkpt>
      <trkpt lat="48.19825" lon="-3.97874">
        <ele>38.77097888319</ele>
        <time>2021-03-07T17:34:13.312Z</time>
      </trkpt>
      <trkpt lat="48.19899" lon="-3.97887">
        <ele>40.44935763098</ele>
        <time>2021-03-07T17:34:18.357Z</time>
      </trkpt>
      <trkpt lat="48.19949" lon="-3.97896">
        <ele>42.05352096196</ele>
        <time>2021-03-07T17:34:23.410Z</time>
      </trkpt>
      <trkpt lat="48.19999" lon="-3.97906">
        <ele>43.86768568954</ele>
        <time>2021-03-07T17:34:28.471Z</time>
      </trkpt>
      <trkpt lat="48.20075" lon="-3.97929">
        <ele>45.62599640918</ele>
        <time>2021-03-07T17:34:33.544Z</time>
      </trkpt>
      <trkpt lat="48.20151" lon="-3.97953">
        <ele>47.3599107581</ele>
        <time>2021-03-07T17:34:38.630Z</time>
      </trkpt>
      <trkpt lat="48.20192" lon="-3.97973">
        <ele>48.93481358783</ele>
        <time>2021-03-07T17:34:43.723Z</time>
      </trkpt>
      <trkpt lat="48.20208" lon="-3.97982">
        <ele>50.40992811086</ele>
        <time>2021-03-07T17:34:48.818Z</time>
      </trkpt>
      <trkpt lat="48.20243" lon="-3.98016">
        <ele>51.80824095544</ele>
        <time>2021-03-07T17:34:53.920Z</time>
      </trkpt>
      <trkpt lat="48.2026" lon="-3.98041">
        <ele>53.05850281372</ele>
        <time>2021-03-07T17:34:59.026Z</time>
      </trkpt>
      <trkpt lat="48.20293" lon="-3.98097">
        <ele>54.23729915219</ele>
        <time>2021-03-07T17:35:04.140Z</time>
      </trkpt>
      <trkpt lat="48.20318" lon="-3.98137">
        <ele>55.34587673875</ele>
        <time>2021-03-07T17:35:09.260Z</time>
      </trkpt>
      <trkpt lat="48.20352" lon="-3.98172">
        <ele>56.34670840375</ele>
        <time>2021-03-07T17:35:14.386Z</time>
      </trkpt>
      <trkpt lat="48.20364" lon="-3.98183">
        <ele>57.33993385672</ele>
        <time>2021-03-07T17:35:19.515Z</time>
      </trkpt>
      <trkpt lat="48.20383" lon="-3.98192">
        <ele>58.2818408918</ele>
        <time>2021-03-07T17:35:24.647Z</time>
      </trkpt>
      <trkpt lat="48.2043" lon="-3.98212">
        <ele>59.2795979263</ele>
        <time>2021-03-07T17:35:29.787Z</time>
      </trkpt>
      <trkpt lat="48.20477" lon="-3.98233">
        <ele>60.18360593751</ele>
        <time>2021-03-07T17:35:34.934Z</time>
      </trkpt>
      <trkpt lat="48.20553" lon="-3.9826">
        <ele>60.99934612831</ele>
        <time>2021-03-07T17:35:40.094Z</time>
      </trkpt>
      <trkpt lat="48.20601" lon="-3.98273">
        <ele>61.76436867273</ele>
        <time>2021-03-07T17:35:45.262Z</time>
      </trkpt>
      <trkpt lat="48.20628" lon="-3.98274">
        <ele>62.6463178052</ele>
        <time>2021-03-07T17:35:50.434Z</time>
      </trkpt>
      <trkpt lat="48.20663" lon="-3.98267">
        <ele>63.64301820651</ele>
        <time>2021-03-07T17:35:55.612Z</time>
      </trkpt>
      <trkpt lat="48.20685" lon="-3.98261">
        <ele>64.5908712785</ele>
        <time>2021-03-07T17:36:00.793Z</time>
      </trkpt>
      <trkpt lat="48.20713" lon="-3.98252">
        <ele>65.62396737448</ele>
        <time>2021-03-07T17:36:05.979Z</time>
      </trkpt>
      <trkpt lat="48.20746" lon="-3.98226">
        <ele>66.7301345505</ele>
        <time>2021-03-07T17:36:11.171Z</time>
      </trkpt>
      <trkpt lat="48.20767" lon="-3.98202">
        <ele>67.86541863831</ele>
        <time>2021-03-07T17:36:16.367Z</time>
      </trkpt>
      <trkpt lat="48.20809" lon="-3.98142">
        <ele>69.11151236535</ele>
        <time>2021-03-07T17:36:21.572Z</time>
      </trkpt>
      <trkpt lat="48.20851" lon="-3.98081">
        <ele>70.36429268064</ele>
        <time>2021-03-07T17:36:26.787Z</time>
      </trkpt>
      <trkpt lat="48.20851" lon="-3.98082">
        <ele>71.58186728265</ele>
        <time>2021-03-07T17:36:32.002Z</time>
      </trkpt>
      <trkpt lat="48.20877" lon="-3.98045">
        <ele>72.80479852299</ele>
        <time>2021-03-07T17:36:37.223Z</time>
      </trkpt>
      <trkpt lat="48.20897" lon="-3.98023">
        <ele>74.10148661675</ele>
        <time>2021-03-07T17:36:42.448Z</time>
      </trkpt>
      <trkpt lat="48.20931" lon="-3.97988">
        <ele>75.51497145402</ele>
        <time>2021-03-07T17:36:47.679Z</time>
      </trkpt>
      <trkpt lat="48.20989" lon="-3.97941">
        <ele>76.99892608846</ele>
        <time>2021-03-07T17:36:52.921Z</time>
      </trkpt>
      <trkpt lat="48.21008" lon="-3.97928">
        <ele>78.40035287776</ele>
        <time>2021-03-07T17:36:58.166Z</time>
      </trkpt>
      <trkpt lat="48.21032" lon="-3.9792">
        <ele>79.85658567285</ele>
        <time>2021-03-07T17:37:03.415Z</time>
      </trkpt>
      <trkpt lat="48.21081" lon="-3.97907">
        <ele>81.37550781786</ele>
        <time>2021-03-07T17:37:08.672Z</time>
      </trkpt>
      <trkpt lat="48.21109" lon="-3.97902">
        <ele>82.73668617921</ele>
        <time>2021-03-07T17:37:13.933Z</time>
      </trkpt>
      <trkpt lat="48.21159" lon="-3.97903">
        <ele>84.11991291518</ele>
        <time>2021-03-07T17:37:19.203Z</time>
      </trkpt>
      <trkpt lat="48.21194" lon="-3.97912">
        <ele>85.46388521232</ele>
        <time>2021-03-07T17:37:24.478Z</time>
      </trkpt>
      <trkpt lat="48.21236" lon="-3.97928">
        <ele>86.66803464628</ele>
        <time>2021-03-07T17:37:29.760Z</time>
      </trkpt>
      <trkpt lat="48.2129" lon="-3.97955">
        <ele>87.75905717819</ele>
        <time>2021-03-07T17:37:35.051Z</time>
      </trkpt>
      <trkpt lat="48.21314" lon="-3.97968">
        <ele>88.6748958763</ele>
        <time>2021-03-07T17:37:40.346Z</time>
      </trkpt>
      <trkpt lat="48.21357" lon="-3.97988">
        <ele>89.49671864095</ele>
        <time>2021-03-07T17:37:45.649Z</time>
      </trkpt>
      <trkpt lat="48.21384" lon="-3.97996">
        <ele>90.19959349207</ele>
        <time>2021-03-07T17:37:50.956Z</time>
      </trkpt>
      <trkpt lat="48.2142" lon="-3.98">
        <ele>90.66842479349</ele>
        <time>2021-03-07T17:37:56.269Z</time>
      </trkpt>
      <trkpt lat="48.21448" lon="-3.97997">
        <ele>90.99749034499</ele>
        <time>2021-03-07T17:38:01.586Z</time>
      </trkpt>
      <trkpt lat="48.21514" lon="-3.97987">
        <ele>91.19146915933</ele>
        <time>2021-03-07T17:38:06.914Z</time>
      </trkpt>
      <trkpt lat="48.21581" lon="-3.97978">
        <ele>91.25097967626</ele>
        <time>2021-03-07T17:38:12.253Z</time>
      </trkpt>
      <trkpt lat="48.21647" lon="-3.97968">
        <ele>91.31773291524</ele>
        <time>2021-03-07T17:38:17.602Z</time>
      </trkpt>
      <trkpt lat="48.21691" lon="-3.9796">
        <ele>91.40398090704</ele>
        <time>2021-03-07T17:38:22.958Z</time>
      </trkpt>
      <trkpt lat="48.21712" lon="-3.9795">
        <ele>91.4150245477</ele>
        <time>2021-03-07T17:38:28.318Z</time>
      </trkpt>
      <trkpt lat="48.21726" lon="-3.9794">
        <ele>91.32796620018</ele>
        <time>2021-03-07T17:38:33.680Z</time>
      </trkpt>
      <trkpt lat="48.21741" lon="-3.97919">
        <ele>91.21069870964</ele>
        <time>2021-03-07T17:38:39.046Z</time>
      </trkpt>
      <trkpt lat="48.21745" lon="-3.97907">
        <ele>91.12223712701</ele>
        <time>2021-03-07T17:38:44.413Z</time>
      </trkpt>
      <trkpt lat="48.21742" lon="-3.97889">
        <ele>91.03162726303</ele>
        <time>2021-03-07T17:38:49.782Z</time>
      </trkpt>
      <trkpt lat="48.21743" lon="-3.97873">
        <ele>90.96877454482</ele>
        <time>2021-03-07T17:38:55.153Z</time>
      </trkpt>
      <trkpt lat="48.21749" lon="-3.97854">
        <ele>91.00364989533</ele>
        <time>2021-03-07T17:39:00.526Z</time>
      </trkpt>
      <trkpt lat="48.21758" lon="-3.97842">
        <ele>91.07457372089</ele>
        <time>2021-03-07T17:39:05.901Z</time>
      </trkpt>
      <trkpt lat="48.2177" lon="-3.97835">
        <ele>91.1865855643</ele>
        <time>2021-03-07T17:39:11.278Z</time>
      </trkpt>
      <trkpt lat="48.21782" lon="-3.97835">
        <ele>91.35050646563</ele>
        <time>2021-03-07T17:39:16.657Z</time>
      </trkpt>
      <trkpt lat="48.21794" lon="-3.97842">
        <ele>91.54556334507</ele>
        <time>2021-03-07T17:39:22.038Z</time>
      </trkpt>
      <trkpt lat="48.21798" lon="-3.97848">
        <ele>91.75890230256</ele>
        <time>2021-03-07T17:39:27.420Z</time>
      </trkpt>
      <trkpt lat="48.21817" lon="-3.97848">
        <ele>92.03741769785</ele>
        <time>2021-03-07T17:39:32.805Z</time>
      </trkpt>
      <trkpt lat="48.21886" lon="-3.97784">
        <ele>92.39033726384</ele>
        <time>2021-03-07T17:39:38.203Z</time>
      </trkpt>
      <trkpt lat="48.21899" lon="-3.97753">
        <ele>92.71918054013</ele>
        <time>2021-03-07T17:39:43.605Z</time>
      </trkpt>
      <trkpt lat="48.21897" lon="-3.97739">
        <ele>93.0709415204</ele>
        <time>2021-03-07T17:39:49.008Z</time>
      </trkpt>
      <trkpt lat="48.21899" lon="-3.97724">
        <ele>93.47955939491</ele>
        <time>2021-03-07T17:39:54.413Z</time>
      </trkpt>
      <trkpt lat="48.21903" lon="-3.97711">
        <ele>93.94296594563</ele>
        <time>2021-03-07T17:39:59.820Z</time>
      </trkpt>
      <trkpt lat="48.21909" lon="-3.97702">
        <ele>94.4551743642</ele>
        <time>2021-03-07T17:40:05.228Z</time>
      </trkpt>
      <trkpt lat="48.21918" lon="-3.97692">
        <ele>95.03466447718</ele>
        <time>2021-03-07T17:40:10.638Z</time>
      </trkpt>
      <trkpt lat="48.21927" lon="-3.9769">
        <ele>95.68225920614</ele>
        <time>2021-03-07T17:40:16.049Z</time>
      </trkpt>
      <trkpt lat="48.21936" lon="-3.9769">
        <ele>96.40067234385</ele>
        <time>2021-03-07T17:40:21.462Z</time>
      </trkpt>
      <trkpt lat="48.21946" lon="-3.97692">
        <ele>97.2194688354</ele>
        <time>2021-03-07T17:40:26.876Z</time>
      </trkpt>
      <trkpt lat="48.21962" lon="-3.9769">
        <ele>98.1125699846</ele>
        <time>2021-03-07T17:40:32.293Z</time>
      </trkpt>
      <trkpt lat="48.21968" lon="-3.97684">
        <ele>99.05263765937</ele>
        <time>2021-03-07T17:40:37.711Z</time>
      </trkpt>
      <trkpt lat="48.21972" lon="-3.97678">
        <ele>100.02930184039</ele>
        <time>2021-03-07T17:40:43.130Z</time>
      </trkpt>
      <trkpt lat="48.22012" lon="-3.97582">
        <ele>101.13974115446</ele>
        <time>2021-03-07T17:40:48.561Z</time>
      </trkpt>
      <trkpt lat="48.22051" lon="-3.97486">
        <ele>102.34816613256</ele>
        <time>2021-03-07T17:40:54.004Z</time>
      </trkpt>
      <trkpt lat="48.22067" lon="-3.97454">
        <ele>103.32540601709</ele>
        <time>2021-03-07T17:40:59.451Z</time>
      </trkpt>
      <trkpt lat="48.22087" lon="-3.97426">
        <ele>104.29274014111</ele>
        <time>2021-03-07T17:41:04.903Z</time>
      </trkpt>
      <trkpt lat="48.22122" lon="-3.9738">
        <ele>105.18793894364</ele>
        <time>2021-03-07T17:41:10.362Z</time>
      </trkpt>
      <trkpt lat="48.2218" lon="-3.97302">
        <ele>105.89339176058</ele>
        <time>2021-03-07T17:41:15.834Z</time>
      </trkpt>
      <trkpt lat="48.22238" lon="-3.97223">
        <ele>106.40527550226</ele>
        <time>2021-03-07T17:41:21.318Z</time>
      </trkpt>
      <trkpt lat="48.2225" lon="-3.97207">
        <ele>107.02566135567</ele>
        <time>2021-03-07T17:41:26.805Z</time>
      </trkpt>
      <trkpt lat="48.2227" lon="-3.97188">
        <ele>107.62875546318</ele>
        <time>2021-03-07T17:41:32.296Z</time>
      </trkpt>
      <trkpt lat="48.22288" lon="-3.97174">
        <ele>108.19256905024</ele>
        <time>2021-03-07T17:41:37.790Z</time>
      </trkpt>
      <trkpt lat="48.22325" lon="-3.97154">
        <ele>108.79032264714</ele>
        <time>2021-03-07T17:41:43.290Z</time>
      </trkpt>
      <trkpt lat="48.22324" lon="-3.97154">
        <ele>109.2902133736</ele>
        <time>2021-03-07T17:41:48.790Z</time>
      </trkpt>
      <trkpt lat="48.22371" lon="-3.97135">
        <ele>109.82497342789</ele>
        <time>2021-03-07T17:41:54.298Z</time>
      </trkpt>
      <trkpt lat="48.22436" lon="-3.97105">
        <ele>110.44699343044</ele>
        <time>2021-03-07T17:41:59.817Z</time>
      </trkpt>
      <trkpt lat="48.225" lon="-3.97074">
        <ele>110.85635385164</ele>
        <time>2021-03-07T17:42:05.347Z</time>
      </trkpt>
      <trkpt lat="48.22552" lon="-3.97033">
        <ele>111.14913693378</ele>
        <time>2021-03-07T17:42:10.886Z</time>
      </trkpt>
      <trkpt lat="48.22603" lon="-3.96992">
        <ele>111.38687980153</ele>
        <time>2021-03-07T17:42:16.434Z</time>
      </trkpt>
      <trkpt lat="48.22668" lon="-3.96945">
        <ele>111.36986505512</ele>
        <time>2021-03-07T17:42:21.994Z</time>
      </trkpt>
      <trkpt lat="48.22666" lon="-3.96926">
        <ele>111.29253827898</ele>
        <time>2021-03-07T17:42:27.556Z</time>
      </trkpt>
      <trkpt lat="48.22662" lon="-3.96803">
        <ele>111.03134396755</ele>
        <time>2021-03-07T17:42:33.131Z</time>
      </trkpt>
      <trkpt lat="48.22657" lon="-3.96721">
        <ele>110.71584115944</ele>
        <time>2021-03-07T17:42:38.715Z</time>
      </trkpt>
      <trkpt lat="48.22652" lon="-3.9664">
        <ele>110.40176492543</ele>
        <time>2021-03-07T17:42:44.308Z</time>
      </trkpt>
      <trkpt lat="48.22649" lon="-3.96585">
        <ele>110.24376587696</ele>
        <time>2021-03-07T17:42:49.907Z</time>
      </trkpt>
      <trkpt lat="48.22642" lon="-3.96533">
        <ele>110.24275940858</ele>
        <time>2021-03-07T17:42:55.511Z</time>
      </trkpt>
      <trkpt lat="48.22648" lon="-3.96531">
        <ele>110.33606144853</ele>
        <time>2021-03-07T17:43:01.116Z</time>
      </trkpt>
      <trkpt lat="48.22669" lon="-3.96529">
        <ele>110.55319728763</ele>
        <time>2021-03-07T17:43:06.725Z</time>
      </trkpt>
      <trkpt lat="48.22678" lon="-3.96523">
        <ele>110.96028866708</ele>
        <time>2021-03-07T17:43:12.335Z</time>
      </trkpt>
      <trkpt lat="48.22683" lon="-3.96511">
        <ele>111.55116916372</ele>
        <time>2021-03-07T17:43:17.947Z</time>
      </trkpt>
      <trkpt lat="48.2271" lon="-3.96433">
        <ele>112.25494854986</ele>
        <time>2021-03-07T17:43:23.568Z</time>
      </trkpt>
      <trkpt lat="48.22737" lon="-3.96355">
        <ele>113.2609512779</ele>
        <time>2021-03-07T17:43:29.198Z</time>
      </trkpt>
      <trkpt lat="48.22743" lon="-3.96322">
        <ele>114.34580020407</ele>
        <time>2021-03-07T17:43:34.832Z</time>
      </trkpt>
      <trkpt lat="48.22747" lon="-3.96229">
        <ele>115.68862045807</ele>
        <time>2021-03-07T17:43:40.476Z</time>
      </trkpt>
      <trkpt lat="48.2275" lon="-3.96136">
        <ele>117.06557770461</ele>
        <time>2021-03-07T17:43:46.130Z</time>
      </trkpt>
      <trkpt lat="48.22754" lon="-3.96043">
        <ele>118.32472985697</ele>
        <time>2021-03-07T17:43:51.794Z</time>
      </trkpt>
      <trkpt lat="48.22757" lon="-3.96023">
        <ele>119.36393277736</ele>
        <time>2021-03-07T17:43:57.460Z</time>
      </trkpt>
      <trkpt lat="48.22768" lon="-3.95985">
        <ele>120.29543538785</ele>
        <time>2021-03-07T17:44:03.131Z</time>
      </trkpt>
      <trkpt lat="48.22811" lon="-3.95871">
        <ele>120.94048799674</ele>
        <time>2021-03-07T17:44:08.816Z</time>
      </trkpt>
      <trkpt lat="48.22853" lon="-3.95757">
        <ele>121.50667403185</ele>
        <time>2021-03-07T17:44:14.515Z</time>
      </trkpt>
      <trkpt lat="48.22856" lon="-3.95757">
        <ele>121.91301083492</ele>
        <time>2021-03-07T17:44:20.214Z</time>
      </trkpt>
      <trkpt lat="48.2286" lon="-3.95752">
        <ele>122.14830273916</ele>
        <time>2021-03-07T17:44:25.914Z</time>
      </trkpt>
      <trkpt lat="48.22859" lon="-3.95745">
        <ele>122.24009832131</ele>
        <time>2021-03-07T17:44:31.615Z</time>
      </trkpt>
      <trkpt lat="48.2288" lon="-3.95727">
        <ele>122.16195177549</ele>
        <time>2021-03-07T17:44:37.320Z</time>
      </trkpt>
      <trkpt lat="48.22899" lon="-3.95702">
        <ele>122.00645238391</ele>
        <time>2021-03-07T17:44:43.029Z</time>
      </trkpt>
      <trkpt lat="48.22942" lon="-3.95617">
        <ele>121.67454518334</ele>
        <time>2021-03-07T17:44:48.749Z</time>
      </trkpt>
      <trkpt lat="48.22979" lon="-3.95558">
        <ele>121.37318539111</ele>
        <time>2021-03-07T17:44:54.478Z</time>
      </trkpt>
      <trkpt lat="48.23015" lon="-3.95498">
        <ele>121.10859796537</ele>
        <time>2021-03-07T17:45:00.215Z</time>
      </trkpt>
      <trkpt lat="48.2305" lon="-3.95434">
        <ele>120.88486812744</ele>
        <time>2021-03-07T17:45:05.961Z</time>
      </trkpt>
      <trkpt lat="48.23085" lon="-3.9537">
        <ele>120.72555999721</ele>
        <time>2021-03-07T17:45:11.716Z</time>
      </trkpt>
      <trkpt lat="48.23109" lon="-3.95311">
        <ele>120.6545102632</ele>
        <time>2021-03-07T17:45:17.478Z</time>
      </trkpt>
      <trkpt lat="48.2314" lon="-3.95259">
        <ele>120.52735645212</ele>
        <time>2021-03-07T17:45:23.248Z</time>
      </trkpt>
      <trkpt lat="48.23173" lon="-3.95191">
        <ele>120.36378775797</ele>
        <time>2021-03-07T17:45:29.027Z</time>
      </trkpt>
      <trkpt lat="48.2321" lon="-3.95076">
        <ele>120.34854191864</ele>
        <time>2021-03-07T17:45:34.819Z</time>
      </trkpt>
      <trkpt lat="48.23218" lon="-3.95059">
        <ele>120.45198005712</ele>
        <time>2021-03-07T17:45:40.614Z</time>
      </trkpt>
      <trkpt lat="48.23232" lon="-3.9504">
        <ele>120.65454134548</ele>
        <time>2021-03-07T17:45:46.412Z</time>
      </trkpt>
      <trkpt lat="48.2325" lon="-3.95018">
        <ele>121.01673787565</ele>
        <time>2021-03-07T17:45:52.213Z</time>
      </trkpt>
      <trkpt lat="48.23271" lon="-3.94999">
        <ele>121.5312147681</ele>
        <time>2021-03-07T17:45:58.018Z</time>
      </trkpt>
      <trkpt lat="48.23294" lon="-3.94985">
        <ele>122.18171411972</ele>
        <time>2021-03-07T17:46:03.827Z</time>
      </trkpt>
      <trkpt lat="48.23303" lon="-3.9498">
        <ele>122.94522680566</ele>
        <time>2021-03-07T17:46:09.638Z</time>
      </trkpt>
      <trkpt lat="48.2338" lon="-3.94972">
        <ele>123.73713678539</ele>
        <time>2021-03-07T17:46:15.461Z</time>
      </trkpt>
      <trkpt lat="48.23457" lon="-3.94964">
        <ele>124.8647804535</ele>
        <time>2021-03-07T17:46:21.297Z</time>
      </trkpt>
      <trkpt lat="48.23504" lon="-3.94947">
        <ele>126.1072096095</ele>
        <time>2021-03-07T17:46:27.140Z</time>
      </trkpt>
      <trkpt lat="48.23539" lon="-3.9492">
        <ele>127.5238938457</ele>
        <time>2021-03-07T17:46:32.990Z</time>
      </trkpt>
      <trkpt lat="48.23599" lon="-3.94838">
        <ele>129.09170999764</ele>
        <time>2021-03-07T17:46:38.853Z</time>
      </trkpt>
      <trkpt lat="48.23628" lon="-3.94789">
        <ele>130.91488917442</ele>
        <time>2021-03-07T17:46:44.723Z</time>
      </trkpt>
      <trkpt lat="48.23635" lon="-3.94768">
        <ele>132.68332802746</ele>
        <time>2021-03-07T17:46:50.595Z</time>
      </trkpt>
      <trkpt lat="48.23635" lon="-3.94769">
        <ele>134.41277068669</ele>
        <time>2021-03-07T17:46:56.467Z</time>
      </trkpt>
      <trkpt lat="48.23648" lon="-3.94736">
        <ele>136.21591141972</ele>
        <time>2021-03-07T17:47:02.343Z</time>
      </trkpt>
      <trkpt lat="48.23659" lon="-3.94693">
        <ele>138.02673400048</ele>
        <time>2021-03-07T17:47:08.224Z</time>
      </trkpt>
      <trkpt lat="48.23668" lon="-3.94586">
        <ele>139.61752323561</ele>
        <time>2021-03-07T17:47:14.117Z</time>
      </trkpt>
      <trkpt lat="48.23673" lon="-3.94495">
        <ele>141.27018720456</ele>
        <time>2021-03-07T17:47:20.020Z</time>
      </trkpt>
      <trkpt lat="48.23677" lon="-3.94404">
        <ele>142.71488268882</ele>
        <time>2021-03-07T17:47:25.932Z</time>
      </trkpt>
      <trkpt lat="48.23686" lon="-3.94337">
        <ele>143.76170530472</ele>
        <time>2021-03-07T17:47:31.852Z</time>
      </trkpt>
      <trkpt lat="48.23703" lon="-3.94273">
        <ele>144.47756891291</ele>
        <time>2021-03-07T17:47:37.779Z</time>
      </trkpt>
      <trkpt lat="48.23738" lon="-3.94182">
        <ele>144.60984084084</ele>
        <time>2021-03-07T17:47:43.717Z</time>
      </trkpt>
      <trkpt lat="48.23773" lon="-3.94091">
        <ele>144.87867602196</ele>
        <time>2021-03-07T17:47:49.667Z</time>
      </trkpt>
      <trkpt lat="48.23808" lon="-3.93999">
        <ele>144.67677376462</ele>
        <time>2021-03-07T17:47:55.628Z</time>
      </trkpt>
      <trkpt lat="48.23843" lon="-3.93908">
        <ele>144.22903722454</ele>
        <time>2021-03-07T17:48:01.600Z</time>
      </trkpt>
      <trkpt lat="48.23858" lon="-3.93848">
        <ele>143.5739447</ele>
        <time>2021-03-07T17:48:07.579Z</time>
      </trkpt>
      <trkpt lat="48.23861" lon="-3.93777">
        <ele>142.71138944385</ele>
        <time>2021-03-07T17:48:13.566Z</time>
      </trkpt>
      <trkpt lat="48.23864" lon="-3.93683">
        <ele>141.73979613443</ele>
        <time>2021-03-07T17:48:19.563Z</time>
      </trkpt>
      <trkpt lat="48.23876" lon="-3.93636">
        <ele>140.92524468459</ele>
        <time>2021-03-07T17:48:25.565Z</time>
      </trkpt>
      <trkpt lat="48.239" lon="-3.93576">
        <ele>140.17517859008</ele>
        <time>2021-03-07T17:48:31.574Z</time>
      </trkpt>
      <trkpt lat="48.23915" lon="-3.93549">
        <ele>139.4477579444</ele>
        <time>2021-03-07T17:48:37.587Z</time>
      </trkpt>
      <trkpt lat="48.23935" lon="-3.93521">
        <ele>138.84064586684</ele>
        <time>2021-03-07T17:48:43.605Z</time>
      </trkpt>
      <trkpt lat="48.23991" lon="-3.93464">
        <ele>138.3788724132</ele>
        <time>2021-03-07T17:48:49.633Z</time>
      </trkpt>
      <trkpt lat="48.24047" lon="-3.93406">
        <ele>137.8382450386</ele>
        <time>2021-03-07T17:48:55.672Z</time>
      </trkpt>
      <trkpt lat="48.24082" lon="-3.93367">
        <ele>137.63599171519</ele>
        <time>2021-03-07T17:49:01.718Z</time>
      </trkpt>
      <trkpt lat="48.24132" lon="-3.93299">
        <ele>137.57079902301</ele>
        <time>2021-03-07T17:49:07.775Z</time>
      </trkpt>
      <trkpt lat="48.24178" lon="-3.93221">
        <ele>137.83669624675</ele>
        <time>2021-03-07T17:49:13.843Z</time>
      </trkpt>
      <trkpt lat="48.24221" lon="-3.93141">
        <ele>138.32817365864</ele>
        <time>2021-03-07T17:49:19.922Z</time>
      </trkpt>
      <trkpt lat="48.24263" lon="-3.9306">
        <ele>139.12310283226</ele>
        <time>2021-03-07T17:49:26.012Z</time>
      </trkpt>
      <trkpt lat="48.24311" lon="-3.92961">
        <ele>140.23117308855</ele>
        <time>2021-03-07T17:49:32.115Z</time>
      </trkpt>
      <trkpt lat="48.24373" lon="-3.92869">
        <ele>141.34591367451</ele>
        <time>2021-03-07T17:49:38.232Z</time>
      </trkpt>
      <trkpt lat="48.24428" lon="-3.92802">
        <ele>142.55309214046</ele>
        <time>2021-03-07T17:49:44.361Z</time>
      </trkpt>
      <trkpt lat="48.2448" lon="-3.92744">
        <ele>143.87144048613</ele>
        <time>2021-03-07T17:49:50.500Z</time>
      </trkpt>
      <trkpt lat="48.24532" lon="-3.92686">
        <ele>145.26594258805</ele>
        <time>2021-03-07T17:49:56.649Z</time>
      </trkpt>
      <trkpt lat="48.24596" lon="-3.92609">
        <ele>146.61395840763</ele>
        <time>2021-03-07T17:50:02.812Z</time>
      </trkpt>
      <trkpt lat="48.2466" lon="-3.92532">
        <ele>148.13079705723</ele>
        <time>2021-03-07T17:50:08.988Z</time>
      </trkpt>
      <trkpt lat="48.24701" lon="-3.92463">
        <ele>149.59092276922</ele>
        <time>2021-03-07T17:50:15.174Z</time>
      </trkpt>
      <trkpt lat="48.2474" lon="-3.92377">
        <ele>150.99984508653</ele>
        <time>2021-03-07T17:50:21.371Z</time>
      </trkpt>
      <trkpt lat="48.24778" lon="-3.9229">
        <ele>152.4214677134</ele>
        <time>2021-03-07T17:50:27.579Z</time>
      </trkpt>
      <trkpt lat="48.24817" lon="-3.92204">
        <ele>153.66749879537</ele>
        <time>2021-03-07T17:50:33.798Z</time>
      </trkpt>
      <trkpt lat="48.24852" lon="-3.92126">
        <ele>155.05628675265</ele>
        <time>2021-03-07T17:50:40.027Z</time>
      </trkpt>
      <trkpt lat="48.24887" lon="-3.92048">
        <ele>156.14298506163</ele>
        <time>2021-03-07T17:50:46.266Z</time>
      </trkpt>
      <trkpt lat="48.24898" lon="-3.92043">
        <ele>157.14113628708</ele>
        <time>2021-03-07T17:50:52.507Z</time>
      </trkpt>
      <trkpt lat="48.24947" lon="-3.9203">
        <ele>158.02558134856</ele>
        <time>2021-03-07T17:50:58.756Z</time>
      </trkpt>
      <trkpt lat="48.24975" lon="-3.92018">
        <ele>158.81832879505</ele>
        <time>2021-03-07T17:51:05.010Z</time>
      </trkpt>
      <trkpt lat="48.25038" lon="-3.91945">
        <ele>159.47358315769</ele>
        <time>2021-03-07T17:51:11.276Z</time>
      </trkpt>
      <trkpt lat="48.25044" lon="-3.91841">
        <ele>160.23456621429</ele>
        <time>2021-03-07T17:51:17.553Z</time>
      </trkpt>
      <trkpt lat="48.2505" lon="-3.91737">
        <ele>160.83308689662</ele>
        <time>2021-03-07T17:51:23.842Z</time>
      </trkpt>
      <trkpt lat="48.25056" lon="-3.91633">
        <ele>161.44434620337</ele>
        <time>2021-03-07T17:51:30.142Z</time>
      </trkpt>
      <trkpt lat="48.25062" lon="-3.91529">
        <ele>161.90328248144</ele>
        <time>2021-03-07T17:51:36.453Z</time>
      </trkpt>
      <trkpt lat="48.2508" lon="-3.91433">
        <ele>162.2294104933</ele>
        <time>2021-03-07T17:51:42.775Z</time>
      </trkpt>
      <trkpt lat="48.25098" lon="-3.91337">
        <ele>162.43938397202</ele>
        <time>2021-03-07T17:51:49.107Z</time>
      </trkpt>
      <trkpt lat="48.25101" lon="-3.91296">
        <ele>162.54855421934</ele>
        <time>2021-03-07T17:51:55.444Z</time>
      </trkpt>
      <trkpt lat="48.25101" lon="-3.91226">
        <ele>162.45605014648</ele>
        <time>2021-03-07T17:52:01.788Z</time>
      </trkpt>
      <trkpt lat="48.25101" lon="-3.91156">
        <ele>162.28202278417</ele>
        <time>2021-03-07T17:52:08.140Z</time>
      </trkpt>
      <trkpt lat="48.25104" lon="-3.91102">
        <ele>162.04382090187</ele>
        <time>2021-03-07T17:52:14.497Z</time>
      </trkpt>
      <trkpt lat="48.2511" lon="-3.91063">
        <ele>161.70835038656</ele>
        <time>2021-03-07T17:52:20.859Z</time>
      </trkpt>
      <trkpt lat="48.25127" lon="-3.90986">
        <ele>161.27063504581</ele>
        <time>2021-03-07T17:52:27.229Z</time>
      </trkpt>
      <trkpt lat="48.25156" lon="-3.90899">
        <ele>160.70708664493</ele>
        <time>2021-03-07T17:52:33.610Z</time>
      </trkpt>
      <trkpt lat="48.25067" lon="-3.90889">
        <ele>160.1983011944</ele>
        <time>2021-03-07T17:52:40.005Z</time>
      </trkpt>
      <trkpt lat="48.24977" lon="-3.9088">
        <ele>159.5507572296</ele>
        <time>2021-03-07T17:52:46.415Z</time>
      </trkpt>
      <trkpt lat="48.2496" lon="-3.90878">
        <ele>158.98673531916</ele>
        <time>2021-03-07T17:52:52.827Z</time>
      </trkpt>
      <trkpt lat="48.24945" lon="-3.90872">
        <ele>158.40946068789</ele>
        <time>2021-03-07T17:52:59.242Z</time>
      </trkpt>
      <trkpt lat="48.24916" lon="-3.90862">
        <ele>157.75209117041</ele>
        <time>2021-03-07T17:53:05.661Z</time>
      </trkpt>
      <trkpt lat="48.24871" lon="-3.90842">
        <ele>157.09525653966</ele>
        <time>2021-03-07T17:53:12.088Z</time>
      </trkpt>
      <trkpt lat="48.24807" lon="-3.90807">
        <ele>156.45451586484</ele>
        <time>2021-03-07T17:53:18.526Z</time>
      </trkpt>
      <trkpt lat="48.24762" lon="-3.90792">
        <ele>155.9103870912</ele>
        <time>2021-03-07T17:53:24.971Z</time>
      </trkpt>
      <trkpt lat="48.24717" lon="-3.90777">
        <ele>155.29470060817</ele>
        <time>2021-03-07T17:53:31.424Z</time>
      </trkpt>
      <trkpt lat="48.24665" lon="-3.9077">
        <ele>154.46625747878</ele>
        <time>2021-03-07T17:53:37.885Z</time>
      </trkpt>
      <trkpt lat="48.24615" lon="-3.90774">
        <ele>153.60138422408</ele>
        <time>2021-03-07T17:53:44.354Z</time>
      </trkpt>
      <trkpt lat="48.24535" lon="-3.9079">
        <ele>152.74222727806</ele>
        <time>2021-03-07T17:53:50.836Z</time>
      </trkpt>
      <trkpt lat="48.24455" lon="-3.90805">
        <ele>151.81907430634</ele>
        <time>2021-03-07T17:53:57.331Z</time>
      </trkpt>
      <trkpt lat="48.24376" lon="-3.90821">
        <ele>151.10682188076</ele>
        <time>2021-03-07T17:54:03.839Z</time>
      </trkpt>
      <trkpt lat="48.24296" lon="-3.90836">
        <ele>150.39745885625</ele>
        <time>2021-03-07T17:54:10.360Z</time>
      </trkpt>
      <trkpt lat="48.24216" lon="-3.90852">
        <ele>149.61583538474</ele>
        <time>2021-03-07T17:54:16.893Z</time>
      </trkpt>
      <trkpt lat="48.24156" lon="-3.90876">
        <ele>149.09538787532</ele>
        <time>2021-03-07T17:54:23.436Z</time>
      </trkpt>
      <trkpt lat="48.24097" lon="-3.90901">
        <ele>148.75171174942</ele>
        <time>2021-03-07T17:54:29.989Z</time>
      </trkpt>
      <trkpt lat="48.24037" lon="-3.90925">
        <ele>148.42512525982</ele>
        <time>2021-03-07T17:54:36.552Z</time>
      </trkpt>
      <trkpt lat="48.24024" lon="-3.90927">
        <ele>148.13075089067</ele>
        <time>2021-03-07T17:54:43.117Z</time>
      </trkpt>
      <trkpt lat="48.23978" lon="-3.90925">
        <ele>147.87146740217</ele>
        <time>2021-03-07T17:54:49.690Z</time>
      </trkpt>
      <trkpt lat="48.23894" lon="-3.90918">
        <ele>147.74216775622</ele>
        <time>2021-03-07T17:54:56.276Z</time>
      </trkpt>
      <trkpt lat="48.23874" lon="-3.90915">
        <ele>147.28736490772</ele>
        <time>2021-03-07T17:55:02.865Z</time>
      </trkpt>
      <trkpt lat="48.23831" lon="-3.90905">
        <ele>146.59117799995</ele>
        <time>2021-03-07T17:55:09.461Z</time>
      </trkpt>
      <trkpt lat="48.23772" lon="-3.9089">
        <ele>145.72002267207</ele>
        <time>2021-03-07T17:55:16.067Z</time>
      </trkpt>
      <trkpt lat="48.23712" lon="-3.90876">
        <ele>144.74848998271</ele>
        <time>2021-03-07T17:55:22.683Z</time>
      </trkpt>
      <trkpt lat="48.23687" lon="-3.90857">
        <ele>143.38412598612</ele>
        <time>2021-03-07T17:55:29.303Z</time>
      </trkpt>
      <trkpt lat="48.23673" lon="-3.90836">
        <ele>141.69083794462</ele>
        <time>2021-03-07T17:55:35.926Z</time>
      </trkpt>
      <trkpt lat="48.23639" lon="-3.90761">
        <ele>139.56013287183</ele>
        <time>2021-03-07T17:55:42.559Z</time>
      </trkpt>
      <trkpt lat="48.23616" lon="-3.90722">
        <ele>137.24670907339</ele>
        <time>2021-03-07T17:55:49.198Z</time>
      </trkpt>
      <trkpt lat="48.23559" lon="-3.90658">
        <ele>134.57188903621</ele>
        <time>2021-03-07T17:55:55.848Z</time>
      </trkpt>
      <trkpt lat="48.23519" lon="-3.90629">
        <ele>131.92709562952</ele>
        <time>2021-03-07T17:56:02.505Z</time>
      </trkpt>
      <trkpt lat="48.23437" lon="-3.90593">
        <ele>129.04666254715</ele>
        <time>2021-03-07T17:56:09.176Z</time>
      </trkpt>
      <trkpt lat="48.23396" lon="-3.90566">
        <ele>126.25659946692</ele>
        <time>2021-03-07T17:56:15.854Z</time>
      </trkpt>
      <trkpt lat="48.23329" lon="-3.90497">
        <ele>123.41082611745</ele>
        <time>2021-03-07T17:56:22.545Z</time>
      </trkpt>
      <trkpt lat="48.23268" lon="-3.90439">
        <ele>120.65662009189</ele>
        <time>2021-03-07T17:56:29.247Z</time>
      </trkpt>
      <trkpt lat="48.23207" lon="-3.90382">
        <ele>118.20244873329</ele>
        <time>2021-03-07T17:56:35.961Z</time>
      </trkpt>
      <trkpt lat="48.23146" lon="-3.90324">
        <ele>115.96104568265</ele>
        <time>2021-03-07T17:56:42.687Z</time>
      </trkpt>
      <trkpt lat="48.23089" lon="-3.9028">
        <ele>113.93696043198</ele>
        <time>2021-03-07T17:56:49.423Z</time>
      </trkpt>
      <trkpt lat="48.23052" lon="-3.9026">
        <ele>112.36428946611</ele>
        <time>2021-03-07T17:56:56.165Z</time>
      </trkpt>
      <trkpt lat="48.23019" lon="-3.90254">
        <ele>111.16343002035</ele>
        <time>2021-03-07T17:57:02.912Z</time>
      </trkpt>
      <trkpt lat="48.23003" lon="-3.90252">
        <ele>110.131577701</ele>
        <time>2021-03-07T17:57:09.662Z</time>
      </trkpt>
      <trkpt lat="48.2296" lon="-3.90254">
        <ele>109.37648657229</ele>
        <time>2021-03-07T17:57:16.419Z</time>
      </trkpt>
      <trkpt lat="48.22896" lon="-3.90242">
        <ele>108.85388491241</ele>
        <time>2021-03-07T17:57:23.186Z</time>
      </trkpt>
      <trkpt lat="48.22874" lon="-3.90241">
        <ele>108.54418338406</ele>
        <time>2021-03-07T17:57:29.957Z</time>
      </trkpt>
      <trkpt lat="48.22854" lon="-3.90244">
        <ele>108.37794433107</ele>
        <time>2021-03-07T17:57:36.731Z</time>
      </trkpt>
      <trkpt lat="48.22773" lon="-3.90267">
        <ele>108.47073190835</ele>
        <time>2021-03-07T17:57:43.518Z</time>
      </trkpt>
      <trkpt lat="48.22688" lon="-3.90264">
        <ele>108.50674555011</ele>
        <time>2021-03-07T17:57:50.319Z</time>
      </trkpt>
      <trkpt lat="48.22624" lon="-3.90266">
        <ele>108.62345195567</ele>
        <time>2021-03-07T17:57:57.130Z</time>
      </trkpt>
      <trkpt lat="48.2256" lon="-3.90268">
        <ele>108.5387788413</ele>
        <time>2021-03-07T17:58:03.951Z</time>
      </trkpt>
      <trkpt lat="48.22481" lon="-3.90274">
        <ele>108.38128376987</ele>
        <time>2021-03-07T17:58:10.785Z</time>
      </trkpt>
      <trkpt lat="48.2248" lon="-3.90274">
        <ele>108.17264738366</ele>
        <time>2021-03-07T17:58:17.619Z</time>
      </trkpt>
      <trkpt lat="48.22406" lon="-3.90279">
        <ele>107.76633648493</ele>
        <time>2021-03-07T17:58:24.465Z</time>
      </trkpt>
      <trkpt lat="48.22332" lon="-3.90283">
        <ele>107.27587701267</ele>
        <time>2021-03-07T17:58:31.323Z</time>
      </trkpt>
      <trkpt lat="48.22253" lon="-3.90287">
        <ele>106.73959934568</ele>
        <time>2021-03-07T17:58:38.194Z</time>
      </trkpt>
      <trkpt lat="48.22174" lon="-3.90291">
        <ele>106.20979682243</ele>
        <time>2021-03-07T17:58:45.077Z</time>
      </trkpt>
      <trkpt lat="48.22094" lon="-3.90294">
        <ele>105.90275941321</ele>
        <time>2021-03-07T17:58:51.973Z</time>
      </trkpt>
      <trkpt lat="48.22015" lon="-3.90298">
        <ele>105.48668059435</ele>
        <time>2021-03-07T17:58:58.882Z</time>
      </trkpt>
      <trkpt lat="48.21936" lon="-3.90302">
        <ele>105.25073634914</ele>
        <time>2021-03-07T17:59:05.803Z</time>
      </trkpt>
      <trkpt lat="48.21896" lon="-3.90316">
        <ele>105.11080841435</ele>
        <time>2021-03-07T17:59:12.731Z</time>
      </trkpt>
      <trkpt lat="48.21826" lon="-3.90356">
        <ele>105.1465212544</ele>
        <time>2021-03-07T17:59:19.671Z</time>
      </trkpt>
      <trkpt lat="48.21815" lon="-3.90357">
        <ele>105.23864011448</ele>
        <time>2021-03-07T17:59:26.613Z</time>
      </trkpt>
      <trkpt lat="48.21781" lon="-3.90358">
        <ele>105.42589957885</ele>
        <time>2021-03-07T17:59:33.560Z</time>
      </trkpt>
      <trkpt lat="48.2171" lon="-3.90342">
        <ele>105.74602298138</ele>
        <time>2021-03-07T17:59:40.519Z</time>
      </trkpt>
      <trkpt lat="48.21644" lon="-3.90332">
        <ele>106.4840947762</ele>
        <time>2021-03-07T17:59:47.488Z</time>
      </trkpt>
      <trkpt lat="48.21632" lon="-3.90319">
        <ele>107.23700763601</ele>
        <time>2021-03-07T17:59:54.460Z</time>
      </trkpt>
      <trkpt lat="48.21582" lon="-3.90306">
        <ele>108.1676658441</ele>
        <time>2021-03-07T18:00:01.440Z</time>
      </trkpt>
      <trkpt lat="48.21532" lon="-3.90293">
        <ele>109.17525834568</ele>
        <time>2021-03-07T18:00:08.428Z</time>
      </trkpt>
      <trkpt lat="48.21481" lon="-3.90289">
        <ele>110.28429042374</ele>
        <time>2021-03-07T18:00:15.424Z</time>
      </trkpt>
      <trkpt lat="48.2143" lon="-3.90286">
        <ele>111.35109742891</ele>
        <time>2021-03-07T18:00:22.428Z</time>
      </trkpt>
      <trkpt lat="48.21362" lon="-3.90296">
        <ele>112.39884309545</ele>
        <time>2021-03-07T18:00:29.443Z</time>
      </trkpt>
      <trkpt lat="48.21334" lon="-3.90294">
        <ele>113.29205065585</ele>
        <time>2021-03-07T18:00:36.463Z</time>
      </trkpt>
      <trkpt lat="48.21317" lon="-3.90288">
        <ele>114.03323658506</ele>
        <time>2021-03-07T18:00:43.485Z</time>
      </trkpt>
      <trkpt lat="48.21245" lon="-3.90246">
        <ele>114.63855753661</ele>
        <time>2021-03-07T18:00:50.520Z</time>
      </trkpt>
      <trkpt lat="48.21224" lon="-3.90241">
        <ele>114.99460054487</ele>
        <time>2021-03-07T18:00:57.558Z</time>
      </trkpt>
      <trkpt lat="48.21155" lon="-3.90234">
        <ele>115.10753324375</ele>
        <time>2021-03-07T18:01:04.607Z</time>
      </trkpt>
      <trkpt lat="48.2114" lon="-3.90232">
        <ele>115.06668493743</ele>
        <time>2021-03-07T18:01:11.659Z</time>
      </trkpt>
      <trkpt lat="48.21093" lon="-3.90213">
        <ele>114.8134079842</ele>
        <time>2021-03-07T18:01:18.718Z</time>
      </trkpt>
      <trkpt lat="48.21047" lon="-3.90195">
        <ele>114.44814643079</ele>
        <time>2021-03-07T18:01:25.785Z</time>
      </trkpt>
      <trkpt lat="48.21035" lon="-3.90193">
        <ele>114.01957828437</ele>
        <time>2021-03-07T18:01:32.854Z</time>
      </trkpt>
      <trkpt lat="48.20961" lon="-3.902">
        <ele>113.46313452537</ele>
        <time>2021-03-07T18:01:39.935Z</time>
      </trkpt>
      <trkpt lat="48.20888" lon="-3.90207">
        <ele>112.73566846762</ele>
        <time>2021-03-07T18:01:47.028Z</time>
      </trkpt>
      <trkpt lat="48.20814" lon="-3.90214">
        <ele>112.07170255397</ele>
        <time>2021-03-07T18:01:54.132Z</time>
      </trkpt>
      <trkpt lat="48.20813" lon="-3.9022">
        <ele>111.39180145365</ele>
        <time>2021-03-07T18:02:01.237Z</time>
      </trkpt>
      <trkpt lat="48.20808" lon="-3.90225">
        <ele>110.70611045002</ele>
        <time>2021-03-07T18:02:08.343Z</time>
      </trkpt>
      <trkpt lat="48.20802" lon="-3.90222">
        <ele>110.03050112259</ele>
        <time>2021-03-07T18:02:15.450Z</time>
      </trkpt>
      <trkpt lat="48.208" lon="-3.90216">
        <ele>109.37828289416</ele>
        <time>2021-03-07T18:02:22.558Z</time>
      </trkpt>
      <trkpt lat="48.20779" lon="-3.90219">
        <ele>108.73111724681</ele>
        <time>2021-03-07T18:02:29.669Z</time>
      </trkpt>
      <trkpt lat="48.20721" lon="-3.90213">
        <ele>108.14350932305</ele>
        <time>2021-03-07T18:02:36.790Z</time>
      </trkpt>
      <trkpt lat="48.20696" lon="-3.90209">
        <ele>107.61893895214</ele>
        <time>2021-03-07T18:02:43.915Z</time>
      </trkpt>
      <trkpt lat="48.20633" lon="-3.90199">
        <ele>107.13176890913</ele>
        <time>2021-03-07T18:02:51.050Z</time>
      </trkpt>
      <trkpt lat="48.2057" lon="-3.90188">
        <ele>106.8603463913</ele>
        <time>2021-03-07T18:02:58.195Z</time>
      </trkpt>
      <trkpt lat="48.20507" lon="-3.90178">
        <ele>106.53208396343</ele>
        <time>2021-03-07T18:03:05.350Z</time>
      </trkpt>
      <trkpt lat="48.20423" lon="-3.90166">
        <ele>106.24103524967</ele>
        <time>2021-03-07T18:03:12.519Z</time>
      </trkpt>
      <trkpt lat="48.20339" lon="-3.90155">
        <ele>106.08128124958</ele>
        <time>2021-03-07T18:03:19.701Z</time>
      </trkpt>
      <trkpt lat="48.20255" lon="-3.90143">
        <ele>106.01147107758</ele>
        <time>2021-03-07T18:03:26.897Z</time>
      </trkpt>
      <trkpt lat="48.20171" lon="-3.90132">
        <ele>105.98116450457</ele>
        <time>2021-03-07T18:03:34.106Z</time>
      </trkpt>
      <trkpt lat="48.20103" lon="-3.90105">
        <ele>106.04348919769</ele>
        <time>2021-03-07T18:03:41.326Z</time>
      </trkpt>
      <trkpt lat="48.20035" lon="-3.90078">
        <ele>106.14373120093</ele>
        <time>2021-03-07T18:03:48.558Z</time>
      </trkpt>
      <trkpt lat="48.1999" lon="-3.90053">
        <ele>106.48121802117</ele>
        <time>2021-03-07T18:03:55.797Z</time>
      </trkpt>
      <trkpt lat="48.19944" lon="-3.90028">
        <ele>106.97114516026</ele>
        <time>2021-03-07T18:04:03.044Z</time>
      </trkpt>
      <trkpt lat="48.19884" lon="-3.89989">
        <ele>107.63778053999</ele>
        <time>2021-03-07T18:04:10.302Z</time>
      </trkpt>
      <trkpt lat="48.19839" lon="-3.89968">
        <ele>108.53958873799</ele>
        <time>2021-03-07T18:04:17.567Z</time>
      </trkpt>
      <trkpt lat="48.19771" lon="-3.89948">
        <ele>109.6298121239</ele>
        <time>2021-03-07T18:04:24.843Z</time>
      </trkpt>
      <trkpt lat="48.19706" lon="-3.89938">
        <ele>110.83451098329</ele>
        <time>2021-03-07T18:04:32.130Z</time>
      </trkpt>
      <trkpt lat="48.19658" lon="-3.89927">
        <ele>112.21405412751</ele>
        <time>2021-03-07T18:04:39.424Z</time>
      </trkpt>
      <trkpt lat="48.19622" lon="-3.89908">
        <ele>113.49666715768</ele>
        <time>2021-03-07T18:04:46.725Z</time>
      </trkpt>
      <trkpt lat="48.19577" lon="-3.89887">
        <ele>114.79255185024</ele>
        <time>2021-03-07T18:04:54.033Z</time>
      </trkpt>
      <trkpt lat="48.19531" lon="-3.89867">
        <ele>116.0506233729</ele>
        <time>2021-03-07T18:05:01.349Z</time>
      </trkpt>
      <trkpt lat="48.19491" lon="-3.89856">
        <ele>117.42099015</ele>
        <time>2021-03-07T18:05:08.671Z</time>
      </trkpt>
      <trkpt lat="48.19491" lon="-3.89856">
        <ele>118.49498410906</ele>
        <time>2021-03-07T18:05:15.993Z</time>
      </trkpt>
      <trkpt lat="48.1943" lon="-3.89853">
        <ele>119.67489834443</ele>
        <time>2021-03-07T18:05:23.325Z</time>
      </trkpt>
      <trkpt lat="48.19378" lon="-3.89854">
        <ele>120.38961433172</ele>
        <time>2021-03-07T18:05:30.665Z</time>
      </trkpt>
      <trkpt lat="48.19365" lon="-3.89849">
        <ele>120.83059172422</ele>
        <time>2021-03-07T18:05:38.008Z</time>
      </trkpt>
      <trkpt lat="48.19339" lon="-3.8984">
        <ele>120.94814676</ele>
        <time>2021-03-07T18:05:45.355Z</time>
      </trkpt>
      <trkpt lat="48.19268" lon="-3.89807">
        <ele>120.58146309386</ele>
        <time>2021-03-07T18:05:52.714Z</time>
      </trkpt>
      <trkpt lat="48.19253" lon="-3.89791">
        <ele>120.09163068879</ele>
        <time>2021-03-07T18:06:00.076Z</time>
      </trkpt>
      <trkpt lat="48.19225" lon="-3.89799">
        <ele>119.28473015203</ele>
        <time>2021-03-07T18:06:07.442Z</time>
      </trkpt>
      <trkpt lat="48.19221" lon="-3.89801">
        <ele>118.2172600059</ele>
        <time>2021-03-07T18:06:14.809Z</time>
      </trkpt>
      <trkpt lat="48.1918" lon="-3.89804">
        <ele>116.85217647329</ele>
        <time>2021-03-07T18:06:22.182Z</time>
      </trkpt>
      <trkpt lat="48.19175" lon="-3.89823">
        <ele>115.27410584259</ele>
        <time>2021-03-07T18:06:29.558Z</time>
      </trkpt>
      <trkpt lat="48.19179" lon="-3.89929">
        <ele>113.35540324921</ele>
        <time>2021-03-07T18:06:36.945Z</time>
      </trkpt>
      <trkpt lat="48.19184" lon="-3.90035">
        <ele>111.30863530336</ele>
        <time>2021-03-07T18:06:44.343Z</time>
      </trkpt>
      <trkpt lat="48.19188" lon="-3.90141">
        <ele>109.2916561993</ele>
        <time>2021-03-07T18:06:51.753Z</time>
      </trkpt>
      <trkpt lat="48.19192" lon="-3.90247">
        <ele>107.22943050985</ele>
        <time>2021-03-07T18:06:59.174Z</time>
      </trkpt>
      <trkpt lat="48.19193" lon="-3.90317">
        <ele>105.22741195326</ele>
        <time>2021-03-07T18:07:06.603Z</time>
      </trkpt>
      <trkpt lat="48.19193" lon="-3.90388">
        <ele>103.37079773397</ele>
        <time>2021-03-07T18:07:14.039Z</time>
      </trkpt>
      <trkpt lat="48.19193" lon="-3.90389">
        <ele>101.76025032483</ele>
        <time>2021-03-07T18:07:21.475Z</time>
      </trkpt>
      <trkpt lat="48.19194" lon="-3.90493">
        <ele>100.28658648734</ele>
        <time>2021-03-07T18:07:28.922Z</time>
      </trkpt>
      <trkpt lat="48.19194" lon="-3.90597">
        <ele>99.12543903283</ele>
        <time>2021-03-07T18:07:36.381Z</time>
      </trkpt>
      <trkpt lat="48.19195" lon="-3.90701">
        <ele>98.02149712245</ele>
        <time>2021-03-07T18:07:43.851Z</time>
      </trkpt>
      <trkpt lat="48.19203" lon="-3.90811">
        <ele>97.04375981044</ele>
        <time>2021-03-07T18:07:51.333Z</time>
      </trkpt>
      <trkpt lat="48.19213" lon="-3.90883">
        <ele>96.12793161222</ele>
        <time>2021-03-07T18:07:58.822Z</time>
      </trkpt>
      <trkpt lat="48.19214" lon="-3.90918">
        <ele>95.26435594844</ele>
        <time>2021-03-07T18:08:06.315Z</time>
      </trkpt>
      <trkpt lat="48.19206" lon="-3.90965">
        <ele>94.36449075068</ele>
        <time>2021-03-07T18:08:13.813Z</time>
      </trkpt>
      <trkpt lat="48.1917" lon="-3.91088">
        <ele>93.55291713118</ele>
        <time>2021-03-07T18:08:21.326Z</time>
      </trkpt>
      <trkpt lat="48.1916" lon="-3.91156">
        <ele>93.05557681842</ele>
        <time>2021-03-07T18:08:28.846Z</time>
      </trkpt>
      <trkpt lat="48.19149" lon="-3.91224">
        <ele>92.44135472036</ele>
        <time>2021-03-07T18:08:36.374Z</time>
      </trkpt>
      <trkpt lat="48.19128" lon="-3.91339">
        <ele>91.88893963452</ele>
        <time>2021-03-07T18:08:43.915Z</time>
      </trkpt>
      <trkpt lat="48.19106" lon="-3.91454">
        <ele>91.62458069032</ele>
        <time>2021-03-07T18:08:51.468Z</time>
      </trkpt>
      <trkpt lat="48.19092" lon="-3.91558">
        <ele>91.14044942515</ele>
        <time>2021-03-07T18:08:59.033Z</time>
      </trkpt>
      <trkpt lat="48.1909" lon="-3.91652">
        <ele>90.47825961468</ele>
        <time>2021-03-07T18:09:06.608Z</time>
      </trkpt>
      <trkpt lat="48.19067" lon="-3.91739">
        <ele>89.8064821686</ele>
        <time>2021-03-07T18:09:14.193Z</time>
      </trkpt>
      <trkpt lat="48.19044" lon="-3.91826">
        <ele>89.15215838711</ele>
        <time>2021-03-07T18:09:21.788Z</time>
      </trkpt>
      <trkpt lat="48.19008" lon="-3.91921">
        <ele>88.33823974594</ele>
        <time>2021-03-07T18:09:29.394Z</time>
      </trkpt>
      <trkpt lat="48.18982" lon="-3.92015">
        <ele>87.39393915178</ele>
        <time>2021-03-07T18:09:37.011Z</time>
      </trkpt>
      <trkpt lat="48.18977" lon="-3.92083">
        <ele>86.41274940394</ele>
        <time>2021-03-07T18:09:44.636Z</time>
      </trkpt>
      <trkpt lat="48.1897" lon="-3.92151">
        <ele>85.31698276469</ele>
        <time>2021-03-07T18:09:52.268Z</time>
      </trkpt>
      <trkpt lat="48.18963" lon="-3.92219">
        <ele>84.08685497593</ele>
        <time>2021-03-07T18:09:59.907Z</time>
      </trkpt>
      <trkpt lat="48.18968" lon="-3.92261">
        <ele>82.77007893957</ele>
        <time>2021-03-07T18:10:07.551Z</time>
      </trkpt>
      <trkpt lat="48.18976" lon="-3.92278">
        <ele>81.36552556787</ele>
        <time>2021-03-07T18:10:15.197Z</time>
      </trkpt>
      <trkpt lat="48.18999" lon="-3.92301">
        <ele>79.76698355338</ele>
        <time>2021-03-07T18:10:22.848Z</time>
      </trkpt>
      <trkpt lat="48.19055" lon="-3.9233">
        <ele>77.92625226991</ele>
        <time>2021-03-07T18:10:30.508Z</time>
      </trkpt>
      <trkpt lat="48.19065" lon="-3.92337">
        <ele>76.06106305611</ele>
        <time>2021-03-07T18:10:38.170Z</time>
      </trkpt>
      <trkpt lat="48.19087" lon="-3.92355">
        <ele>74.01256119247</ele>
        <time>2021-03-07T18:10:45.836Z</time>
      </trkpt>
      <trkpt lat="48.19099" lon="-3.92401">
        <ele>71.85302620446</ele>
        <time>2021-03-07T18:10:53.507Z</time>
      </trkpt>
      <trkpt lat="48.19104" lon="-3.92428">
        <ele>69.48926889303</ele>
        <time>2021-03-07T18:11:01.181Z</time>
      </trkpt>
      <trkpt lat="48.19116" lon="-3.92527">
        <ele>66.89757238034</ele>
        <time>2021-03-07T18:11:08.866Z</time>
      </trkpt>
      <trkpt lat="48.19119" lon="-3.92595">
        <ele>64.08960754399</ele>
        <time>2021-03-07T18:11:16.558Z</time>
      </trkpt>
      <trkpt lat="48.19116" lon="-3.92644">
        <ele>61.10180282191</ele>
        <time>2021-03-07T18:11:24.256Z</time>
      </trkpt>
      <trkpt lat="48.19111" lon="-3.92721">
        <ele>57.98525028696</ele>
        <time>2021-03-07T18:11:31.962Z</time>
      </trkpt>
      <trkpt lat="48.19105" lon="-3.92798">
        <ele>54.79191297249</ele>
        <time>2021-03-07T18:11:39.676Z</time>
      </trkpt>
      <trkpt lat="48.19106" lon="-3.92877">
        <ele>51.65743444881</ele>
        <time>2021-03-07T18:11:47.399Z</time>
      </trkpt>
      <trkpt lat="48.19115" lon="-3.92994">
        <ele>48.44237333723</ele>
        <time>2021-03-07T18:11:55.134Z</time>
      </trkpt>
      <trkpt lat="48.19112" lon="-3.93081">
        <ele>45.42763800121</ele>
        <time>2021-03-07T18:12:02.878Z</time>
      </trkpt>
      <trkpt lat="48.19105" lon="-3.93178">
        <ele>42.23042243743</ele>
        <time>2021-03-07T18:12:10.633Z</time>
      </trkpt>
      <trkpt lat="48.19097" lon="-3.9322">
        <ele>39.23236942343</ele>
        <time>2021-03-07T18:12:18.393Z</time>
      </trkpt>
      <trkpt lat="48.19097" lon="-3.93221">
        <ele>36.57914608461</ele>
        <time>2021-03-07T18:12:26.153Z</time>
      </trkpt>
      <trkpt lat="48.19085" lon="-3.93265">
        <ele>33.97865798316</ele>
        <time>2021-03-07T18:12:33.918Z</time>
      </trkpt>
      <trkpt lat="48.19073" lon="-3.93291">
        <ele>31.72341812484</ele>
        <time>2021-03-07T18:12:41.686Z</time>
      </trkpt>
      <trkpt lat="48.1905" lon="-3.93315">
        <ele>29.86449809381</ele>
        <time>2021-03-07T18:12:49.459Z</time>
      </trkpt>
      <trkpt lat="48.19033" lon="-3.93327">
        <ele>28.40640020781</ele>
        <time>2021-03-07T18:12:57.235Z</time>
      </trkpt>
      <trkpt lat="48.18992" lon="-3.93369">
        <ele>27.22269135363</ele>
        <time>2021-03-07T18:13:05.019Z</time>
      </trkpt>
      <trkpt lat="48.1894" lon="-3.93424">
        <ele>26.45461744761</ele>
        <time>2021-03-07T18:13:12.813Z</time>
      </trkpt>
      <trkpt lat="48.18887" lon="-3.93478">
        <ele>26.26523108417</ele>
        <time>2021-03-07T18:13:20.617Z</time>
      </trkpt>
      <trkpt lat="48.18876" lon="-3.93494">
        <ele>26.55446327064</ele>
        <time>2021-03-07T18:13:28.424Z</time>
      </trkpt>
      <trkpt lat="48.18851" lon="-3.93509">
        <ele>27.36060225184</ele>
        <time>2021-03-07T18:13:36.235Z</time>
      </trkpt>
      <trkpt lat="48.18875" lon="-3.93583">
        <ele>28.53820057795</ele>
        <time>2021-03-07T18:13:44.055Z</time>
      </trkpt>
      <trkpt lat="48.18898" lon="-3.93658">
        <ele>30.11935493728</ele>
        <time>2021-03-07T18:13:51.884Z</time>
      </trkpt>
      <trkpt lat="48.18901" lon="-3.937">
        <ele>32.11986011693</ele>
        <time>2021-03-07T18:13:59.717Z</time>
      </trkpt>
      <trkpt lat="48.18897" lon="-3.9374">
        <ele>34.53540681205</ele>
        <time>2021-03-07T18:14:07.554Z</time>
      </trkpt>
      <trkpt lat="48.18885" lon="-3.93811">
        <ele>37.41780963005</ele>
        <time>2021-03-07T18:14:15.399Z</time>
      </trkpt>
      <trkpt lat="48.18873" lon="-3.93881">
        <ele>40.33247076575</ele>
        <time>2021-03-07T18:14:23.252Z</time>
      </trkpt>
      <trkpt lat="48.18866" lon="-3.93941">
        <ele>43.24144928476</ele>
        <time>2021-03-07T18:14:31.111Z</time>
      </trkpt>
      <trkpt lat="48.18847" lon="-3.94032">
        <ele>46.20331782057</ele>
        <time>2021-03-07T18:14:38.981Z</time>
      </trkpt>
      <trkpt lat="48.18823" lon="-3.94131">
        <ele>49.25713141688</ele>
        <time>2021-03-07T18:14:46.862Z</time>
      </trkpt>
      <trkpt lat="48.18787" lon="-3.9424">
        <ele>52.26930867826</ele>
        <time>2021-03-07T18:14:54.756Z</time>
      </trkpt>
      <trkpt lat="48.1875" lon="-3.94348">
        <ele>54.92135996211</ele>
        <time>2021-03-07T18:15:02.663Z</time>
      </trkpt>
      <trkpt lat="48.18728" lon="-3.94433">
        <ele>57.40360388638</ele>
        <time>2021-03-07T18:15:10.580Z</time>
      </trkpt>
      <trkpt lat="48.18706" lon="-3.94519">
        <ele>59.52046328426</ele>
        <time>2021-03-07T18:15:18.507Z</time>
      </trkpt>
      <trkpt lat="48.18684" lon="-3.94604">
        <ele>61.42429684527</ele>
        <time>2021-03-07T18:15:26.443Z</time>
      </trkpt>
      <trkpt lat="48.18659" lon="-3.94676">
        <ele>63.33486960934</ele>
        <time>2021-03-07T18:15:34.388Z</time>
      </trkpt>
      <trkpt lat="48.18633" lon="-3.94733">
        <ele>64.89281986644</ele>
        <time>2021-03-07T18:15:42.340Z</time>
      </trkpt>
      <trkpt lat="48.18606" lon="-3.9479">
        <ele>66.43955548332</ele>
        <time>2021-03-07T18:15:50.300Z</time>
      </trkpt>
      <trkpt lat="48.18591" lon="-3.94818">
        <ele>68.06626749219</ele>
        <time>2021-03-07T18:15:58.264Z</time>
      </trkpt>
      <trkpt lat="48.18543" lon="-3.94877">
        <ele>69.59759925905</ele>
        <time>2021-03-07T18:16:06.238Z</time>
      </trkpt>
      <trkpt lat="48.18489" lon="-3.94923">
        <ele>71.13942903535</ele>
        <time>2021-03-07T18:16:14.222Z</time>
      </trkpt>
      <trkpt lat="48.18434" lon="-3.94968">
        <ele>72.76155769262</ele>
        <time>2021-03-07T18:16:22.216Z</time>
      </trkpt>
      <trkpt lat="48.18404" lon="-3.94999">
        <ele>74.40987136963</ele>
        <time>2021-03-07T18:16:30.216Z</time>
      </trkpt>
      <trkpt lat="48.18377" lon="-3.95032">
        <ele>76.07685087552</ele>
        <time>2021-03-07T18:16:38.221Z</time>
      </trkpt>
      <trkpt lat="48.18333" lon="-3.95116">
        <ele>77.71157701444</ele>
        <time>2021-03-07T18:16:46.238Z</time>
      </trkpt>
      <trkpt lat="48.18289" lon="-3.952">
        <ele>79.37760233315</ele>
        <time>2021-03-07T18:16:54.266Z</time>
      </trkpt>
      <trkpt lat="48.1826" lon="-3.95262">
        <ele>80.85777169924</ele>
        <time>2021-03-07T18:17:02.302Z</time>
      </trkpt>
      <trkpt lat="48.18231" lon="-3.95324">
        <ele>82.346639</ele>
        <time>2021-03-07T18:17:10.346Z</time>
      </trkpt>
      <trkpt lat="48.18218" lon="-3.95355">
        <ele>83.67135438997</ele>
        <time>2021-03-07T18:17:18.394Z</time>
      </trkpt>
      <trkpt lat="48.18217" lon="-3.95355">
        <ele>84.74353679806</ele>
        <time>2021-03-07T18:17:26.442Z</time>
      </trkpt>
      <trkpt lat="48.18207" lon="-3.95387">
        <ele>85.70052212902</ele>
        <time>2021-03-07T18:17:34.494Z</time>
      </trkpt>
      <trkpt lat="48.18198" lon="-3.95435">
        <ele>86.51019167888</ele>
        <time>2021-03-07T18:17:42.551Z</time>
      </trkpt>
      <trkpt lat="48.18191" lon="-3.95519">
        <ele>87.0552913344</ele>
        <time>2021-03-07T18:17:50.617Z</time>
      </trkpt>
      <trkpt lat="48.18183" lon="-3.95603">
        <ele>87.4120820269</ele>
        <time>2021-03-07T18:17:58.692Z</time>
      </trkpt>
      <trkpt lat="48.18175" lon="-3.95638">
        <ele>87.74551655493</ele>
        <time>2021-03-07T18:18:06.771Z</time>
      </trkpt>
      <trkpt lat="48.18165" lon="-3.95676">
        <ele>87.90091962094</ele>
        <time>2021-03-07T18:18:14.855Z</time>
      </trkpt>
      <trkpt lat="48.18151" lon="-3.95709">
        <ele>87.96455956659</ele>
        <time>2021-03-07T18:18:22.943Z</time>
      </trkpt>
      <trkpt lat="48.18112" lon="-3.95815">
        <ele>88.07896999281</ele>
        <time>2021-03-07T18:18:31.044Z</time>
      </trkpt>
      <trkpt lat="48.18072" lon="-3.95921">
        <ele>88.31812424542</ele>
        <time>2021-03-07T18:18:39.158Z</time>
      </trkpt>
      <trkpt lat="48.18061" lon="-3.95976">
        <ele>88.33666854297</ele>
        <time>2021-03-07T18:18:47.278Z</time>
      </trkpt>
      <trkpt lat="48.18054" lon="-3.96048">
        <ele>88.25885390528</ele>
        <time>2021-03-07T18:18:55.406Z</time>
      </trkpt>
      <trkpt lat="48.18046" lon="-3.9612">
        <ele>88.04948853857</ele>
        <time>2021-03-07T18:19:03.542Z</time>
      </trkpt>
      <trkpt lat="48.18044" lon="-3.96199">
        <ele>87.7755379711</ele>
        <time>2021-03-07T18:19:11.686Z</time>
      </trkpt>
      <trkpt lat="48.18029" lon="-3.96206">
        <ele>87.57230206215</ele>
        <time>2021-03-07T18:19:19.833Z</time>
      </trkpt>
      <trkpt lat="48.17981" lon="-3.96209">
        <ele>87.40475268677</ele>
        <time>2021-03-07T18:19:27.987Z</time>
      </trkpt>
      <trkpt lat="48.17933" lon="-3.96211">
        <ele>87.1383454617</ele>
        <time>2021-03-07T18:19:36.149Z</time>
      </trkpt>
      <trkpt lat="48.17886" lon="-3.96215">
        <ele>86.8696845624</ele>
        <time>2021-03-07T18:19:44.319Z</time>
      </trkpt>
      <trkpt lat="48.1784" lon="-3.96219">
        <ele>86.65694305234</ele>
        <time>2021-03-07T18:19:52.496Z</time>
      </trkpt>
      <trkpt lat="48.17793" lon="-3.9622">
        <ele>86.59221471124</ele>
        <time>2021-03-07T18:20:00.680Z</time>
      </trkpt>
      <trkpt lat="48.17747" lon="-3.9622">
        <ele>86.80158634193</ele>
        <time>2021-03-07T18:20:08.872Z</time>
      </trkpt>
      <trkpt lat="48.17701" lon="-3.96221">
        <ele>87.16172248968</ele>
        <time>2021-03-07T18:20:17.071Z</time>
      </trkpt>
      <trkpt lat="48.1767" lon="-3.96227">
        <ele>87.59724708747</ele>
        <time>2021-03-07T18:20:25.275Z</time>
      </trkpt>
      <trkpt lat="48.17621" lon="-3.96246">
        <ele>88.13342781752</ele>
        <time>2021-03-07T18:20:33.487Z</time>
      </trkpt>
      <trkpt lat="48.17572" lon="-3.96265">
        <ele>88.71781675927</ele>
        <time>2021-03-07T18:20:41.707Z</time>
      </trkpt>
      <trkpt lat="48.17528" lon="-3.96274">
        <ele>89.30424057402</ele>
        <time>2021-03-07T18:20:49.935Z</time>
      </trkpt>
      <trkpt lat="48.17469" lon="-3.96288">
        <ele>89.76347629573</ele>
        <time>2021-03-07T18:20:58.172Z</time>
      </trkpt>
      <trkpt lat="48.17413" lon="-3.9631">
        <ele>90.10445887326</ele>
        <time>2021-03-07T18:21:06.418Z</time>
      </trkpt>
      <trkpt lat="48.17384" lon="-3.96328">
        <ele>90.19910767421</ele>
        <time>2021-03-07T18:21:14.669Z</time>
      </trkpt>
      <trkpt lat="48.17369" lon="-3.96342">
        <ele>90.1012263876</ele>
        <time>2021-03-07T18:21:22.923Z</time>
      </trkpt>
      <trkpt lat="48.17354" lon="-3.96362">
        <ele>89.83469505596</ele>
        <time>2021-03-07T18:21:31.181Z</time>
      </trkpt>
      <trkpt lat="48.17338" lon="-3.96407">
        <ele>89.39192878614</ele>
        <time>2021-03-07T18:21:39.444Z</time>
      </trkpt>
      <trkpt lat="48.17312" lon="-3.96491">
        <ele>88.70174160271</ele>
        <time>2021-03-07T18:21:47.717Z</time>
      </trkpt>
      <trkpt lat="48.17297" lon="-3.96531">
        <ele>87.95043520714</ele>
        <time>2021-03-07T18:21:55.995Z</time>
      </trkpt>
      <trkpt lat="48.17269" lon="-3.96584">
        <ele>87.1833879723</ele>
        <time>2021-03-07T18:22:04.280Z</time>
      </trkpt>
      <trkpt lat="48.17233" lon="-3.96639">
        <ele>86.29985884757</ele>
        <time>2021-03-07T18:22:12.573Z</time>
      </trkpt>
      <trkpt lat="48.17196" lon="-3.96694">
        <ele>85.47591823815</ele>
        <time>2021-03-07T18:22:20.875Z</time>
      </trkpt>
      <trkpt lat="48.17161" lon="-3.96745">
        <ele>84.71621917364</ele>
        <time>2021-03-07T18:22:29.184Z</time>
      </trkpt>
      <trkpt lat="48.1716" lon="-3.96745">
        <ele>84.21018847297</ele>
        <time>2021-03-07T18:22:37.494Z</time>
      </trkpt>
      <trkpt lat="48.17121" lon="-3.96808">
        <ele>83.84570131092</ele>
        <time>2021-03-07T18:22:45.813Z</time>
      </trkpt>
      <trkpt lat="48.17106" lon="-3.9685">
        <ele>83.78879830776</ele>
        <time>2021-03-07T18:22:54.137Z</time>
      </trkpt>
      <trkpt lat="48.17095" lon="-3.96891">
        <ele>83.9351417052</ele>
        <time>2021-03-07T18:23:02.466Z</time>
      </trkpt>
      <trkpt lat="48.17098" lon="-3.96916">
        <ele>84.26820794858</ele>
        <time>2021-03-07T18:23:10.797Z</time>
      </trkpt>
      <trkpt lat="48.17058" lon="-3.97006">
        <ele>85.32817649297</ele>
        <time>2021-03-07T18:23:19.140Z</time>
      </trkpt>
      <trkpt lat="48.17022" lon="-3.97103">
        <ele>86.4050773423</ele>
        <time>2021-03-07T18:23:27.495Z</time>
      </trkpt>
      <trkpt lat="48.17006" lon="-3.97167">
        <ele>87.54983796516</ele>
        <time>2021-03-07T18:23:35.857Z</time>
      </trkpt>
      <trkpt lat="48.16981" lon="-3.97284">
        <ele>89.0467588973</ele>
        <time>2021-03-07T18:23:44.232Z</time>
      </trkpt>
      <trkpt lat="48.16971" lon="-3.97314">
        <ele>90.73013256307</ele>
        <time>2021-03-07T18:23:52.611Z</time>
      </trkpt>
      <trkpt lat="48.16952" lon="-3.97297">
        <ele>92.64647662401</ele>
        <time>2021-03-07T18:24:00.993Z</time>
      </trkpt>
      <trkpt lat="48.16946" lon="-3.97284">
        <ele>94.6807251272</ele>
        <time>2021-03-07T18:24:09.377Z</time>
      </trkpt>
      <trkpt lat="48.16942" lon="-3.97269">
        <ele>96.89100100495</ele>
        <time>2021-03-07T18:24:17.763Z</time>
      </trkpt>
      <trkpt lat="48.16933" lon="-3.97204">
        <ele>99.26991925965</ele>
        <time>2021-03-07T18:24:26.156Z</time>
      </trkpt>
      <trkpt lat="48.16923" lon="-3.9718">
        <ele>101.89708528211</ele>
        <time>2021-03-07T18:24:34.552Z</time>
      </trkpt>
      <trkpt lat="48.16875" lon="-3.97143">
        <ele>104.94332568247</ele>
        <time>2021-03-07T18:24:42.957Z</time>
      </trkpt>
      <trkpt lat="48.16847" lon="-3.97128">
        <ele>107.94924369323</ele>
        <time>2021-03-07T18:24:51.366Z</time>
      </trkpt>
      <trkpt lat="48.16833" lon="-3.97133">
        <ele>110.99382633356</ele>
        <time>2021-03-07T18:24:59.778Z</time>
      </trkpt>
      <trkpt lat="48.16814" lon="-3.97162">
        <ele>114.1685145414</ele>
        <time>2021-03-07T18:25:08.194Z</time>
      </trkpt>
      <trkpt lat="48.16781" lon="-3.97255">
        <ele>117.51679158739</ele>
        <time>2021-03-07T18:25:16.621Z</time>
      </trkpt>
      <trkpt lat="48.16768" lon="-3.97284">
        <ele>120.77378424376</ele>
        <time>2021-03-07T18:25:25.052Z</time>
      </trkpt>
      <trkpt lat="48.16753" lon="-3.97298">
        <ele>124.11775940808</ele>
        <time>2021-03-07T18:25:33.486Z</time>
      </trkpt>
      <trkpt lat="48.16745" lon="-3.97296">
        <ele>127.50176842523</ele>
        <time>2021-03-07T18:25:41.921Z</time>
      </trkpt>
      <trkpt lat="48.16735" lon="-3.97283">
        <ele>130.9904213753</ele>
        <time>2021-03-07T18:25:50.358Z</time>
      </trkpt>
      <trkpt lat="48.1672" lon="-3.97171">
        <ele>134.61164780451</ele>
        <time>2021-03-07T18:25:58.808Z</time>
      </trkpt>
      <trkpt lat="48.16705" lon="-3.9706">
        <ele>138.47962354674</ele>
        <time>2021-03-07T18:26:07.270Z</time>
      </trkpt>
      <trkpt lat="48.16694" lon="-3.97007">
        <ele>141.99227405812</ele>
        <time>2021-03-07T18:26:15.738Z</time>
      </trkpt>
      <trkpt lat="48.16672" lon="-3.9694">
        <ele>145.6310355073</ele>
        <time>2021-03-07T18:26:24.214Z</time>
      </trkpt>
      <trkpt lat="48.16652" lon="-3.96898">
        <ele>149.26443015907</ele>
        <time>2021-03-07T18:26:32.695Z</time>
      </trkpt>
      <trkpt lat="48.16588" lon="-3.96835">
        <ele>153.09200945775</ele>
        <time>2021-03-07T18:26:41.188Z</time>
      </trkpt>
      <trkpt lat="48.16553" lon="-3.96789">
        <ele>156.71198520624</ele>
        <time>2021-03-07T18:26:49.689Z</time>
      </trkpt>
      <trkpt lat="48.16528" lon="-3.96741">
        <ele>160.14515694195</ele>
        <time>2021-03-07T18:26:58.196Z</time>
      </trkpt>
      <trkpt lat="48.16504" lon="-3.96676">
        <ele>163.43363790375</ele>
        <time>2021-03-07T18:27:06.711Z</time>
      </trkpt>
      <trkpt lat="48.16479" lon="-3.96611">
        <ele>166.77724298978</ele>
        <time>2021-03-07T18:27:15.234Z</time>
      </trkpt>
      <trkpt lat="48.16467" lon="-3.96586">
        <ele>170.12953942662</ele>
        <time>2021-03-07T18:27:23.761Z</time>
      </trkpt>
      <trkpt lat="48.16453" lon="-3.96565">
        <ele>173.52487749093</ele>
        <time>2021-03-07T18:27:32.291Z</time>
      </trkpt>
      <trkpt lat="48.16433" lon="-3.96552">
        <ele>176.92928054715</ele>
        <time>2021-03-07T18:27:40.824Z</time>
      </trkpt>
      <trkpt lat="48.16362" lon="-3.96535">
        <ele>180.49799219263</ele>
        <time>2021-03-07T18:27:49.369Z</time>
      </trkpt>
      <trkpt lat="48.16291" lon="-3.96518">
        <ele>184.11429195124</ele>
        <time>2021-03-07T18:27:57.925Z</time>
      </trkpt>
      <trkpt lat="48.1622" lon="-3.96501">
        <ele>187.98884201812</ele>
        <time>2021-03-07T18:28:06.493Z</time>
      </trkpt>
      <trkpt lat="48.16149" lon="-3.96484">
        <ele>191.61660452694</ele>
        <time>2021-03-07T18:28:15.072Z</time>
      </trkpt>
      <trkpt lat="48.16148" lon="-3.96484">
        <ele>195.1681977361</ele>
        <time>2021-03-07T18:28:23.652Z</time>
      </trkpt>
      <trkpt lat="48.16089" lon="-3.9647">
        <ele>198.87129339527</ele>
        <time>2021-03-07T18:28:32.241Z</time>
      </trkpt>
      <trkpt lat="48.16058" lon="-3.96448">
        <ele>202.47690214251</ele>
        <time>2021-03-07T18:28:40.836Z</time>
      </trkpt>
      <trkpt lat="48.16028" lon="-3.96403">
        <ele>205.8748987498</ele>
        <time>2021-03-07T18:28:49.437Z</time>
      </trkpt>
      <trkpt lat="48.15975" lon="-3.96307">
        <ele>209.14462099763</ele>
        <time>2021-03-07T18:28:58.052Z</time>
      </trkpt>
      <trkpt lat="48.15921" lon="-3.9621">
        <ele>212.13112911721</ele>
        <time>2021-03-07T18:29:06.680Z</time>
      </trkpt>
      <trkpt lat="48.15868" lon="-3.96114">
        <ele>214.78085864085</ele>
        <time>2021-03-07T18:29:15.322Z</time>
      </trkpt>
      <trkpt lat="48.15856" lon="-3.96098">
        <ele>216.76220679132</ele>
        <time>2021-03-07T18:29:23.966Z</time>
      </trkpt>
      <trkpt lat="48.15841" lon="-3.96084">
        <ele>218.2687429477</ele>
        <time>2021-03-07T18:29:32.613Z</time>
      </trkpt>
      <trkpt lat="48.15803" lon="-3.96077">
        <ele>219.31607862514</ele>
        <time>2021-03-07T18:29:41.266Z</time>
      </trkpt>
      <trkpt lat="48.15779" lon="-3.96076">
        <ele>219.75213279466</ele>
        <time>2021-03-07T18:29:49.923Z</time>
      </trkpt>
      <trkpt lat="48.15745" lon="-3.96067">
        <ele>219.60484154241</ele>
        <time>2021-03-07T18:29:58.586Z</time>
      </trkpt>
      <trkpt lat="48.15695" lon="-3.9605">
        <ele>218.80634103425</ele>
        <time>2021-03-07T18:30:07.257Z</time>
      </trkpt>
      <trkpt lat="48.15654" lon="-3.96042">
        <ele>217.34182738564</ele>
        <time>2021-03-07T18:30:15.934Z</time>
      </trkpt>
      <trkpt lat="48.15632" lon="-3.96038">
        <ele>215.46796372387</ele>
        <time>2021-03-07T18:30:24.615Z</time>
      </trkpt>
      <trkpt lat="48.15608" lon="-3.96038">
        <ele>213.13415720142</ele>
        <time>2021-03-07T18:30:33.300Z</time>
      </trkpt>
      <trkpt lat="48.15523" lon="-3.96044">
        <ele>210.22474213671</ele>
        <time>2021-03-07T18:30:41.998Z</time>
      </trkpt>
      <trkpt lat="48.15438" lon="-3.9605">
        <ele>207.18563533452</ele>
        <time>2021-03-07T18:30:50.710Z</time>
      </trkpt>
      <trkpt lat="48.15381" lon="-3.96044">
        <ele>203.99272757949</ele>
        <time>2021-03-07T18:30:59.431Z</time>
      </trkpt>
      <trkpt lat="48.15361" lon="-3.96038">
        <ele>200.91136406405</ele>
        <time>2021-03-07T18:31:08.155Z</time>
      </trkpt>
      <trkpt lat="48.15343" lon="-3.96037">
        <ele>198.00557515922</ele>
        <time>2021-03-07T18:31:16.882Z</time>
      </trkpt>
      <trkpt lat="48.15314" lon="-3.96029">
        <ele>195.29515418331</ele>
        <time>2021-03-07T18:31:25.614Z</time>
      </trkpt>
      <trkpt lat="48.15271" lon="-3.96008">
        <ele>192.8683830216</ele>
        <time>2021-03-07T18:31:34.353Z</time>
      </trkpt>
      <trkpt lat="48.15228" lon="-3.95988">
        <ele>190.81164152306</ele>
        <time>2021-03-07T18:31:43.099Z</time>
      </trkpt>
      <trkpt lat="48.15158" lon="-3.95948">
        <ele>189.12374820678</ele>
        <time>2021-03-07T18:31:51.857Z</time>
      </trkpt>
      <trkpt lat="48.15088" lon="-3.95909">
        <ele>188.05822872481</ele>
        <time>2021-03-07T18:32:00.627Z</time>
      </trkpt>
      <trkpt lat="48.15041" lon="-3.95875">
        <ele>187.66099639099</ele>
        <time>2021-03-07T18:32:09.406Z</time>
      </trkpt>
      <trkpt lat="48.14985" lon="-3.95853">
        <ele>187.75210864386</ele>
        <time>2021-03-07T18:32:18.194Z</time>
      </trkpt>
      <trkpt lat="48.14919" lon="-3.95834">
        <ele>188.42004313144</ele>
        <time>2021-03-07T18:32:26.993Z</time>
      </trkpt>
      <trkpt lat="48.14883" lon="-3.95827">
        <ele>189.61275075564</ele>
        <time>2021-03-07T18:32:35.798Z</time>
      </trkpt>
      <trkpt lat="48.14864" lon="-3.95826">
        <ele>191.23713645189</ele>
        <time>2021-03-07T18:32:44.606Z</time>
      </trkpt>
      <trkpt lat="48.14831" lon="-3.95826">
        <ele>193.29194044725</ele>
        <time>2021-03-07T18:32:53.419Z</time>
      </trkpt>
      <trkpt lat="48.14786" lon="-3.95832">
        <ele>195.69093459081</ele>
        <time>2021-03-07T18:33:02.239Z</time>
      </trkpt>
      <trkpt lat="48.14741" lon="-3.95838">
        <ele>198.50253716141</ele>
        <time>2021-03-07T18:33:11.066Z</time>
      </trkpt>
      <trkpt lat="48.14707" lon="-3.95848">
        <ele>201.37252311336</ele>
        <time>2021-03-07T18:33:19.899Z</time>
      </trkpt>
      <trkpt lat="48.14625" lon="-3.95892">
        <ele>204.2654505644</ele>
        <time>2021-03-07T18:33:28.746Z</time>
      </trkpt>
      <trkpt lat="48.14566" lon="-3.95908">
        <ele>207.05455867352</ele>
        <time>2021-03-07T18:33:37.603Z</time>
      </trkpt>
      <trkpt lat="48.14518" lon="-3.95919">
        <ele>209.67169056883</ele>
        <time>2021-03-07T18:33:46.467Z</time>
      </trkpt>
      <trkpt lat="48.1447" lon="-3.95929">
        <ele>212.11461958661</ele>
        <time>2021-03-07T18:33:55.339Z</time>
      </trkpt>
      <trkpt lat="48.14428" lon="-3.9593">
        <ele>214.24299566498</ele>
        <time>2021-03-07T18:34:04.218Z</time>
      </trkpt>
      <trkpt lat="48.14355" lon="-3.95915">
        <ele>216.18312981505</ele>
        <time>2021-03-07T18:34:13.109Z</time>
      </trkpt>
      <trkpt lat="48.14282" lon="-3.959">
        <ele>217.6609155608</ele>
        <time>2021-03-07T18:34:22.011Z</time>
      </trkpt>
      <trkpt lat="48.14218" lon="-3.9588">
        <ele>218.77205552219</ele>
        <time>2021-03-07T18:34:30.924Z</time>
      </trkpt>
      <trkpt lat="48.14153" lon="-3.9586">
        <ele>219.63258439338</ele>
        <time>2021-03-07T18:34:39.847Z</time>
      </trkpt>
      <trkpt lat="48.14122" lon="-3.95847">
        <ele>220.26769343205</ele>
        <time>2021-03-07T18:34:48.776Z</time>
      </trkpt>
      <trkpt lat="48.14057" lon="-3.95805">
        <ele>220.62997468647</ele>
        <time>2021-03-07T18:34:57.716Z</time>
      </trkpt>
      <trkpt lat="48.13987" lon="-3.95772">
        <ele>220.95596826912</ele>
        <time>2021-03-07T18:35:06.668Z</time>
      </trkpt>
      <trkpt lat="48.13956" lon="-3.95749">
        <ele>221.3041153988</ele>
        <time>2021-03-07T18:35:15.625Z</time>
      </trkpt>
      <trkpt lat="48.13933" lon="-3.95731">
        <ele>221.63767795532</ele>
        <time>2021-03-07T18:35:24.586Z</time>
      </trkpt>
      <trkpt lat="48.13905" lon="-3.95698">
        <ele>221.93661723439</ele>
        <time>2021-03-07T18:35:33.553Z</time>
      </trkpt>
      <trkpt lat="48.13878" lon="-3.95656">
        <ele>222.28817209184</ele>
        <time>2021-03-07T18:35:42.526Z</time>
      </trkpt>
      <trkpt lat="48.13856" lon="-3.95596">
        <ele>222.64991092834</ele>
        <time>2021-03-07T18:35:51.507Z</time>
      </trkpt>
      <trkpt lat="48.13839" lon="-3.95528">
        <ele>223.04478456319</ele>
        <time>2021-03-07T18:36:00.495Z</time>
      </trkpt>
      <trkpt lat="48.13822" lon="-3.95461">
        <ele>223.46431763055</ele>
        <time>2021-03-07T18:36:09.491Z</time>
      </trkpt>
      <trkpt lat="48.13802" lon="-3.9542">
        <ele>223.86065841482</ele>
        <time>2021-03-07T18:36:18.493Z</time>
      </trkpt>
      <trkpt lat="48.13785" lon="-3.954">
        <ele>224.26902274393</ele>
        <time>2021-03-07T18:36:27.498Z</time>
      </trkpt>
      <trkpt lat="48.13746" lon="-3.95384">
        <ele>224.56625084006</ele>
        <time>2021-03-07T18:36:36.510Z</time>
      </trkpt>
      <trkpt lat="48.13701" lon="-3.95447">
        <ele>225.05193396048</ele>
        <time>2021-03-07T18:36:45.531Z</time>
      </trkpt>
      <trkpt lat="48.13673" lon="-3.95482">
        <ele>225.24424503883</ele>
        <time>2021-03-07T18:36:54.558Z</time>
      </trkpt>
      <trkpt lat="48.13674" lon="-3.95482">
        <ele>225.26750651241</ele>
        <time>2021-03-07T18:37:03.585Z</time>
      </trkpt>
      <trkpt lat="48.13669" lon="-3.95489">
        <ele>225.24062406472</ele>
        <time>2021-03-07T18:37:12.613Z</time>
      </trkpt>
      <trkpt lat="48.1364" lon="-3.95516">
        <ele>225.20517991544</ele>
        <time>2021-03-07T18:37:21.647Z</time>
      </trkpt>
      <trkpt lat="48.13573" lon="-3.95568">
        <ele>225.03812053226</ele>
        <time>2021-03-07T18:37:30.693Z</time>
      </trkpt>
      <trkpt lat="48.13527" lon="-3.95607">
        <ele>224.82092162222</ele>
        <time>2021-03-07T18:37:39.747Z</time>
      </trkpt>
      <trkpt lat="48.13479" lon="-3.95657">
        <ele>224.57538010904</ele>
        <time>2021-03-07T18:37:48.811Z</time>
      </trkpt>
      <trkpt lat="48.13468" lon="-3.95666">
        <ele>224.24326658738</ele>
        <time>2021-03-07T18:37:57.877Z</time>
      </trkpt>
      <trkpt lat="48.1344" lon="-3.95675">
        <ele>223.82102214752</ele>
        <time>2021-03-07T18:38:06.947Z</time>
      </trkpt>
      <trkpt lat="48.13385" lon="-3.95677">
        <ele>223.37465005091</ele>
        <time>2021-03-07T18:38:16.026Z</time>
      </trkpt>
      <trkpt lat="48.13364" lon="-3.95688">
        <ele>222.80181766889</ele>
        <time>2021-03-07T18:38:25.109Z</time>
      </trkpt>
      <trkpt lat="48.13351" lon="-3.95699">
        <ele>222.11056913575</ele>
        <time>2021-03-07T18:38:34.194Z</time>
      </trkpt>
      <trkpt lat="48.13353" lon="-3.9572">
        <ele>221.28928315314</ele>
        <time>2021-03-07T18:38:43.281Z</time>
      </trkpt>
      <trkpt lat="48.13351" lon="-3.95758">
        <ele>220.38584781347</ele>
        <time>2021-03-07T18:38:52.372Z</time>
      </trkpt>
      <trkpt lat="48.13347" lon="-3.95775">
        <ele>219.41343321529</ele>
        <time>2021-03-07T18:39:01.465Z</time>
      </trkpt>
      <trkpt lat="48.13343" lon="-3.95784">
        <ele>218.34984049802</ele>
        <time>2021-03-07T18:39:10.560Z</time>
      </trkpt>
      <trkpt lat="48.13337" lon="-3.95795">
        <ele>217.19748248463</ele>
        <time>2021-03-07T18:39:19.656Z</time>
      </trkpt>
      <trkpt lat="48.13329" lon="-3.95802">
        <ele>215.95992920464</ele>
        <time>2021-03-07T18:39:28.754Z</time>
      </trkpt>
      <trkpt lat="48.13269" lon="-3.95829">
        <ele>214.49685397113</ele>
        <time>2021-03-07T18:39:37.862Z</time>
      </trkpt>
      <trkpt lat="48.13249" lon="-3.95844">
        <ele>213.01643161045</ele>
        <time>2021-03-07T18:39:46.973Z</time>
      </trkpt>
      <trkpt lat="48.13216" lon="-3.95891">
        <ele>211.37246633032</ele>
        <time>2021-03-07T18:39:56.092Z</time>
      </trkpt>
      <trkpt lat="48.13215" lon="-3.95891">
        <ele>209.86095024912</ele>
        <time>2021-03-07T18:40:05.211Z</time>
      </trkpt>
      <trkpt lat="48.13179" lon="-3.9594">
        <ele>208.11251631815</ele>
        <time>2021-03-07T18:40:14.337Z</time>
      </trkpt>
      <trkpt lat="48.1315" lon="-3.95965">
        <ele>206.39704526416</ele>
        <time>2021-03-07T18:40:23.469Z</time>
      </trkpt>
      <trkpt lat="48.13038" lon="-3.95998">
        <ele>204.45835874326</ele>
        <time>2021-03-07T18:40:32.619Z</time>
      </trkpt>
      <trkpt lat="48.13003" lon="-3.96001">
        <ele>202.74466177121</ele>
        <time>2021-03-07T18:40:41.775Z</time>
      </trkpt>
      <trkpt lat="48.12955" lon="-3.95993">
        <ele>200.98616311255</ele>
        <time>2021-03-07T18:40:50.938Z</time>
      </trkpt>
      <trkpt lat="48.12937" lon="-3.9599">
        <ele>199.37696972316</ele>
        <time>2021-03-07T18:41:00.104Z</time>
      </trkpt>
      <trkpt lat="48.12919" lon="-3.95991">
        <ele>197.73622239043</ele>
        <time>2021-03-07T18:41:09.273Z</time>
      </trkpt>
      <trkpt lat="48.12901" lon="-3.96005">
        <ele>196.08506745387</ele>
        <time>2021-03-07T18:41:18.445Z</time>
      </trkpt>
      <trkpt lat="48.12772" lon="-3.96134">
        <ele>193.91180812324</ele>
        <time>2021-03-07T18:41:27.642Z</time>
      </trkpt>
      <trkpt lat="48.12772" lon="-3.96134">
        <ele>192.42971051547</ele>
        <time>2021-03-07T18:41:36.839Z</time>
      </trkpt>
      <trkpt lat="48.12602" lon="-3.96309">
        <ele>191.11811384297</ele>
        <time>2021-03-07T18:41:46.069Z</time>
      </trkpt>
      <trkpt lat="48.12533" lon="-3.96395">
        <ele>189.89721926776</ele>
        <time>2021-03-07T18:41:55.314Z</time>
      </trkpt>
      <trkpt lat="48.12463" lon="-3.96492">
        <ele>188.52178277622</ele>
        <time>2021-03-07T18:42:04.574Z</time>
      </trkpt>
      <trkpt lat="48.12375" lon="-3.96586">
        <ele>187.18196394837</ele>
        <time>2021-03-07T18:42:13.851Z</time>
      </trkpt>
      <trkpt lat="48.12335" lon="-3.96642">
        <ele>185.99522924193</ele>
        <time>2021-03-07T18:42:23.137Z</time>
      </trkpt>
      <trkpt lat="48.12319" lon="-3.96657">
        <ele>184.8896533269</ele>
        <time>2021-03-07T18:42:32.426Z</time>
      </trkpt>
      <trkpt lat="48.12306" lon="-3.96663">
        <ele>183.83268070465</ele>
        <time>2021-03-07T18:42:41.717Z</time>
      </trkpt>
      <trkpt lat="48.12284" lon="-3.96668">
        <ele>182.80485135407</ele>
        <time>2021-03-07T18:42:51.012Z</time>
      </trkpt>
      <trkpt lat="48.12226" lon="-3.96685">
        <ele>181.85298702775</ele>
        <time>2021-03-07T18:43:00.316Z</time>
      </trkpt>
      <trkpt lat="48.12205" lon="-3.96698">
        <ele>180.97460375728</ele>
        <time>2021-03-07T18:43:09.624Z</time>
      </trkpt>
      <trkpt lat="48.1219" lon="-3.96713">
        <ele>180.17899794028</ele>
        <time>2021-03-07T18:43:18.935Z</time>
      </trkpt>
      <trkpt lat="48.12134" lon="-3.96788">
        <ele>179.57542461456</ele>
        <time>2021-03-07T18:43:28.258Z</time>
      </trkpt>
      <trkpt lat="48.11992" lon="-3.96943">
        <ele>178.91820984543</ele>
        <time>2021-03-07T18:43:37.609Z</time>
      </trkpt>
      <trkpt lat="48.11958" lon="-3.96968">
        <ele>178.2694053833</ele>
        <time>2021-03-07T18:43:46.966Z</time>
      </trkpt>
      <trkpt lat="48.11929" lon="-3.96998">
        <ele>177.68982196017</ele>
        <time>2021-03-07T18:43:56.329Z</time>
      </trkpt>
      <trkpt lat="48.11892" lon="-3.97046">
        <ele>177.18356272878</ele>
        <time>2021-03-07T18:44:05.700Z</time>
      </trkpt>
      <trkpt lat="48.11874" lon="-3.97061">
        <ele>176.58860813345</ele>
        <time>2021-03-07T18:44:15.074Z</time>
      </trkpt>
      <trkpt lat="48.11856" lon="-3.97074">
        <ele>175.99600765651</ele>
        <time>2021-03-07T18:44:24.451Z</time>
      </trkpt>
      <trkpt lat="48.11834" lon="-3.97084">
        <ele>175.45761410225</ele>
        <time>2021-03-07T18:44:33.832Z</time>
      </trkpt>
      <trkpt lat="48.11814" lon="-3.97089">
        <ele>174.93589508771</ele>
        <time>2021-03-07T18:44:43.216Z</time>
      </trkpt>
      <trkpt lat="48.11642" lon="-3.97092">
        <ele>174.20035270933</ele>
        <time>2021-03-07T18:44:52.628Z</time>
      </trkpt>
      <trkpt lat="48.11603" lon="-3.97099">
        <ele>173.43758310237</ele>
        <time>2021-03-07T18:45:02.046Z</time>
      </trkpt>
      <trkpt lat="48.11587" lon="-3.9711">
        <ele>172.78198420089</ele>
        <time>2021-03-07T18:45:11.467Z</time>
      </trkpt>
      <trkpt lat="48.11553" lon="-3.97146">
        <ele>172.02880085561</ele>
        <time>2021-03-07T18:45:20.895Z</time>
      </trkpt>
      <trkpt lat="48.11511" lon="-3.97192">
        <ele>171.30784356274</ele>
        <time>2021-03-07T18:45:30.331Z</time>
      </trkpt>
      <trkpt lat="48.1146" lon="-3.97233">
        <ele>170.68420452205</ele>
        <time>2021-03-07T18:45:39.776Z</time>
      </trkpt>
      <trkpt lat="48.11419" lon="-3.9726">
        <ele>170.09288228853</ele>
        <time>2021-03-07T18:45:49.228Z</time>
      </trkpt>
      <trkpt lat="48.11419" lon="-3.9726">
        <ele>169.49904964372</ele>
        <time>2021-03-07T18:45:58.680Z</time>
      </trkpt>
      <trkpt lat="48.11392" lon="-3.97278">
        <ele>168.9012043699</ele>
        <time>2021-03-07T18:46:08.137Z</time>
      </trkpt>
      <trkpt lat="48.11344" lon="-3.97326">
        <ele>168.28942355182</ele>
        <time>2021-03-07T18:46:17.603Z</time>
      </trkpt>
      <trkpt lat="48.11313" lon="-3.9735">
        <ele>167.65666596329</ele>
        <time>2021-03-07T18:46:27.075Z</time>
      </trkpt>
      <trkpt lat="48.11196" lon="-3.97439">
        <ele>166.9060423413</ele>
        <time>2021-03-07T18:46:36.568Z</time>
      </trkpt>
      <trkpt lat="48.11114" lon="-3.9748">
        <ele>166.30943120713</ele>
        <time>2021-03-07T18:46:46.075Z</time>
      </trkpt>
      <trkpt lat="48.11007" lon="-3.97571">
        <ele>165.51118726609</ele>
        <time>2021-03-07T18:46:55.601Z</time>
      </trkpt>
      <trkpt lat="48.1094" lon="-3.97655">
        <ele>164.8184982819</ele>
        <time>2021-03-07T18:47:05.141Z</time>
      </trkpt>
      <trkpt lat="48.10912" lon="-3.97676">
        <ele>164.19177495976</ele>
        <time>2021-03-07T18:47:14.686Z</time>
      </trkpt>
      <trkpt lat="48.10901" lon="-3.97677">
        <ele>163.5652584341</ele>
        <time>2021-03-07T18:47:24.233Z</time>
      </trkpt>
      <trkpt lat="48.10901" lon="-3.97677">
        <ele>162.94405540084</ele>
        <time>2021-03-07T18:47:33.780Z</time>
      </trkpt>
      <trkpt lat="48.10889" lon="-3.97678">
        <ele>162.32029516102</ele>
        <time>2021-03-07T18:47:43.329Z</time>
      </trkpt>
      <trkpt lat="48.10864" lon="-3.97662">
        <ele>161.6402456875</ele>
        <time>2021-03-07T18:47:52.883Z</time>
      </trkpt>
      <trkpt lat="48.10818" lon="-3.97621">
        <ele>160.89139635741</ele>
        <time>2021-03-07T18:48:02.445Z</time>
      </trkpt>
      <trkpt lat="48.1079" lon="-3.97613">
        <ele>160.13120681051</ele>
        <time>2021-03-07T18:48:12.012Z</time>
      </trkpt>
      <trkpt lat="48.10754" lon="-3.97611">
        <ele>159.41661832063</ele>
        <time>2021-03-07T18:48:21.584Z</time>
      </trkpt>
      <trkpt lat="48.10708" lon="-3.97624">
        <ele>158.82419102834</ele>
        <time>2021-03-07T18:48:31.164Z</time>
      </trkpt>
      <trkpt lat="48.10665" lon="-3.97644">
        <ele>158.28208516826</ele>
        <time>2021-03-07T18:48:40.751Z</time>
      </trkpt>
      <trkpt lat="48.10632" lon="-3.97653">
        <ele>157.64549381684</ele>
        <time>2021-03-07T18:48:50.344Z</time>
      </trkpt>
      <trkpt lat="48.1063" lon="-3.97647">
        <ele>156.90911095576</ele>
        <time>2021-03-07T18:48:59.937Z</time>
      </trkpt>
      <trkpt lat="48.10624" lon="-3.97647">
        <ele>156.1498009606</ele>
        <time>2021-03-07T18:49:09.531Z</time>
      </trkpt>
      <trkpt lat="48.10624" lon="-3.97647">
        <ele>155.36653536777</ele>
        <time>2021-03-07T18:49:19.125Z</time>
      </trkpt>
      <trkpt lat="48.10621" lon="-3.9765">
        <ele>154.55667686885</ele>
        <time>2021-03-07T18:49:28.720Z</time>
      </trkpt>
      <trkpt lat="48.1062" lon="-3.97657">
        <ele>153.7120147381</ele>
        <time>2021-03-07T18:49:38.315Z</time>
      </trkpt>
      <trkpt lat="48.10561" lon="-3.97681">
        <ele>152.68958712884</ele>
        <time>2021-03-07T18:49:47.920Z</time>
      </trkpt>
      <trkpt lat="48.10526" lon="-3.97702">
        <ele>151.71545138964</ele>
        <time>2021-03-07T18:49:57.531Z</time>
      </trkpt>
      <trkpt lat="48.10455" lon="-3.97743">
        <ele>150.74148612035</ele>
        <time>2021-03-07T18:50:07.154Z</time>
      </trkpt>
      <trkpt lat="48.10422" lon="-3.97781">
        <ele>149.68422448451</ele>
        <time>2021-03-07T18:50:16.784Z</time>
      </trkpt>
      <trkpt lat="48.10407" lon="-3.97801">
        <ele>148.62111198446</ele>
        <time>2021-03-07T18:50:26.417Z</time>
      </trkpt>
      <trkpt lat="48.10382" lon="-3.97797">
        <ele>147.50785674843</ele>
        <time>2021-03-07T18:50:36.054Z</time>
      </trkpt>
      <trkpt lat="48.10368" lon="-3.97791">
        <ele>146.39773317606</ele>
        <time>2021-03-07T18:50:45.694Z</time>
      </trkpt>
      <trkpt lat="48.10339" lon="-3.97892">
        <ele>145.32832766892</ele>
        <time>2021-03-07T18:50:55.345Z</time>
      </trkpt>
      <trkpt lat="48.10328" lon="-3.9793">
        <ele>144.21071241205</ele>
        <time>2021-03-07T18:51:05.001Z</time>
      </trkpt>
      <trkpt lat="48.1032" lon="-3.97959">
        <ele>143.05303912921</ele>
        <time>2021-03-07T18:51:14.660Z</time>
      </trkpt>
      <trkpt lat="48.10296" lon="-3.98042">
        <ele>141.78627418227</ele>
        <time>2021-03-07T18:51:24.329Z</time>
      </trkpt>
      <trkpt lat="48.10296" lon="-3.98042">
        <ele>140.62607218589</ele>
        <time>2021-03-07T18:51:33.998Z</time>
      </trkpt>
      <trkpt lat="48.10296" lon="-3.98042">
        <ele>141.78627418227</ele>
        <time>2021-03-07T18:51:43.667Z</time>
      </trkpt>
      <trkpt lat="48.1026" lon="-3.98161">
        <ele>136.96233570491</ele>
        <time>2021-03-07T18:51:53.350Z</time>
      </trkpt>
      <trkpt lat="48.1026" lon="-3.98161">
        <ele>135.81768900633</ele>
        <time>2021-03-07T18:52:03.033Z</time>
      </trkpt>
      <trkpt lat="48.10219" lon="-3.98284">
        <ele>134.40984024625</ele>
        <time>2021-03-07T18:52:12.731Z</time>
      </trkpt>
      <trkpt lat="48.10206" lon="-3.98323">
        <ele>133.26545328094</ele>
        <time>2021-03-07T18:52:22.433Z</time>
      </trkpt>
      <trkpt lat="48.10197" lon="-3.9835">
        <ele>132.17474513842</ele>
        <time>2021-03-07T18:52:32.139Z</time>
      </trkpt>
      <trkpt lat="48.10142" lon="-3.98549">
        <ele>130.86447744328</ele>
        <time>2021-03-07T18:52:41.868Z</time>
      </trkpt>
      <trkpt lat="48.10149" lon="-3.98555">
        <ele>129.92077173279</ele>
        <time>2021-03-07T18:52:51.598Z</time>
      </trkpt>
      <trkpt lat="48.10155" lon="-3.98564">
        <ele>129.03860737064</ele>
        <time>2021-03-07T18:53:01.329Z</time>
      </trkpt>
      <trkpt lat="48.10159" lon="-3.98575">
        <ele>128.18711484442</ele>
        <time>2021-03-07T18:53:11.062Z</time>
      </trkpt>
      <trkpt lat="48.10161" lon="-3.98587">
        <ele>127.38304244929</ele>
        <time>2021-03-07T18:53:20.796Z</time>
      </trkpt>
      <trkpt lat="48.1016" lon="-3.98599">
        <ele>126.66224521464</ele>
        <time>2021-03-07T18:53:30.531Z</time>
      </trkpt>
      <trkpt lat="48.10156" lon="-3.98612">
        <ele>126.01844872754</ele>
        <time>2021-03-07T18:53:40.268Z</time>
      </trkpt>
      <trkpt lat="48.10149" lon="-3.98621">
        <ele>125.45609579264</ele>
        <time>2021-03-07T18:53:50.006Z</time>
      </trkpt>
      <trkpt lat="48.10141" lon="-3.98627">
        <ele>124.98246305225</ele>
        <time>2021-03-07T18:53:59.746Z</time>
      </trkpt>
      <trkpt lat="48.10134" lon="-3.98634">
        <ele>124.60101855543</ele>
        <time>2021-03-07T18:54:09.487Z</time>
      </trkpt>
      <trkpt lat="48.10122" lon="-3.98655">
        <ele>124.31264397801</ele>
        <time>2021-03-07T18:54:19.231Z</time>
      </trkpt>
      <trkpt lat="48.10098" lon="-3.98807">
        <ele>124.03539351559</ele>
        <time>2021-03-07T18:54:28.992Z</time>
      </trkpt>
      <trkpt lat="48.10098" lon="-3.98807">
        <ele>123.91681549225</ele>
        <time>2021-03-07T18:54:38.753Z</time>
      </trkpt>
      <trkpt lat="48.10093" lon="-3.98832">
        <ele>123.86702261151</ele>
        <time>2021-03-07T18:54:48.517Z</time>
      </trkpt>
      <trkpt lat="48.10082" lon="-3.98895">
        <ele>123.96459830969</ele>
        <time>2021-03-07T18:54:58.288Z</time>
      </trkpt>
      <trkpt lat="48.10073" lon="-3.98927">
        <ele>124.14979971688</ele>
        <time>2021-03-07T18:55:08.062Z</time>
      </trkpt>
      <trkpt lat="48.10064" lon="-3.98957">
        <ele>124.37004924098</ele>
        <time>2021-03-07T18:55:17.840Z</time>
      </trkpt>
      <trkpt lat="48.10038" lon="-3.9902">
        <ele>124.64856975235</ele>
        <time>2021-03-07T18:55:27.626Z</time>
      </trkpt>
      <trkpt lat="48.10014" lon="-3.99061">
        <ele>124.96505498355</ele>
        <time>2021-03-07T18:55:37.418Z</time>
      </trkpt>
      <trkpt lat="48.09991" lon="-3.99094">
        <ele>125.37228508431</ele>
        <time>2021-03-07T18:55:47.215Z</time>
      </trkpt>
      <trkpt lat="48.09944" lon="-3.99156">
        <ele>125.94443999065</ele>
        <time>2021-03-07T18:55:57.022Z</time>
      </trkpt>
      <trkpt lat="48.09892" lon="-3.9922">
        <ele>126.44860475428</ele>
        <time>2021-03-07T18:56:06.840Z</time>
      </trkpt>
      <trkpt lat="48.09872" lon="-3.99248">
        <ele>127.03786502049</ele>
        <time>2021-03-07T18:56:16.662Z</time>
      </trkpt>
      <trkpt lat="48.09855" lon="-3.99278">
        <ele>127.67036549429</ele>
        <time>2021-03-07T18:56:26.488Z</time>
      </trkpt>
      <trkpt lat="48.0984" lon="-3.99309">
        <ele>128.2907909332</ele>
        <time>2021-03-07T18:56:36.318Z</time>
      </trkpt>
      <trkpt lat="48.09821" lon="-3.99352">
        <ele>128.93596026962</ele>
        <time>2021-03-07T18:56:46.154Z</time>
      </trkpt>
      <trkpt lat="48.09795" lon="-3.99425">
        <ele>129.67004486534</ele>
        <time>2021-03-07T18:56:55.999Z</time>
      </trkpt>
      <trkpt lat="48.09784" lon="-3.9946">
        <ele>130.34684191911</ele>
        <time>2021-03-07T18:57:05.848Z</time>
      </trkpt>
      <trkpt lat="48.09784" lon="-3.9946">
        <ele>130.98287643156</ele>
        <time>2021-03-07T18:57:15.697Z</time>
      </trkpt>
      <trkpt lat="48.09743" lon="-3.99583">
        <ele>131.61777928568</ele>
        <time>2021-03-07T18:57:25.561Z</time>
      </trkpt>
      <trkpt lat="48.09725" lon="-3.99646">
        <ele>132.30131736654</ele>
        <time>2021-03-07T18:57:35.432Z</time>
      </trkpt>
      <trkpt lat="48.09719" lon="-3.9968">
        <ele>132.95023255322</ele>
        <time>2021-03-07T18:57:45.307Z</time>
      </trkpt>
      <trkpt lat="48.09719" lon="-3.9968">
        <ele>133.56634036349</ele>
        <time>2021-03-07T18:57:55.182Z</time>
      </trkpt>
      <trkpt lat="48.0971" lon="-3.99806">
        <ele>134.15866155933</ele>
        <time>2021-03-07T18:58:05.070Z</time>
      </trkpt>
      <trkpt lat="48.09703" lon="-3.99932">
        <ele>134.78520098117</ele>
        <time>2021-03-07T18:58:14.972Z</time>
      </trkpt>
      <trkpt lat="48.09695" lon="-4.0002">
        <ele>135.4035175644</ele>
        <time>2021-03-07T18:58:24.883Z</time>
      </trkpt>
      <trkpt lat="48.09695" lon="-4.0002">
        <ele>135.96765222774</ele>
        <time>2021-03-07T18:58:34.794Z</time>
      </trkpt>
      <trkpt lat="48.09691" lon="-4.00057">
        <ele>136.53254709237</ele>
        <time>2021-03-07T18:58:44.709Z</time>
      </trkpt>
      <trkpt lat="48.09676" lon="-4.00105">
        <ele>137.06932994074</ele>
        <time>2021-03-07T18:58:54.630Z</time>
      </trkpt>
      <trkpt lat="48.09677" lon="-4.00127">
        <ele>137.59400249811</ele>
        <time>2021-03-07T18:59:04.553Z</time>
      </trkpt>
      <trkpt lat="48.09679" lon="-4.00137">
        <ele>138.10823146972</ele>
        <time>2021-03-07T18:59:14.478Z</time>
      </trkpt>
      <trkpt lat="48.09679" lon="-4.00137">
        <ele>138.61404580188</ele>
        <time>2021-03-07T18:59:24.403Z</time>
      </trkpt>
      <trkpt lat="48.09685" lon="-4.00143">
        <ele>139.1137784706</ele>
        <time>2021-03-07T18:59:34.329Z</time>
      </trkpt>
      <trkpt lat="48.09689" lon="-4.00151">
        <ele>139.61000659673</ele>
        <time>2021-03-07T18:59:44.256Z</time>
      </trkpt>
      <trkpt lat="48.09689" lon="-4.00151">
        <ele>140.10549016171</ele>
        <time>2021-03-07T18:59:54.183Z</time>
      </trkpt>
      <trkpt lat="48.09692" lon="-4.00163">
        <ele>140.57032098384</ele>
        <time>2021-03-07T19:00:04.111Z</time>
      </trkpt>
      <trkpt lat="48.09691" lon="-4.00177">
        <ele>141.02859534077</ele>
        <time>2021-03-07T19:00:14.041Z</time>
      </trkpt>
      <trkpt lat="48.09682" lon="-4.00196">
        <ele>141.50467360144</ele>
        <time>2021-03-07T19:00:23.973Z</time>
      </trkpt>
      <trkpt lat="48.09685" lon="-4.00224">
        <ele>142.00504056897</ele>
        <time>2021-03-07T19:00:33.908Z</time>
      </trkpt>
      <trkpt lat="48.09684" lon="-4.00238">
        <ele>142.54718112435</ele>
        <time>2021-03-07T19:00:43.845Z</time>
      </trkpt>
      <trkpt lat="48.09681" lon="-4.00289">
        <ele>143.14221851461</ele>
        <time>2021-03-07T19:00:53.787Z</time>
      </trkpt>
      <trkpt lat="48.09681" lon="-4.00289">
        <ele>143.71233169461</ele>
        <time>2021-03-07T19:01:03.729Z</time>
      </trkpt>
      <trkpt lat="48.09677" lon="-4.00366">
        <ele>144.25576075214</ele>
        <time>2021-03-07T19:01:13.679Z</time>
      </trkpt>
      <trkpt lat="48.09676" lon="-4.00416">
        <ele>144.90684570328</ele>
        <time>2021-03-07T19:01:23.635Z</time>
      </trkpt>
      <trkpt lat="48.09678" lon="-4.00482">
        <ele>145.57586622323</ele>
        <time>2021-03-07T19:01:33.598Z</time>
      </trkpt>
      <trkpt lat="48.09684" lon="-4.00547">
        <ele>146.21599851678</ele>
        <time>2021-03-07T19:01:43.568Z</time>
      </trkpt>
      <trkpt lat="48.09694" lon="-4.00617">
        <ele>146.88682802916</ele>
        <time>2021-03-07T19:01:53.546Z</time>
      </trkpt>
      <trkpt lat="48.09708" lon="-4.00684">
        <ele>147.68201395658</ele>
        <time>2021-03-07T19:02:03.531Z</time>
      </trkpt>
      <trkpt lat="48.0973" lon="-4.00765">
        <ele>148.45925999532</ele>
        <time>2021-03-07T19:02:13.525Z</time>
      </trkpt>
      <trkpt lat="48.09753" lon="-4.00844">
        <ele>149.32085884143</ele>
        <time>2021-03-07T19:02:23.529Z</time>
      </trkpt>
      <trkpt lat="48.09753" lon="-4.00844">
        <ele>150.0039255226</ele>
        <time>2021-03-07T19:02:33.533Z</time>
      </trkpt>
      <trkpt lat="48.09757" lon="-4.00855">
        <ele>150.69539939931</ele>
        <time>2021-03-07T19:02:43.538Z</time>
      </trkpt>
      <trkpt lat="48.09766" lon="-4.00875">
        <ele>151.38443940672</ele>
        <time>2021-03-07T19:02:53.546Z</time>
      </trkpt>
      <trkpt lat="48.09774" lon="-4.00889">
        <ele>152.06765589536</ele>
        <time>2021-03-07T19:03:03.556Z</time>
      </trkpt>
      <trkpt lat="48.0978" lon="-4.00894">
        <ele>152.72100371442</ele>
        <time>2021-03-07T19:03:13.567Z</time>
      </trkpt>
      <trkpt lat="48.09784" lon="-4.00902">
        <ele>153.36281349599</ele>
        <time>2021-03-07T19:03:23.579Z</time>
      </trkpt>
      <trkpt lat="48.09785" lon="-4.00913">
        <ele>153.97162245624</ele>
        <time>2021-03-07T19:03:33.592Z</time>
      </trkpt>
      <trkpt lat="48.09782" lon="-4.00923">
        <ele>154.56197311884</ele>
        <time>2021-03-07T19:03:43.606Z</time>
      </trkpt>
      <trkpt lat="48.09783" lon="-4.0094">
        <ele>155.12718120399</ele>
        <time>2021-03-07T19:03:53.622Z</time>
      </trkpt>
      <trkpt lat="48.09785" lon="-4.00959">
        <ele>155.64834513202</ele>
        <time>2021-03-07T19:04:03.640Z</time>
      </trkpt>
      <trkpt lat="48.09801" lon="-4.01012">
        <ele>156.1917226557</ele>
        <time>2021-03-07T19:04:13.664Z</time>
      </trkpt>
      <trkpt lat="48.09904" lon="-4.01367">
        <ele>156.91850494072</ele>
        <time>2021-03-07T19:04:23.730Z</time>
      </trkpt>
      <trkpt lat="48.09967" lon="-4.01589">
        <ele>157.34864038011</ele>
        <time>2021-03-07T19:04:33.822Z</time>
      </trkpt>
      <trkpt lat="48.0998" lon="-4.01632">
        <ele>157.63912110457</ele>
        <time>2021-03-07T19:04:43.919Z</time>
      </trkpt>
      <trkpt lat="48.09996" lon="-4.01655">
        <ele>157.95680927972</ele>
        <time>2021-03-07T19:04:54.019Z</time>
      </trkpt>
      <trkpt lat="48.10003" lon="-4.01658">
        <ele>158.19498844281</ele>
        <time>2021-03-07T19:05:04.121Z</time>
      </trkpt>
      <trkpt lat="48.10003" lon="-4.01658">
        <ele>158.36754618308</ele>
        <time>2021-03-07T19:05:14.223Z</time>
      </trkpt>
      <trkpt lat="48.10012" lon="-4.01666">
        <ele>158.49544882987</ele>
        <time>2021-03-07T19:05:24.326Z</time>
      </trkpt>
      <trkpt lat="48.10016" lon="-4.01678">
        <ele>158.5662902954</ele>
        <time>2021-03-07T19:05:34.431Z</time>
      </trkpt>
      <trkpt lat="48.10016" lon="-4.01678">
        <ele>158.56593266954</ele>
        <time>2021-03-07T19:05:44.536Z</time>
      </trkpt>
      <trkpt lat="48.10016" lon="-4.01692">
        <ele>158.49281072274</ele>
        <time>2021-03-07T19:05:54.642Z</time>
      </trkpt>
      <trkpt lat="48.10013" lon="-4.01705">
        <ele>158.35633076754</ele>
        <time>2021-03-07T19:06:04.750Z</time>
      </trkpt>
      <trkpt lat="48.10009" lon="-4.01713">
        <ele>158.18079806618</ele>
        <time>2021-03-07T19:06:14.859Z</time>
      </trkpt>
      <trkpt lat="48.10009" lon="-4.01739">
        <ele>157.93446668228</ele>
        <time>2021-03-07T19:06:24.971Z</time>
      </trkpt>
      <trkpt lat="48.10008" lon="-4.01755">
        <ele>157.65342013281</ele>
        <time>2021-03-07T19:06:35.084Z</time>
      </trkpt>
      <trkpt lat="48.10009" lon="-4.0184">
        <ele>157.06904359255</ele>
        <time>2021-03-07T19:06:45.206Z</time>
      </trkpt>
      <trkpt lat="48.10011" lon="-4.01908">
        <ele>156.62220348383</ele>
        <time>2021-03-07T19:06:55.336Z</time>
      </trkpt>
      <trkpt lat="48.10013" lon="-4.0193">
        <ele>156.26095078703</ele>
        <time>2021-03-07T19:07:05.468Z</time>
      </trkpt>
      <trkpt lat="48.10013" lon="-4.0193">
        <ele>155.87808619471</ele>
        <time>2021-03-07T19:07:15.600Z</time>
      </trkpt>
      <trkpt lat="48.10016" lon="-4.01967">
        <ele>155.03255880776</ele>
        <time>2021-03-07T19:07:25.736Z</time>
      </trkpt>
      <trkpt lat="48.10033" lon="-4.02085">
        <ele>154.12656775428</ele>
        <time>2021-03-07T19:07:35.885Z</time>
      </trkpt>
      <trkpt lat="48.10051" lon="-4.02202">
        <ele>153.1840686599</ele>
        <time>2021-03-07T19:07:46.047Z</time>
      </trkpt>
      <trkpt lat="48.10068" lon="-4.0232">
        <ele>152.10513999416</ele>
        <time>2021-03-07T19:07:56.222Z</time>
      </trkpt>
      <trkpt lat="48.10076" lon="-4.02393">
        <ele>151.17122692643</ele>
        <time>2021-03-07T19:08:06.405Z</time>
      </trkpt>
      <trkpt lat="48.1008" lon="-4.02468">
        <ele>150.07799263255</ele>
        <time>2021-03-07T19:08:16.596Z</time>
      </trkpt>
      <trkpt lat="48.10076" lon="-4.02559">
        <ele>149.01645928549</ele>
        <time>2021-03-07T19:08:26.797Z</time>
      </trkpt>
      <trkpt lat="48.10067" lon="-4.02627">
        <ele>147.8673682511</ele>
        <time>2021-03-07T19:08:37.005Z</time>
      </trkpt>
      <trkpt lat="48.10043" lon="-4.02756">
        <ele>146.59205873844</ele>
        <time>2021-03-07T19:08:47.227Z</time>
      </trkpt>
      <trkpt lat="48.10022" lon="-4.02864">
        <ele>145.3827206256</ele>
        <time>2021-03-07T19:08:57.461Z</time>
      </trkpt>
      <trkpt lat="48.10001" lon="-4.02972">
        <ele>144.00304951794</ele>
        <time>2021-03-07T19:09:07.708Z</time>
      </trkpt>
      <trkpt lat="48.0998" lon="-4.03081">
        <ele>142.58689929683</ele>
        <time>2021-03-07T19:09:17.967Z</time>
      </trkpt>
      <trkpt lat="48.09959" lon="-4.03189">
        <ele>141.05277699747</ele>
        <time>2021-03-07T19:09:28.238Z</time>
      </trkpt>
      <trkpt lat="48.09938" lon="-4.03297">
        <ele>139.29070241688</ele>
        <time>2021-03-07T19:09:38.521Z</time>
      </trkpt>
      <trkpt lat="48.09917" lon="-4.03405">
        <ele>137.413415419</ele>
        <time>2021-03-07T19:09:48.816Z</time>
      </trkpt>
      <trkpt lat="48.09895" lon="-4.03514">
        <ele>135.54639450291</ele>
        <time>2021-03-07T19:09:59.123Z</time>
      </trkpt>
      <trkpt lat="48.09874" lon="-4.03623">
        <ele>133.62436486126</ele>
        <time>2021-03-07T19:10:09.442Z</time>
      </trkpt>
      <trkpt lat="48.09852" lon="-4.03732">
        <ele>131.68505740339</ele>
        <time>2021-03-07T19:10:19.773Z</time>
      </trkpt>
      <trkpt lat="48.09831" lon="-4.03826">
        <ele>129.66575243284</ele>
        <time>2021-03-07T19:10:30.115Z</time>
      </trkpt>
      <trkpt lat="48.0981" lon="-4.0392">
        <ele>127.61982234881</ele>
        <time>2021-03-07T19:10:40.468Z</time>
      </trkpt>
      <trkpt lat="48.09783" lon="-4.04">
        <ele>125.42566796754</ele>
        <time>2021-03-07T19:10:50.830Z</time>
      </trkpt>
      <trkpt lat="48.09758" lon="-4.04063">
        <ele>123.27760766145</ele>
        <time>2021-03-07T19:11:01.200Z</time>
      </trkpt>
      <trkpt lat="48.09713" lon="-4.04161">
        <ele>121.12279455344</ele>
        <time>2021-03-07T19:11:11.583Z</time>
      </trkpt>
      <trkpt lat="48.09667" lon="-4.04258">
        <ele>118.83659987607</ele>
        <time>2021-03-07T19:11:21.979Z</time>
      </trkpt>
      <trkpt lat="48.09622" lon="-4.04356">
        <ele>116.7770986623</ele>
        <time>2021-03-07T19:11:32.387Z</time>
      </trkpt>
      <trkpt lat="48.09593" lon="-4.04429">
        <ele>114.34284428652</ele>
        <time>2021-03-07T19:11:42.805Z</time>
      </trkpt>
      <trkpt lat="48.09561" lon="-4.04521">
        <ele>112.06825219937</ele>
        <time>2021-03-07T19:11:53.234Z</time>
      </trkpt>
      <trkpt lat="48.09529" lon="-4.04612">
        <ele>109.85138533409</ele>
        <time>2021-03-07T19:12:03.674Z</time>
      </trkpt>
      <trkpt lat="48.09518" lon="-4.04607">
        <ele>107.98315968409</ele>
        <time>2021-03-07T19:12:14.115Z</time>
      </trkpt>
      <trkpt lat="48.09512" lon="-4.04602">
        <ele>106.27499200259</ele>
        <time>2021-03-07T19:12:24.558Z</time>
      </trkpt>
      <trkpt lat="48.09518" lon="-4.04607">
        <ele>107.98315968409</ele>
        <time>2021-03-07T19:12:35.002Z</time>
      </trkpt>
      <trkpt lat="48.09529" lon="-4.04612">
        <ele>109.85138533409</ele>
        <time>2021-03-07T19:12:45.448Z</time>
      </trkpt>
      <trkpt lat="48.09493" lon="-4.04721">
        <ele>101.50318259932</ele>
        <time>2021-03-07T19:12:55.907Z</time>
      </trkpt>
      <trkpt lat="48.09458" lon="-4.04829">
        <ele>100.24615435038</ele>
        <time>2021-03-07T19:13:06.378Z</time>
      </trkpt>
      <trkpt lat="48.09422" lon="-4.04938">
        <ele>99.03162396521</ele>
        <time>2021-03-07T19:13:16.862Z</time>
      </trkpt>
      <trkpt lat="48.09394" lon="-4.05006">
        <ele>98.06903822046</ele>
        <time>2021-03-07T19:13:27.355Z</time>
      </trkpt>
      <trkpt lat="48.09366" lon="-4.05066">
        <ele>97.16802239791</ele>
        <time>2021-03-07T19:13:37.856Z</time>
      </trkpt>
      <trkpt lat="48.09337" lon="-4.05126">
        <ele>96.33218389542</ele>
        <time>2021-03-07T19:13:48.365Z</time>
      </trkpt>
      <trkpt lat="48.09307" lon="-4.05199">
        <ele>95.48613989449</ele>
        <time>2021-03-07T19:13:58.883Z</time>
      </trkpt>
      <trkpt lat="48.09276" lon="-4.05271">
        <ele>94.69298330618</ele>
        <time>2021-03-07T19:14:09.410Z</time>
      </trkpt>
      <trkpt lat="48.09266" lon="-4.05307">
        <ele>93.88359989849</ele>
        <time>2021-03-07T19:14:19.941Z</time>
      </trkpt>
      <trkpt lat="48.0925" lon="-4.05377">
        <ele>92.96919150087</ele>
        <time>2021-03-07T19:14:30.480Z</time>
      </trkpt>
      <trkpt lat="48.09244" lon="-4.05423">
        <ele>92.12124608531</ele>
        <time>2021-03-07T19:14:41.024Z</time>
      </trkpt>
      <trkpt lat="48.09242" lon="-4.05478">
        <ele>91.18643217421</ele>
        <time>2021-03-07T19:14:51.574Z</time>
      </trkpt>
      <trkpt lat="48.09243" lon="-4.05555">
        <ele>90.22099327811</ele>
        <time>2021-03-07T19:15:02.132Z</time>
      </trkpt>
      <trkpt lat="48.09244" lon="-4.05577">
        <ele>89.29058136862</ele>
        <time>2021-03-07T19:15:12.693Z</time>
      </trkpt>
      <trkpt lat="48.09256" lon="-4.05668">
        <ele>88.26769713406</ele>
        <time>2021-03-07T19:15:23.264Z</time>
      </trkpt>
      <trkpt lat="48.09276" lon="-4.05798">
        <ele>87.06585417573</ele>
        <time>2021-03-07T19:15:33.849Z</time>
      </trkpt>
      <trkpt lat="48.09296" lon="-4.05928">
        <ele>85.94527310501</ele>
        <time>2021-03-07T19:15:44.448Z</time>
      </trkpt>
      <trkpt lat="48.09302" lon="-4.05999">
        <ele>85.00845104295</ele>
        <time>2021-03-07T19:15:55.055Z</time>
      </trkpt>
      <trkpt lat="48.09306" lon="-4.06128">
        <ele>84.00558069861</ele>
        <time>2021-03-07T19:16:05.676Z</time>
      </trkpt>
      <trkpt lat="48.09303" lon="-4.06248">
        <ele>83.12701495939</ele>
        <time>2021-03-07T19:16:16.310Z</time>
      </trkpt>
      <trkpt lat="48.09299" lon="-4.06327">
        <ele>82.22780632127</ele>
        <time>2021-03-07T19:16:26.952Z</time>
      </trkpt>
      <trkpt lat="48.09298" lon="-4.064">
        <ele>81.44311129839</ele>
        <time>2021-03-07T19:16:37.602Z</time>
      </trkpt>
      <trkpt lat="48.09299" lon="-4.0643">
        <ele>80.74498788409</ele>
        <time>2021-03-07T19:16:48.255Z</time>
      </trkpt>
      <trkpt lat="48.09306" lon="-4.06491">
        <ele>80.28041425275</ele>
        <time>2021-03-07T19:16:58.915Z</time>
      </trkpt>
      <trkpt lat="48.09319" lon="-4.06557">
        <ele>79.9703336468</ele>
        <time>2021-03-07T19:17:09.582Z</time>
      </trkpt>
      <trkpt lat="48.09329" lon="-4.06597">
        <ele>79.82114237575</ele>
        <time>2021-03-07T19:17:20.254Z</time>
      </trkpt>
      <trkpt lat="48.0937" lon="-4.06712">
        <ele>79.86423435165</ele>
        <time>2021-03-07T19:17:30.940Z</time>
      </trkpt>
      <trkpt lat="48.09411" lon="-4.06827">
        <ele>79.95479329386</ele>
        <time>2021-03-07T19:17:41.640Z</time>
      </trkpt>
      <trkpt lat="48.09418" lon="-4.06867">
        <ele>80.18396448723</ele>
        <time>2021-03-07T19:17:52.344Z</time>
      </trkpt>
      <trkpt lat="48.09417" lon="-4.06914">
        <ele>80.58209031724</ele>
        <time>2021-03-07T19:18:03.053Z</time>
      </trkpt>
      <trkpt lat="48.09411" lon="-4.06984">
        <ele>81.23701185333</ele>
        <time>2021-03-07T19:18:13.770Z</time>
      </trkpt>
      <trkpt lat="48.09405" lon="-4.07054">
        <ele>81.89141851563</ele>
        <time>2021-03-07T19:18:24.495Z</time>
      </trkpt>
      <trkpt lat="48.094" lon="-4.07087">
        <ele>82.74460141478</ele>
        <time>2021-03-07T19:18:35.223Z</time>
      </trkpt>
      <trkpt lat="48.09393" lon="-4.07113">
        <ele>83.72237549001</ele>
        <time>2021-03-07T19:18:45.954Z</time>
      </trkpt>
      <trkpt lat="48.09383" lon="-4.07137">
        <ele>84.88382794725</ele>
        <time>2021-03-07T19:18:56.688Z</time>
      </trkpt>
      <trkpt lat="48.09349" lon="-4.07202">
        <ele>86.24595741744</ele>
        <time>2021-03-07T19:19:07.431Z</time>
      </trkpt>
      <trkpt lat="48.09314" lon="-4.07267">
        <ele>87.61698628451</ele>
        <time>2021-03-07T19:19:18.183Z</time>
      </trkpt>
      <trkpt lat="48.09311" lon="-4.07282">
        <ele>88.97745533681</ele>
        <time>2021-03-07T19:19:28.937Z</time>
      </trkpt>
      <trkpt lat="48.09312" lon="-4.07289">
        <ele>90.47020447619</ele>
        <time>2021-03-07T19:19:39.691Z</time>
      </trkpt>
      <trkpt lat="48.09323" lon="-4.07309">
        <ele>91.98729637319</ele>
        <time>2021-03-07T19:19:50.448Z</time>
      </trkpt>
      <trkpt lat="48.09302" lon="-4.0733">
        <ele>93.90668008905</ele>
        <time>2021-03-07T19:20:01.209Z</time>
      </trkpt>
      <trkpt lat="48.09233" lon="-4.07391">
        <ele>96.06583375462</ele>
        <time>2021-03-07T19:20:11.983Z</time>
      </trkpt>
      <trkpt lat="48.09164" lon="-4.07452">
        <ele>98.36987420656</ele>
        <time>2021-03-07T19:20:22.770Z</time>
      </trkpt>
      <trkpt lat="48.09095" lon="-4.07513">
        <ele>100.8494155952</ele>
        <time>2021-03-07T19:20:33.570Z</time>
      </trkpt>
      <trkpt lat="48.09094" lon="-4.07514">
        <ele>103.27378714623</ele>
        <time>2021-03-07T19:20:44.370Z</time>
      </trkpt>
      <trkpt lat="48.09041" lon="-4.07557">
        <ele>105.98231996922</ele>
        <time>2021-03-07T19:20:55.180Z</time>
      </trkpt>
      <trkpt lat="48.09001" lon="-4.07578">
        <ele>108.64962365419</ele>
        <time>2021-03-07T19:21:05.996Z</time>
      </trkpt>
      <trkpt lat="48.08966" lon="-4.07585">
        <ele>111.373205503</ele>
        <time>2021-03-07T19:21:16.818Z</time>
      </trkpt>
      <trkpt lat="48.08932" lon="-4.07587">
        <ele>114.18021385665</ele>
        <time>2021-03-07T19:21:27.646Z</time>
      </trkpt>
      <trkpt lat="48.08905" lon="-4.07585">
        <ele>116.95965808781</ele>
        <time>2021-03-07T19:21:38.478Z</time>
      </trkpt>
      <trkpt lat="48.08853" lon="-4.07566">
        <ele>119.67172912814</ele>
        <time>2021-03-07T19:21:49.318Z</time>
      </trkpt>
      <trkpt lat="48.08819" lon="-4.07545">
        <ele>122.22810289356</ele>
        <time>2021-03-07T19:22:00.164Z</time>
      </trkpt>
      <trkpt lat="48.08765" lon="-4.07493">
        <ele>124.73792876754</ele>
        <time>2021-03-07T19:22:11.021Z</time>
      </trkpt>
      <trkpt lat="48.0871" lon="-4.07441">
        <ele>127.12670744304</ele>
        <time>2021-03-07T19:22:21.888Z</time>
      </trkpt>
      <trkpt lat="48.08643" lon="-4.07373">
        <ele>129.38249269432</ele>
        <time>2021-03-07T19:22:32.768Z</time>
      </trkpt>
      <trkpt lat="48.08575" lon="-4.07304">
        <ele>131.41608493331</ele>
        <time>2021-03-07T19:22:43.661Z</time>
      </trkpt>
      <trkpt lat="48.08508" lon="-4.07236">
        <ele>133.13036950772</ele>
        <time>2021-03-07T19:22:54.567Z</time>
      </trkpt>
      <trkpt lat="48.08441" lon="-4.07168">
        <ele>134.45192179692</ele>
        <time>2021-03-07T19:23:05.486Z</time>
      </trkpt>
      <trkpt lat="48.08373" lon="-4.07099">
        <ele>135.35342080846</ele>
        <time>2021-03-07T19:23:16.418Z</time>
      </trkpt>
      <trkpt lat="48.08306" lon="-4.07031">
        <ele>135.65745275295</ele>
        <time>2021-03-07T19:23:27.363Z</time>
      </trkpt>
      <trkpt lat="48.08244" lon="-4.06968">
        <ele>135.71020236911</ele>
        <time>2021-03-07T19:23:38.320Z</time>
      </trkpt>
      <trkpt lat="48.08182" lon="-4.06905">
        <ele>135.34684532238</ele>
        <time>2021-03-07T19:23:49.289Z</time>
      </trkpt>
      <trkpt lat="48.08119" lon="-4.06843">
        <ele>134.34905163232</ele>
        <time>2021-03-07T19:24:00.270Z</time>
      </trkpt>
      <trkpt lat="48.08057" lon="-4.0678">
        <ele>133.20047835231</ele>
        <time>2021-03-07T19:24:11.263Z</time>
      </trkpt>
      <trkpt lat="48.08012" lon="-4.06745">
        <ele>132.02024438973</ele>
        <time>2021-03-07T19:24:22.265Z</time>
      </trkpt>
      <trkpt lat="48.07958" lon="-4.06708">
        <ele>130.79733597095</ele>
        <time>2021-03-07T19:24:33.276Z</time>
      </trkpt>
      <trkpt lat="48.0792" lon="-4.06693">
        <ele>129.54758484886</ele>
        <time>2021-03-07T19:24:44.293Z</time>
      </trkpt>
      <trkpt lat="48.07862" lon="-4.06675">
        <ele>128.36285475254</ele>
        <time>2021-03-07T19:24:55.320Z</time>
      </trkpt>
      <trkpt lat="48.07804" lon="-4.06657">
        <ele>127.28500761243</ele>
        <time>2021-03-07T19:25:06.356Z</time>
      </trkpt>
      <trkpt lat="48.0772" lon="-4.06632">
        <ele>126.12546579604</ele>
        <time>2021-03-07T19:25:17.406Z</time>
      </trkpt>
      <trkpt lat="48.07636" lon="-4.06607">
        <ele>124.77424082914</ele>
        <time>2021-03-07T19:25:28.470Z</time>
      </trkpt>
      <trkpt lat="48.07552" lon="-4.06581">
        <ele>123.39469419849</ele>
        <time>2021-03-07T19:25:39.547Z</time>
      </trkpt>
      <trkpt lat="48.07468" lon="-4.06556">
        <ele>121.8145736775</ele>
        <time>2021-03-07T19:25:50.638Z</time>
      </trkpt>
      <trkpt lat="48.07384" lon="-4.06531">
        <ele>120.11239868762</ele>
        <time>2021-03-07T19:26:01.743Z</time>
      </trkpt>
      <trkpt lat="48.07314" lon="-4.06509">
        <ele>118.42215155005</ele>
        <time>2021-03-07T19:26:12.859Z</time>
      </trkpt>
      <trkpt lat="48.07243" lon="-4.06486">
        <ele>116.90638242102</ele>
        <time>2021-03-07T19:26:23.987Z</time>
      </trkpt>
      <trkpt lat="48.07173" lon="-4.06464">
        <ele>115.16630610132</ele>
        <time>2021-03-07T19:26:35.126Z</time>
      </trkpt>
      <trkpt lat="48.07092" lon="-4.0644">
        <ele>113.43857814565</ele>
        <time>2021-03-07T19:26:46.279Z</time>
      </trkpt>
      <trkpt lat="48.07012" lon="-4.06416">
        <ele>112.08487086258</ele>
        <time>2021-03-07T19:26:57.445Z</time>
      </trkpt>
      <trkpt lat="48.06931" lon="-4.06392">
        <ele>110.62670733398</ele>
        <time>2021-03-07T19:27:08.624Z</time>
      </trkpt>
      <trkpt lat="48.06851" lon="-4.06368">
        <ele>109.55038854434</ele>
        <time>2021-03-07T19:27:19.816Z</time>
      </trkpt>
      <trkpt lat="48.0677" lon="-4.06344">
        <ele>108.53530703277</ele>
        <time>2021-03-07T19:27:31.021Z</time>
      </trkpt>
      <trkpt lat="48.06689" lon="-4.06317">
        <ele>107.70665705048</ele>
        <time>2021-03-07T19:27:42.240Z</time>
      </trkpt>
      <trkpt lat="48.06607" lon="-4.06291">
        <ele>107.06867102422</ele>
        <time>2021-03-07T19:27:53.472Z</time>
      </trkpt>
      <trkpt lat="48.06542" lon="-4.06274">
        <ele>106.55887955013</ele>
        <time>2021-03-07T19:28:04.715Z</time>
      </trkpt>
      <trkpt lat="48.06525" lon="-4.06269">
        <ele>106.29282634536</ele>
        <time>2021-03-07T19:28:15.960Z</time>
      </trkpt>
      <trkpt lat="48.06512" lon="-4.06268">
        <ele>106.24274232209</ele>
        <time>2021-03-07T19:28:27.207Z</time>
      </trkpt>
      <trkpt lat="48.06495" lon="-4.06271">
        <ele>106.42590698965</ele>
        <time>2021-03-07T19:28:38.457Z</time>
      </trkpt>
      <trkpt lat="48.06476" lon="-4.06278">
        <ele>106.7751783936</ele>
        <time>2021-03-07T19:28:49.710Z</time>
      </trkpt>
      <trkpt lat="48.06458" lon="-4.0629">
        <ele>107.30141433248</ele>
        <time>2021-03-07T19:29:00.966Z</time>
      </trkpt>
      <trkpt lat="48.06442" lon="-4.06307">
        <ele>108.01549056474</ele>
        <time>2021-03-07T19:29:12.226Z</time>
      </trkpt>
      <trkpt lat="48.06386" lon="-4.06381">
        <ele>108.95227416852</ele>
        <time>2021-03-07T19:29:23.498Z</time>
      </trkpt>
      <trkpt lat="48.06327" lon="-4.06463">
        <ele>110.01158049724</ele>
        <time>2021-03-07T19:29:34.782Z</time>
      </trkpt>
      <trkpt lat="48.06267" lon="-4.06545">
        <ele>111.15980886017</ele>
        <time>2021-03-07T19:29:46.079Z</time>
      </trkpt>
      <trkpt lat="48.06231" lon="-4.06592">
        <ele>112.39704754172</ele>
        <time>2021-03-07T19:29:57.384Z</time>
      </trkpt>
      <trkpt lat="48.06196" lon="-4.0663">
        <ele>113.85134327938</ele>
        <time>2021-03-07T19:30:08.696Z</time>
      </trkpt>
      <trkpt lat="48.06159" lon="-4.06656">
        <ele>115.37332618118</ele>
        <time>2021-03-07T19:30:20.015Z</time>
      </trkpt>
      <trkpt lat="48.0614" lon="-4.06663">
        <ele>116.74512056063</ele>
        <time>2021-03-07T19:30:31.337Z</time>
      </trkpt>
      <trkpt lat="48.06104" lon="-4.0667">
        <ele>118.03648242104</ele>
        <time>2021-03-07T19:30:42.665Z</time>
      </trkpt>
      <trkpt lat="48.06078" lon="-4.0667">
        <ele>119.29252472748</ele>
        <time>2021-03-07T19:30:53.997Z</time>
      </trkpt>
      <trkpt lat="48.06036" lon="-4.0666">
        <ele>120.47817985001</ele>
        <time>2021-03-07T19:31:05.336Z</time>
      </trkpt>
      <trkpt lat="48.05999" lon="-4.06642">
        <ele>121.64266773154</ele>
        <time>2021-03-07T19:31:16.681Z</time>
      </trkpt>
      <trkpt lat="48.0593" lon="-4.06602">
        <ele>122.84668215639</ele>
        <time>2021-03-07T19:31:28.038Z</time>
      </trkpt>
      <trkpt lat="48.05904" lon="-4.0659">
        <ele>123.8461649091</ele>
        <time>2021-03-07T19:31:39.399Z</time>
      </trkpt>
      <trkpt lat="48.05879" lon="-4.06583">
        <ele>124.69376318913</ele>
        <time>2021-03-07T19:31:50.764Z</time>
      </trkpt>
      <trkpt lat="48.05838" lon="-4.06581">
        <ele>125.48260024099</ele>
        <time>2021-03-07T19:32:02.136Z</time>
      </trkpt>
      <trkpt lat="48.0581" lon="-4.06581">
        <ele>126.08117504335</ele>
        <time>2021-03-07T19:32:13.512Z</time>
      </trkpt>
      <trkpt lat="48.05723" lon="-4.06597">
        <ele>126.49521304214</ele>
        <time>2021-03-07T19:32:24.902Z</time>
      </trkpt>
      <trkpt lat="48.05635" lon="-4.06614">
        <ele>126.54859179078</ele>
        <time>2021-03-07T19:32:36.306Z</time>
      </trkpt>
      <trkpt lat="48.05548" lon="-4.0663">
        <ele>126.33954022986</ele>
        <time>2021-03-07T19:32:47.724Z</time>
      </trkpt>
      <trkpt lat="48.05461" lon="-4.06646">
        <ele>125.95709038212</ele>
        <time>2021-03-07T19:32:59.156Z</time>
      </trkpt>
      <trkpt lat="48.05373" lon="-4.06663">
        <ele>125.26942131953</ele>
        <time>2021-03-07T19:33:10.603Z</time>
      </trkpt>
      <trkpt lat="48.05286" lon="-4.06679">
        <ele>124.37318166642</ele>
        <time>2021-03-07T19:33:22.064Z</time>
      </trkpt>
      <trkpt lat="48.0522" lon="-4.06684">
        <ele>123.28951684335</ele>
        <time>2021-03-07T19:33:33.535Z</time>
      </trkpt>
      <trkpt lat="48.05153" lon="-4.06688">
        <ele>122.20324543811</ele>
        <time>2021-03-07T19:33:45.017Z</time>
      </trkpt>
      <trkpt lat="48.05087" lon="-4.06693">
        <ele>120.85032890364</ele>
        <time>2021-03-07T19:33:56.510Z</time>
      </trkpt>
      <trkpt lat="48.05043" lon="-4.06698">
        <ele>119.40742466928</ele>
        <time>2021-03-07T19:34:08.010Z</time>
      </trkpt>
      <trkpt lat="48.04994" lon="-4.06712">
        <ele>117.78346066845</ele>
        <time>2021-03-07T19:34:19.518Z</time>
      </trkpt>
      <trkpt lat="48.04944" lon="-4.06726">
        <ele>116.11484938386</ele>
        <time>2021-03-07T19:34:31.034Z</time>
      </trkpt>
      <trkpt lat="48.04889" lon="-4.0675">
        <ele>114.33632372257</ele>
        <time>2021-03-07T19:34:42.559Z</time>
      </trkpt>
      <trkpt lat="48.04833" lon="-4.06774">
        <ele>112.47574904755</ele>
        <time>2021-03-07T19:34:54.093Z</time>
      </trkpt>
      <trkpt lat="48.04766" lon="-4.06822">
        <ele>110.70925838475</ele>
        <time>2021-03-07T19:35:05.639Z</time>
      </trkpt>
      <trkpt lat="48.04747" lon="-4.06843">
        <ele>109.01562767158</ele>
        <time>2021-03-07T19:35:17.189Z</time>
      </trkpt>
      <trkpt lat="48.04717" lon="-4.06886">
        <ele>107.26204449099</ele>
        <time>2021-03-07T19:35:28.746Z</time>
      </trkpt>
      <trkpt lat="48.04689" lon="-4.06949">
        <ele>105.62437770582</ele>
        <time>2021-03-07T19:35:40.311Z</time>
      </trkpt>
      <trkpt lat="48.04659" lon="-4.07003">
        <ele>104.24398539312</ele>
        <time>2021-03-07T19:35:51.883Z</time>
      </trkpt>
      <trkpt lat="48.04643" lon="-4.07026">
        <ele>103.00487065075</ele>
        <time>2021-03-07T19:36:03.459Z</time>
      </trkpt>
      <trkpt lat="48.04636" lon="-4.07033">
        <ele>102.00457176343</ele>
        <time>2021-03-07T19:36:15.036Z</time>
      </trkpt>
      <trkpt lat="48.04619" lon="-4.07045">
        <ele>101.21917357711</ele>
        <time>2021-03-07T19:36:26.616Z</time>
      </trkpt>
      <trkpt lat="48.04568" lon="-4.07094">
        <ele>100.6914509334</ele>
        <time>2021-03-07T19:36:38.206Z</time>
      </trkpt>
      <trkpt lat="48.04514" lon="-4.07139">
        <ele>100.44109150035</ele>
        <time>2021-03-07T19:36:49.806Z</time>
      </trkpt>
      <trkpt lat="48.04459" lon="-4.07183">
        <ele>100.51701171684</ele>
        <time>2021-03-07T19:37:01.416Z</time>
      </trkpt>
      <trkpt lat="48.04405" lon="-4.07228">
        <ele>101.00270573009</ele>
        <time>2021-03-07T19:37:13.036Z</time>
      </trkpt>
      <trkpt lat="48.04382" lon="-4.07244">
        <ele>101.7229682424</ele>
        <time>2021-03-07T19:37:24.660Z</time>
      </trkpt>
      <trkpt lat="48.04332" lon="-4.07268">
        <ele>102.77286907409</ele>
        <time>2021-03-07T19:37:36.292Z</time>
      </trkpt>
      <trkpt lat="48.04305" lon="-4.07275">
        <ele>103.92166408339</ele>
        <time>2021-03-07T19:37:47.929Z</time>
      </trkpt>
      <trkpt lat="48.04279" lon="-4.07277">
        <ele>105.16057395878</ele>
        <time>2021-03-07T19:37:59.570Z</time>
      </trkpt>
      <trkpt lat="48.04196" lon="-4.07268">
        <ele>106.41622930134</ele>
        <time>2021-03-07T19:38:11.224Z</time>
      </trkpt>
      <trkpt lat="48.04167" lon="-4.07263">
        <ele>107.68596277105</ele>
        <time>2021-03-07T19:38:22.883Z</time>
      </trkpt>
      <trkpt lat="48.04108" lon="-4.07254">
        <ele>109.10490389074</ele>
        <time>2021-03-07T19:38:34.551Z</time>
      </trkpt>
      <trkpt lat="48.04049" lon="-4.07245">
        <ele>110.35468224917</ele>
        <time>2021-03-07T19:38:46.229Z</time>
      </trkpt>
      <trkpt lat="48.04001" lon="-4.07242">
        <ele>111.42205141296</ele>
        <time>2021-03-07T19:38:57.914Z</time>
      </trkpt>
      <trkpt lat="48.03971" lon="-4.07247">
        <ele>112.3548550135</ele>
        <time>2021-03-07T19:39:09.604Z</time>
      </trkpt>
      <trkpt lat="48.03946" lon="-4.07254">
        <ele>113.0962873006</ele>
        <time>2021-03-07T19:39:21.298Z</time>
      </trkpt>
      <trkpt lat="48.03925" lon="-4.07261">
        <ele>113.65131582628</ele>
        <time>2021-03-07T19:39:32.996Z</time>
      </trkpt>
      <trkpt lat="48.03905" lon="-4.07273">
        <ele>114.00376403047</ele>
        <time>2021-03-07T19:39:44.697Z</time>
      </trkpt>
      <trkpt lat="48.03886" lon="-4.07298">
        <ele>114.13462468658</ele>
        <time>2021-03-07T19:39:56.402Z</time>
      </trkpt>
      <trkpt lat="48.03849" lon="-4.07359">
        <ele>113.973983574</ele>
        <time>2021-03-07T19:40:08.116Z</time>
      </trkpt>
      <trkpt lat="48.03828" lon="-4.07397">
        <ele>113.64764414172</ele>
        <time>2021-03-07T19:40:19.835Z</time>
      </trkpt>
      <trkpt lat="48.0382" lon="-4.07416">
        <ele>113.13540076806</ele>
        <time>2021-03-07T19:40:31.557Z</time>
      </trkpt>
      <trkpt lat="48.03814" lon="-4.07432">
        <ele>112.42012780435</ele>
        <time>2021-03-07T19:40:43.281Z</time>
      </trkpt>
      <trkpt lat="48.03805" lon="-4.07474">
        <ele>111.42236008193</ele>
        <time>2021-03-07T19:40:55.009Z</time>
      </trkpt>
      <trkpt lat="48.03797" lon="-4.07547">
        <ele>110.29432855711</ele>
        <time>2021-03-07T19:41:06.745Z</time>
      </trkpt>
      <trkpt lat="48.03789" lon="-4.07596">
        <ele>109.09640435124</ele>
        <time>2021-03-07T19:41:18.487Z</time>
      </trkpt>
      <trkpt lat="48.03779" lon="-4.07629">
        <ele>107.71012844586</ele>
        <time>2021-03-07T19:41:30.233Z</time>
      </trkpt>
      <trkpt lat="48.03749" lon="-4.07713">
        <ele>106.1286796583</ele>
        <time>2021-03-07T19:41:41.989Z</time>
      </trkpt>
      <trkpt lat="48.03718" lon="-4.07796">
        <ele>104.49085811696</ele>
        <time>2021-03-07T19:41:53.755Z</time>
      </trkpt>
      <trkpt lat="48.03703" lon="-4.07829">
        <ele>102.7020780823</ele>
        <time>2021-03-07T19:42:05.525Z</time>
      </trkpt>
      <trkpt lat="48.0369" lon="-4.07847">
        <ele>100.86265787033</ele>
        <time>2021-03-07T19:42:17.298Z</time>
      </trkpt>
      <trkpt lat="48.03663" lon="-4.07869">
        <ele>98.91715498394</ele>
        <time>2021-03-07T19:42:29.076Z</time>
      </trkpt>
      <trkpt lat="48.03636" lon="-4.07878">
        <ele>96.95765644899</ele>
        <time>2021-03-07T19:42:40.859Z</time>
      </trkpt>
      <trkpt lat="48.03607" lon="-4.07881">
        <ele>94.93958790091</ele>
        <time>2021-03-07T19:42:52.646Z</time>
      </trkpt>
      <trkpt lat="48.03522" lon="-4.07893">
        <ele>92.76639265435</ele>
        <time>2021-03-07T19:43:04.447Z</time>
      </trkpt>
      <trkpt lat="48.03436" lon="-4.07906">
        <ele>90.70396362977</ele>
        <time>2021-03-07T19:43:16.262Z</time>
      </trkpt>
      <trkpt lat="48.03351" lon="-4.07918">
        <ele>88.46939601375</ele>
        <time>2021-03-07T19:43:28.090Z</time>
      </trkpt>
      <trkpt lat="48.03324" lon="-4.07925">
        <ele>86.49503088474</ele>
        <time>2021-03-07T19:43:39.923Z</time>
      </trkpt>
      <trkpt lat="48.03294" lon="-4.07948">
        <ele>84.61174656387</ele>
        <time>2021-03-07T19:43:51.761Z</time>
      </trkpt>
      <trkpt lat="48.03245" lon="-4.08003">
        <ele>82.9370984191</ele>
        <time>2021-03-07T19:44:03.609Z</time>
      </trkpt>
      <trkpt lat="48.03195" lon="-4.08059">
        <ele>81.17590863059</ele>
        <time>2021-03-07T19:44:15.467Z</time>
      </trkpt>
      <trkpt lat="48.03146" lon="-4.08114">
        <ele>79.58279116429</ele>
        <time>2021-03-07T19:44:27.335Z</time>
      </trkpt>
      <trkpt lat="48.03116" lon="-4.08164">
        <ele>78.33732347934</ele>
        <time>2021-03-07T19:44:39.210Z</time>
      </trkpt>
      <trkpt lat="48.031" lon="-4.082">
        <ele>77.21402864445</ele>
        <time>2021-03-07T19:44:51.090Z</time>
      </trkpt>
      <trkpt lat="48.03095" lon="-4.08218">
        <ele>76.24769891736</ele>
        <time>2021-03-07T19:45:02.972Z</time>
      </trkpt>
      <trkpt lat="48.03094" lon="-4.08245">
        <ele>75.44655553164</ele>
        <time>2021-03-07T19:45:14.857Z</time>
      </trkpt>
      <trkpt lat="48.03104" lon="-4.08263">
        <ele>74.7996768257</ele>
        <time>2021-03-07T19:45:26.744Z</time>
      </trkpt>
      <trkpt lat="48.03105" lon="-4.08275">
        <ele>74.22492059897</ele>
        <time>2021-03-07T19:45:38.633Z</time>
      </trkpt>
      <trkpt lat="48.03101" lon="-4.08296">
        <ele>73.71922646946</ele>
        <time>2021-03-07T19:45:50.524Z</time>
      </trkpt>
      <trkpt lat="48.03092" lon="-4.08307">
        <ele>73.25692805344</ele>
        <time>2021-03-07T19:46:02.417Z</time>
      </trkpt>
      <trkpt lat="48.03081" lon="-4.0831">
        <ele>72.81383715991</ele>
        <time>2021-03-07T19:46:14.312Z</time>
      </trkpt>
      <trkpt lat="48.03071" lon="-4.08326">
        <ele>72.40430280814</ele>
        <time>2021-03-07T19:46:26.209Z</time>
      </trkpt>
      <trkpt lat="48.03065" lon="-4.0835">
        <ele>71.9910871185</ele>
        <time>2021-03-07T19:46:38.109Z</time>
      </trkpt>
      <trkpt lat="48.03064" lon="-4.08356">
        <ele>71.59319934545</ele>
        <time>2021-03-07T19:46:50.009Z</time>
      </trkpt>
      <trkpt lat="48.0307" lon="-4.08457">
        <ele>71.18692128791</ele>
        <time>2021-03-07T19:47:01.920Z</time>
      </trkpt>
      <trkpt lat="48.03076" lon="-4.08559">
        <ele>70.63702830264</ele>
        <time>2021-03-07T19:47:13.842Z</time>
      </trkpt>
      <trkpt lat="48.03076" lon="-4.08615">
        <ele>70.1018495525</ele>
        <time>2021-03-07T19:47:25.770Z</time>
      </trkpt>
      <trkpt lat="48.03076" lon="-4.08615">
        <ele>69.63656964479</ele>
        <time>2021-03-07T19:47:37.698Z</time>
      </trkpt>
      <trkpt lat="48.03067" lon="-4.08664">
        <ele>69.12973344213</ele>
        <time>2021-03-07T19:47:49.632Z</time>
      </trkpt>
      <trkpt lat="48.0305" lon="-4.08713">
        <ele>68.49741464105</ele>
        <time>2021-03-07T19:48:01.572Z</time>
      </trkpt>
      <trkpt lat="48.03042" lon="-4.0873">
        <ele>68.06808000004</ele>
        <time>2021-03-07T19:48:13.514Z</time>
      </trkpt>
      <trkpt lat="48.03034" lon="-4.0874">
        <ele>67.67946394295</ele>
        <time>2021-03-07T19:48:25.458Z</time>
      </trkpt>
      <trkpt lat="48.03027" lon="-4.08762">
        <ele>67.34465780662</ele>
        <time>2021-03-07T19:48:37.404Z</time>
      </trkpt>
      <trkpt lat="48.03024" lon="-4.08777">
        <ele>67.06581984875</ele>
        <time>2021-03-07T19:48:49.352Z</time>
      </trkpt>
      <trkpt lat="48.03028" lon="-4.08795">
        <ele>66.84911311093</ele>
        <time>2021-03-07T19:49:01.302Z</time>
      </trkpt>
      <trkpt lat="48.03028" lon="-4.08812">
        <ele>66.66063386777</ele>
        <time>2021-03-07T19:49:13.254Z</time>
      </trkpt>
      <trkpt lat="48.03023" lon="-4.08826">
        <ele>66.48905805209</ele>
        <time>2021-03-07T19:49:25.207Z</time>
      </trkpt>
      <trkpt lat="48.03016" lon="-4.08835">
        <ele>66.30562355986</ele>
        <time>2021-03-07T19:49:37.162Z</time>
      </trkpt>
      <trkpt lat="48.03007" lon="-4.0884">
        <ele>66.10529077389</ele>
        <time>2021-03-07T19:49:49.118Z</time>
      </trkpt>
      <trkpt lat="48.02997" lon="-4.0884">
        <ele>65.8826310503</ele>
        <time>2021-03-07T19:50:01.076Z</time>
      </trkpt>
      <trkpt lat="48.02991" lon="-4.08838">
        <ele>65.67305581815</ele>
        <time>2021-03-07T19:50:13.035Z</time>
      </trkpt>
      <trkpt lat="48.02986" lon="-4.08833">
        <ele>65.45146842989</ele>
        <time>2021-03-07T19:50:24.995Z</time>
      </trkpt>
      <trkpt lat="48.02978" lon="-4.08819">
        <ele>65.18248915275</ele>
        <time>2021-03-07T19:50:36.957Z</time>
      </trkpt>
      <trkpt lat="48.02946" lon="-4.08802">
        <ele>64.84405320056</ele>
        <time>2021-03-07T19:50:48.924Z</time>
      </trkpt>
      <trkpt lat="48.02936" lon="-4.08794">
        <ele>64.60506364171</ele>
        <time>2021-03-07T19:51:00.893Z</time>
      </trkpt>
      <trkpt lat="48.02887" lon="-4.08764">
        <ele>64.40983908339</ele>
        <time>2021-03-07T19:51:12.871Z</time>
      </trkpt>
      <trkpt lat="48.02838" lon="-4.08734">
        <ele>64.20764980197</ele>
        <time>2021-03-07T19:51:24.857Z</time>
      </trkpt>
      <trkpt lat="48.02807" lon="-4.08723">
        <ele>64.09455467943</ele>
        <time>2021-03-07T19:51:36.848Z</time>
      </trkpt>
      <trkpt lat="48.02781" lon="-4.08723">
        <ele>63.92011148255</ele>
        <time>2021-03-07T19:51:48.843Z</time>
      </trkpt>
      <trkpt lat="48.02738" lon="-4.08732">
        <ele>63.68526964028</ele>
        <time>2021-03-07T19:52:00.845Z</time>
      </trkpt>
      <trkpt lat="48.02714" lon="-4.08734">
        <ele>63.36397444098</ele>
        <time>2021-03-07T19:52:12.851Z</time>
      </trkpt>
      <trkpt lat="48.0269" lon="-4.08727">
        <ele>62.91604028133</ele>
        <time>2021-03-07T19:52:24.861Z</time>
      </trkpt>
      <trkpt lat="48.02663" lon="-4.08711">
        <ele>62.39185434611</ele>
        <time>2021-03-07T19:52:36.876Z</time>
      </trkpt>
      <trkpt lat="48.02589" lon="-4.08647">
        <ele>61.83001949115</ele>
        <time>2021-03-07T19:52:48.904Z</time>
      </trkpt>
      <trkpt lat="48.02568" lon="-4.08633">
        <ele>61.29338537824</ele>
        <time>2021-03-07T19:53:00.936Z</time>
      </trkpt>
      <trkpt lat="48.02537" lon="-4.08617">
        <ele>60.61588572349</ele>
        <time>2021-03-07T19:53:12.973Z</time>
      </trkpt>
      <trkpt lat="48.02487" lon="-4.08598">
        <ele>59.84382831962</ele>
        <time>2021-03-07T19:53:25.019Z</time>
      </trkpt>
      <trkpt lat="48.0245" lon="-4.08582">
        <ele>59.41625523933</ele>
        <time>2021-03-07T19:53:37.071Z</time>
      </trkpt>
      <trkpt lat="48.02432" lon="-4.08568">
        <ele>58.90527358359</ele>
        <time>2021-03-07T19:53:49.126Z</time>
      </trkpt>
      <trkpt lat="48.02387" lon="-4.0852">
        <ele>58.39291120248</ele>
        <time>2021-03-07T19:54:01.190Z</time>
      </trkpt>
      <trkpt lat="48.02341" lon="-4.08473">
        <ele>57.82713418903</ele>
        <time>2021-03-07T19:54:13.263Z</time>
      </trkpt>
      <trkpt lat="48.02324" lon="-4.08462">
        <ele>57.25058909454</ele>
        <time>2021-03-07T19:54:25.339Z</time>
      </trkpt>
      <trkpt lat="48.02305" lon="-4.08453">
        <ele>56.68304683005</ele>
        <time>2021-03-07T19:54:37.418Z</time>
      </trkpt>
      <trkpt lat="48.02246" lon="-4.08429">
        <ele>56.11982712304</ele>
        <time>2021-03-07T19:54:49.507Z</time>
      </trkpt>
      <trkpt lat="48.02195" lon="-4.08407">
        <ele>55.49569552854</ele>
        <time>2021-03-07T19:55:01.604Z</time>
      </trkpt>
      <trkpt lat="48.02144" lon="-4.08385">
        <ele>54.96367350356</ele>
        <time>2021-03-07T19:55:13.710Z</time>
      </trkpt>
      <trkpt lat="48.02093" lon="-4.08371">
        <ele>54.38610250159</ele>
        <time>2021-03-07T19:55:25.824Z</time>
      </trkpt>
      <trkpt lat="48.0206" lon="-4.08366">
        <ele>53.7698650543</ele>
        <time>2021-03-07T19:55:37.943Z</time>
      </trkpt>
      <trkpt lat="48.02023" lon="-4.08371">
        <ele>53.13879380996</ele>
        <time>2021-03-07T19:55:50.068Z</time>
      </trkpt>
      <trkpt lat="48.01992" lon="-4.0838">
        <ele>52.47460899476</ele>
        <time>2021-03-07T19:56:02.198Z</time>
      </trkpt>
      <trkpt lat="48.01915" lon="-4.08427">
        <ele>51.22994479118</ele>
        <time>2021-03-07T19:56:14.342Z</time>
      </trkpt>
      <trkpt lat="48.01905" lon="-4.08426">
        <ele>50.31582304696</ele>
        <time>2021-03-07T19:56:26.487Z</time>
      </trkpt>
      <trkpt lat="48.01901" lon="-4.08434">
        <ele>49.49755342843</ele>
        <time>2021-03-07T19:56:38.633Z</time>
      </trkpt>
      <trkpt lat="48.01891" lon="-4.08441">
        <ele>48.64323133646</ele>
        <time>2021-03-07T19:56:50.781Z</time>
      </trkpt>
      <trkpt lat="48.01885" lon="-4.08443">
        <ele>47.84786994636</ele>
        <time>2021-03-07T19:57:02.930Z</time>
      </trkpt>
      <trkpt lat="48.01879" lon="-4.08442">
        <ele>47.10463735414</ele>
        <time>2021-03-07T19:57:15.080Z</time>
      </trkpt>
      <trkpt lat="48.01866" lon="-4.08453">
        <ele>46.42052534136</ele>
        <time>2021-03-07T19:57:27.233Z</time>
      </trkpt>
      <trkpt lat="48.01835" lon="-4.0849">
        <ele>45.86614318815</ele>
        <time>2021-03-07T19:57:39.392Z</time>
      </trkpt>
      <trkpt lat="48.01802" lon="-4.08521">
        <ele>45.42480374018</ele>
        <time>2021-03-07T19:57:51.557Z</time>
      </trkpt>
      <trkpt lat="48.01747" lon="-4.08562">
        <ele>44.89902463163</ele>
        <time>2021-03-07T19:58:03.732Z</time>
      </trkpt>
      <trkpt lat="48.01692" lon="-4.08602">
        <ele>44.61562244146</ele>
        <time>2021-03-07T19:58:15.917Z</time>
      </trkpt>
      <trkpt lat="48.01637" lon="-4.08643">
        <ele>44.42180221299</ele>
        <time>2021-03-07T19:58:28.112Z</time>
      </trkpt>
      <trkpt lat="48.01623" lon="-4.08657">
        <ele>44.24456664245</ele>
        <time>2021-03-07T19:58:40.309Z</time>
      </trkpt>
      <trkpt lat="48.01616" lon="-4.08666">
        <ele>44.11871293579</ele>
        <time>2021-03-07T19:58:52.508Z</time>
      </trkpt>
      <trkpt lat="48.01611" lon="-4.08683">
        <ele>44.01308192518</ele>
        <time>2021-03-07T19:59:04.709Z</time>
      </trkpt>
      <trkpt lat="48.01613" lon="-4.08701">
        <ele>43.91148973806</ele>
        <time>2021-03-07T19:59:16.912Z</time>
      </trkpt>
      <trkpt lat="48.01607" lon="-4.08724">
        <ele>43.78728005363</ele>
        <time>2021-03-07T19:59:29.117Z</time>
      </trkpt>
      <trkpt lat="48.01604" lon="-4.08765">
        <ele>43.62602395843</ele>
        <time>2021-03-07T19:59:41.327Z</time>
      </trkpt>
      <trkpt lat="48.01607" lon="-4.08782">
        <ele>43.44578329065</ele>
        <time>2021-03-07T19:59:53.539Z</time>
      </trkpt>
      <trkpt lat="48.01638" lon="-4.08887">
        <ele>43.21037522848</ele>
        <time>2021-03-07T20:00:05.763Z</time>
      </trkpt>
      <trkpt lat="48.01647" lon="-4.08932">
        <ele>42.8884584789</ele>
        <time>2021-03-07T20:00:17.992Z</time>
      </trkpt>
      <trkpt lat="48.01659" lon="-4.08999">
        <ele>42.46305476288</ele>
        <time>2021-03-07T20:00:30.229Z</time>
      </trkpt>
      <trkpt lat="48.01665" lon="-4.09066">
        <ele>41.95032025483</ele>
        <time>2021-03-07T20:00:42.473Z</time>
      </trkpt>
      <trkpt lat="48.01671" lon="-4.09133">
        <ele>41.38114704077</ele>
        <time>2021-03-07T20:00:54.724Z</time>
      </trkpt>
      <trkpt lat="48.01674" lon="-4.09149">
        <ele>40.78824201131</ele>
        <time>2021-03-07T20:01:06.977Z</time>
      </trkpt>
      <trkpt lat="48.01682" lon="-4.09173">
        <ele>40.15550026653</ele>
        <time>2021-03-07T20:01:19.233Z</time>
      </trkpt>
      <trkpt lat="48.01681" lon="-4.09185">
        <ele>39.47304252601</ele>
        <time>2021-03-07T20:01:31.490Z</time>
      </trkpt>
      <trkpt lat="48.01678" lon="-4.09189">
        <ele>38.7382870448</ele>
        <time>2021-03-07T20:01:43.748Z</time>
      </trkpt>
      <trkpt lat="48.01676" lon="-4.09227">
        <ele>37.928506916</ele>
        <time>2021-03-07T20:01:56.010Z</time>
      </trkpt>
      <trkpt lat="48.01687" lon="-4.09345">
        <ele>36.96022751131</ele>
        <time>2021-03-07T20:02:08.285Z</time>
      </trkpt>
      <trkpt lat="48.01697" lon="-4.09464">
        <ele>36.04465313409</ele>
        <time>2021-03-07T20:02:20.572Z</time>
      </trkpt>
      <trkpt lat="48.01705" lon="-4.09515">
        <ele>35.13610928647</ele>
        <time>2021-03-07T20:02:32.865Z</time>
      </trkpt>
      <trkpt lat="48.01709" lon="-4.09517">
        <ele>34.26209745876</ele>
        <time>2021-03-07T20:02:45.159Z</time>
      </trkpt>
      <trkpt lat="48.01717" lon="-4.09527">
        <ele>33.39672285908</ele>
        <time>2021-03-07T20:02:57.454Z</time>
      </trkpt>
      <trkpt lat="48.01723" lon="-4.09544">
        <ele>32.4978798644</ele>
        <time>2021-03-07T20:03:09.752Z</time>
      </trkpt>
      <trkpt lat="48.01721" lon="-4.09564">
        <ele>31.56097470831</ele>
        <time>2021-03-07T20:03:22.052Z</time>
      </trkpt>
      <trkpt lat="48.01713" lon="-4.09579">
        <ele>30.58719204687</ele>
        <time>2021-03-07T20:03:34.354Z</time>
      </trkpt>
      <trkpt lat="48.017" lon="-4.09585">
        <ele>29.57558049285</ele>
        <time>2021-03-07T20:03:46.658Z</time>
      </trkpt>
      <trkpt lat="48.01691" lon="-4.09596">
        <ele>28.53532150363</ele>
        <time>2021-03-07T20:03:58.964Z</time>
      </trkpt>
      <trkpt lat="48.01683" lon="-4.09608">
        <ele>27.48412949051</ele>
        <time>2021-03-07T20:04:11.272Z</time>
      </trkpt>
      <trkpt lat="48.01665" lon="-4.09719">
        <ele>26.35609480862</ele>
        <time>2021-03-07T20:04:23.592Z</time>
      </trkpt>
      <trkpt lat="48.01648" lon="-4.09831">
        <ele>25.19122299641</ele>
        <time>2021-03-07T20:04:35.924Z</time>
      </trkpt>
      <trkpt lat="48.0163" lon="-4.09942">
        <ele>24.26622042828</ele>
        <time>2021-03-07T20:04:48.268Z</time>
      </trkpt>
      <trkpt lat="48.01626" lon="-4.09972">
        <ele>23.39714311815</ele>
        <time>2021-03-07T20:05:00.616Z</time>
      </trkpt>
      <trkpt lat="48.01624" lon="-4.10034">
        <ele>22.5286058352</ele>
        <time>2021-03-07T20:05:12.970Z</time>
      </trkpt>
      <trkpt lat="48.01627" lon="-4.1005">
        <ele>21.81911995376</ele>
        <time>2021-03-07T20:05:25.326Z</time>
      </trkpt>
      <trkpt lat="48.0164" lon="-4.10074">
        <ele>21.23450626471</ele>
        <time>2021-03-07T20:05:37.686Z</time>
      </trkpt>
      <trkpt lat="48.01642" lon="-4.10088">
        <ele>20.77793653606</ele>
        <time>2021-03-07T20:05:50.047Z</time>
      </trkpt>
      <trkpt lat="48.0164" lon="-4.10095">
        <ele>20.46900999389</ele>
        <time>2021-03-07T20:06:02.409Z</time>
      </trkpt>
      <trkpt lat="48.01634" lon="-4.10102">
        <ele>20.30761715524</ele>
        <time>2021-03-07T20:06:14.772Z</time>
      </trkpt>
      <trkpt lat="48.01623" lon="-4.10135">
        <ele>20.3099372063</ele>
        <time>2021-03-07T20:06:27.139Z</time>
      </trkpt>
      <trkpt lat="48.01626" lon="-4.1025">
        <ele>20.43163912284</ele>
        <time>2021-03-07T20:06:39.518Z</time>
      </trkpt>
      <trkpt lat="48.01622" lon="-4.10324">
        <ele>20.80023314558</ele>
        <time>2021-03-07T20:06:51.905Z</time>
      </trkpt>
      <trkpt lat="48.01618" lon="-4.10351">
        <ele>21.30634543363</ele>
        <time>2021-03-07T20:07:04.295Z</time>
      </trkpt>
      <trkpt lat="48.01599" lon="-4.10408">
        <ele>21.92452529231</ele>
        <time>2021-03-07T20:07:16.692Z</time>
      </trkpt>
      <trkpt lat="48.0158" lon="-4.10456">
        <ele>22.68060366112</ele>
        <time>2021-03-07T20:07:29.095Z</time>
      </trkpt>
      <trkpt lat="48.01549" lon="-4.10525">
        <ele>23.57392572902</ele>
        <time>2021-03-07T20:07:41.507Z</time>
      </trkpt>
      <trkpt lat="48.01517" lon="-4.10593">
        <ele>24.44415493811</ele>
        <time>2021-03-07T20:07:53.928Z</time>
      </trkpt>
      <trkpt lat="48.01508" lon="-4.10621">
        <ele>25.43101106056</ele>
        <time>2021-03-07T20:08:06.352Z</time>
      </trkpt>
      <trkpt lat="48.01501" lon="-4.10663">
        <ele>26.45145569023</ele>
        <time>2021-03-07T20:08:18.781Z</time>
      </trkpt>
      <trkpt lat="48.01501" lon="-4.10679">
        <ele>27.4195470857</ele>
        <time>2021-03-07T20:08:31.212Z</time>
      </trkpt>
      <trkpt lat="48.01504" lon="-4.10714">
        <ele>28.31848815684</ele>
        <time>2021-03-07T20:08:43.647Z</time>
      </trkpt>
      <trkpt lat="48.01509" lon="-4.10739">
        <ele>29.1726330156</ele>
        <time>2021-03-07T20:08:56.084Z</time>
      </trkpt>
      <trkpt lat="48.01526" lon="-4.10769">
        <ele>29.93669200712</ele>
        <time>2021-03-07T20:09:08.526Z</time>
      </trkpt>
      <trkpt lat="48.01537" lon="-4.10776">
        <ele>30.56731390417</ele>
        <time>2021-03-07T20:09:20.969Z</time>
      </trkpt>
      <trkpt lat="48.01539" lon="-4.10794">
        <ele>31.05757764444</ele>
        <time>2021-03-07T20:09:33.414Z</time>
      </trkpt>
      <trkpt lat="48.01535" lon="-4.10835">
        <ele>31.43794052584</ele>
        <time>2021-03-07T20:09:45.864Z</time>
      </trkpt>
      <trkpt lat="48.01544" lon="-4.10896">
        <ele>31.65920466398</ele>
        <time>2021-03-07T20:09:58.321Z</time>
      </trkpt>
      <trkpt lat="48.01556" lon="-4.10949">
        <ele>31.6146267019</ele>
        <time>2021-03-07T20:10:10.784Z</time>
      </trkpt>
      <trkpt lat="48.01566" lon="-4.10984">
        <ele>31.31057103902</ele>
        <time>2021-03-07T20:10:23.251Z</time>
      </trkpt>
      <trkpt lat="48.01574" lon="-4.11003">
        <ele>30.75949411417</ele>
        <time>2021-03-07T20:10:35.720Z</time>
      </trkpt>
      <trkpt lat="48.01587" lon="-4.11028">
        <ele>30.00351530842</ele>
        <time>2021-03-07T20:10:48.193Z</time>
      </trkpt>
      <trkpt lat="48.0161" lon="-4.1106">
        <ele>28.99293353998</ele>
        <time>2021-03-07T20:11:00.671Z</time>
      </trkpt>
      <trkpt lat="48.01628" lon="-4.11078">
        <ele>27.76494077409</ele>
        <time>2021-03-07T20:11:13.152Z</time>
      </trkpt>
      <trkpt lat="48.0165" lon="-4.11094">
        <ele>26.31207689665</ele>
        <time>2021-03-07T20:11:25.637Z</time>
      </trkpt>
      <trkpt lat="48.01667" lon="-4.11113">
        <ele>24.7041484605</ele>
        <time>2021-03-07T20:11:38.125Z</time>
      </trkpt>
      <trkpt lat="48.01674" lon="-4.1113">
        <ele>23.00259747463</ele>
        <time>2021-03-07T20:11:50.615Z</time>
      </trkpt>
      <trkpt lat="48.01681" lon="-4.11172">
        <ele>21.21611824472</ele>
        <time>2021-03-07T20:12:03.110Z</time>
      </trkpt>
      <trkpt lat="48.01678" lon="-4.11195">
        <ele>19.43243099897</ele>
        <time>2021-03-07T20:12:15.608Z</time>
      </trkpt>
      <trkpt lat="48.01653" lon="-4.11295">
        <ele>17.59353835291</ele>
        <time>2021-03-07T20:12:28.117Z</time>
      </trkpt>
      <trkpt lat="48.01628" lon="-4.11395">
        <ele>15.77076931508</ele>
        <time>2021-03-07T20:12:40.638Z</time>
      </trkpt>
      <trkpt lat="48.01615" lon="-4.11428">
        <ele>14.15757443337</ele>
        <time>2021-03-07T20:12:53.163Z</time>
      </trkpt>
      <trkpt lat="48.0157" lon="-4.11524">
        <ele>12.53393192337</ele>
        <time>2021-03-07T20:13:05.700Z</time>
      </trkpt>
      <trkpt lat="48.01559" lon="-4.11555">
        <ele>11.37429693138</ele>
        <time>2021-03-07T20:13:18.241Z</time>
      </trkpt>
      <trkpt lat="48.01554" lon="-4.11561">
        <ele>10.39092106104</ele>
        <time>2021-03-07T20:13:30.783Z</time>
      </trkpt>
      <trkpt lat="48.01545" lon="-4.11563">
        <ele>9.64422473854</ele>
        <time>2021-03-07T20:13:43.327Z</time>
      </trkpt>
      <trkpt lat="48.01499" lon="-4.11551">
        <ele>9.09164842938</ele>
        <time>2021-03-07T20:13:55.878Z</time>
      </trkpt>
      <trkpt lat="48.01426" lon="-4.11524">
        <ele>8.87355295336</ele>
        <time>2021-03-07T20:14:08.441Z</time>
      </trkpt>
      <trkpt lat="48.01387" lon="-4.11521">
        <ele>8.84584284922</ele>
        <time>2021-03-07T20:14:21.010Z</time>
      </trkpt>
      <trkpt lat="48.0135" lon="-4.11521">
        <ele>9.02519738957</ele>
        <time>2021-03-07T20:14:33.585Z</time>
      </trkpt>
      <trkpt lat="48.01323" lon="-4.11514">
        <ele>9.37503477544</ele>
        <time>2021-03-07T20:14:46.165Z</time>
      </trkpt>
      <trkpt lat="48.01303" lon="-4.11507">
        <ele>9.90096539924</ele>
        <time>2021-03-07T20:14:58.748Z</time>
      </trkpt>
      <trkpt lat="48.01255" lon="-4.1148">
        <ele>10.65625444248</ele>
        <time>2021-03-07T20:15:11.339Z</time>
      </trkpt>
      <trkpt lat="48.01236" lon="-4.11479">
        <ele>11.53144043199</ele>
        <time>2021-03-07T20:15:23.933Z</time>
      </trkpt>
      <trkpt lat="48.01187" lon="-4.11482">
        <ele>12.42260893761</ele>
        <time>2021-03-07T20:15:36.535Z</time>
      </trkpt>
      <trkpt lat="48.01176" lon="-4.11479">
        <ele>13.44773116378</ele>
        <time>2021-03-07T20:15:49.139Z</time>
      </trkpt>
      <trkpt lat="48.01167" lon="-4.11475">
        <ele>14.54028757176</ele>
        <time>2021-03-07T20:16:01.744Z</time>
      </trkpt>
      <trkpt lat="48.01141" lon="-4.11456">
        <ele>15.74091371482</ele>
        <time>2021-03-07T20:16:14.354Z</time>
      </trkpt>
      <trkpt lat="48.01124" lon="-4.11446">
        <ele>16.86571603883</ele>
        <time>2021-03-07T20:16:26.967Z</time>
      </trkpt>
      <trkpt lat="48.0107" lon="-4.11426">
        <ele>17.90383617441</ele>
        <time>2021-03-07T20:16:39.589Z</time>
      </trkpt>
      <trkpt lat="48.01017" lon="-4.11406">
        <ele>19.0252736805</ele>
        <time>2021-03-07T20:16:52.220Z</time>
      </trkpt>
      <trkpt lat="48.00992" lon="-4.11388">
        <ele>20.01998024198</ele>
        <time>2021-03-07T20:17:04.855Z</time>
      </trkpt>
      <trkpt lat="48.00962" lon="-4.1136">
        <ele>20.97126409737</ele>
        <time>2021-03-07T20:17:17.496Z</time>
      </trkpt>
      <trkpt lat="48.00945" lon="-4.11341">
        <ele>21.94340548616</ele>
        <time>2021-03-07T20:17:30.140Z</time>
      </trkpt>
      <trkpt lat="48.00913" lon="-4.11299">
        <ele>22.82427967133</ele>
        <time>2021-03-07T20:17:42.791Z</time>
      </trkpt>
      <trkpt lat="48.00894" lon="-4.11279">
        <ele>23.56629381521</ele>
        <time>2021-03-07T20:17:55.446Z</time>
      </trkpt>
      <trkpt lat="48.00844" lon="-4.11231">
        <ele>24.28235008282</ele>
        <time>2021-03-07T20:18:08.110Z</time>
      </trkpt>
      <trkpt lat="48.00827" lon="-4.11208">
        <ele>24.7744260627</ele>
        <time>2021-03-07T20:18:20.778Z</time>
      </trkpt>
      <trkpt lat="48.00814" lon="-4.11193">
        <ele>25.10252045331</ele>
        <time>2021-03-07T20:18:33.448Z</time>
      </trkpt>
      <trkpt lat="48.00789" lon="-4.11151">
        <ele>25.339346862</ele>
        <time>2021-03-07T20:18:46.124Z</time>
      </trkpt>
      <trkpt lat="48.00772" lon="-4.11128">
        <ele>25.2554662532</ele>
        <time>2021-03-07T20:18:58.804Z</time>
      </trkpt>
      <trkpt lat="48.00748" lon="-4.11101">
        <ele>24.93350626636</ele>
        <time>2021-03-07T20:19:11.489Z</time>
      </trkpt>
      <trkpt lat="48.00701" lon="-4.11043">
        <ele>24.45080499879</ele>
        <time>2021-03-07T20:19:24.184Z</time>
      </trkpt>
      <trkpt lat="48.00691" lon="-4.11036">
        <ele>23.85576285081</ele>
        <time>2021-03-07T20:19:36.880Z</time>
      </trkpt>
      <trkpt lat="48.00686" lon="-4.11026">
        <ele>23.17034431014</ele>
        <time>2021-03-07T20:19:49.578Z</time>
      </trkpt>
      <trkpt lat="48.00685" lon="-4.11017">
        <ele>22.37203173607</ele>
        <time>2021-03-07T20:20:02.277Z</time>
      </trkpt>
      <trkpt lat="48.00681" lon="-4.11019">
        <ele>21.42099757397</ele>
        <time>2021-03-07T20:20:14.976Z</time>
      </trkpt>
      <trkpt lat="48.00662" lon="-4.11022">
        <ele>20.25804040715</ele>
        <time>2021-03-07T20:20:27.679Z</time>
      </trkpt>
      <trkpt lat="48.00609" lon="-4.11018">
        <ele>19.03633167644</ele>
        <time>2021-03-07T20:20:40.390Z</time>
      </trkpt>
      <trkpt lat="48.00569" lon="-4.11022">
        <ele>17.86784929663</ele>
        <time>2021-03-07T20:20:53.107Z</time>
      </trkpt>
      <trkpt lat="48.00501" lon="-4.11026">
        <ele>16.73513991943</ele>
        <time>2021-03-07T20:21:05.835Z</time>
      </trkpt>
      <trkpt lat="48.0049" lon="-4.11029">
        <ele>15.65743017694</ele>
        <time>2021-03-07T20:21:18.565Z</time>
      </trkpt>
      <trkpt lat="48.00473" lon="-4.11024">
        <ele>14.58429123381</ele>
        <time>2021-03-07T20:21:31.298Z</time>
      </trkpt>
      <trkpt lat="48.00461" lon="-4.11009">
        <ele>13.56892065404</ele>
        <time>2021-03-07T20:21:44.033Z</time>
      </trkpt>
      <trkpt lat="48.00409" lon="-4.10954">
        <ele>12.45457556505</ele>
        <time>2021-03-07T20:21:56.779Z</time>
      </trkpt>
      <trkpt lat="48.004" lon="-4.10949">
        <ele>11.50750302738</ele>
        <time>2021-03-07T20:22:09.526Z</time>
      </trkpt>
      <trkpt lat="48.00378" lon="-4.10928">
        <ele>10.63899443252</ele>
        <time>2021-03-07T20:22:22.277Z</time>
      </trkpt>
      <trkpt lat="48.00361" lon="-4.10918">
        <ele>9.80749692854</ele>
        <time>2021-03-07T20:22:35.031Z</time>
      </trkpt>
      <trkpt lat="48.00351" lon="-4.10908">
        <ele>9.07337256047</ele>
        <time>2021-03-07T20:22:47.787Z</time>
      </trkpt>
      <trkpt lat="48.00302" lon="-4.10876">
        <ele>8.31509233331</ele>
        <time>2021-03-07T20:23:00.552Z</time>
      </trkpt>
      <trkpt lat="48.00268" lon="-4.10839">
        <ele>7.61577717755</ele>
        <time>2021-03-07T20:23:13.324Z</time>
      </trkpt>
      <trkpt lat="48.0026" lon="-4.10836">
        <ele>7.02939831967</ele>
        <time>2021-03-07T20:23:26.097Z</time>
      </trkpt>
      <trkpt lat="48.0025" lon="-4.1084">
        <ele>6.50538481616</ele>
        <time>2021-03-07T20:23:38.871Z</time>
      </trkpt>
      <trkpt lat="48.00244" lon="-4.10846">
        <ele>6.05904273391</ele>
        <time>2021-03-07T20:23:51.647Z</time>
      </trkpt>
      <trkpt lat="48.00237" lon="-4.10846">
        <ele>5.66267042093</ele>
        <time>2021-03-07T20:24:04.424Z</time>
      </trkpt>
      <trkpt lat="48.00221" lon="-4.10837">
        <ele>5.30936783587</ele>
        <time>2021-03-07T20:24:17.204Z</time>
      </trkpt>
      <trkpt lat="48.00214" lon="-4.10839">
        <ele>5.01594596409</ele>
        <time>2021-03-07T20:24:29.985Z</time>
      </trkpt>
      <trkpt lat="48.00202" lon="-4.10844">
        <ele>4.7625947312</ele>
        <time>2021-03-07T20:24:42.768Z</time>
      </trkpt>
      <trkpt lat="48.00194" lon="-4.10866">
        <ele>4.57265927011</ele>
        <time>2021-03-07T20:24:55.553Z</time>
      </trkpt>
      <trkpt lat="48.00174" lon="-4.10929">
        <ele>4.45098745847</ele>
        <time>2021-03-07T20:25:08.346Z</time>
      </trkpt>
      <trkpt lat="48.00154" lon="-4.10991">
        <ele>4.20795133645</ele>
        <time>2021-03-07T20:25:21.146Z</time>
      </trkpt>
      <trkpt lat="48.00154" lon="-4.10992">
        <ele>4.02280800061</ele>
        <time>2021-03-07T20:25:33.946Z</time>
      </trkpt>
      <trkpt lat="48.00138" lon="-4.11038">
        <ele>3.82751149333</ele>
        <time>2021-03-07T20:25:46.752Z</time>
      </trkpt>
      <trkpt lat="48.0013" lon="-4.11077">
        <ele>3.6872172535</ele>
        <time>2021-03-07T20:25:59.562Z</time>
      </trkpt>
      <trkpt lat="48.00129" lon="-4.11089">
        <ele>3.52366516806</ele>
        <time>2021-03-07T20:26:12.374Z</time>
      </trkpt>
      <trkpt lat="48.00135" lon="-4.1111">
        <ele>3.30986237766</ele>
        <time>2021-03-07T20:26:25.188Z</time>
      </trkpt>
      <trkpt lat="48.00151" lon="-4.11137">
        <ele>3.08297704175</ele>
        <time>2021-03-07T20:26:38.006Z</time>
      </trkpt>
      <trkpt lat="48.00191" lon="-4.11195">
        <ele>2.89601519102</ele>
        <time>2021-03-07T20:26:50.833Z</time>
      </trkpt>
      <trkpt lat="48.00201" lon="-4.11219">
        <ele>2.82466704924</ele>
        <time>2021-03-07T20:27:03.663Z</time>
      </trkpt>
      <trkpt lat="48.00204" lon="-4.11228">
        <ele>2.82285441719</ele>
        <time>2021-03-07T20:27:16.494Z</time>
      </trkpt>
      <trkpt lat="48.0021" lon="-4.11272">
        <ele>2.91051838042</ele>
        <time>2021-03-07T20:27:29.330Z</time>
      </trkpt>
      <trkpt lat="48.00212" lon="-4.11315">
        <ele>3.11206156705</ele>
        <time>2021-03-07T20:27:42.170Z</time>
      </trkpt>
      <trkpt lat="48.00223" lon="-4.11373">
        <ele>3.39807211167</ele>
        <time>2021-03-07T20:27:55.017Z</time>
      </trkpt>
      <trkpt lat="48.00219" lon="-4.11376">
        <ele>3.80648476158</ele>
        <time>2021-03-07T20:28:07.865Z</time>
      </trkpt>
      <trkpt lat="48.00218" lon="-4.11383">
        <ele>4.35859722403</ele>
        <time>2021-03-07T20:28:20.713Z</time>
      </trkpt>
      <trkpt lat="48.00214" lon="-4.11388">
        <ele>5.0677691819</ele>
        <time>2021-03-07T20:28:33.562Z</time>
      </trkpt>
      <trkpt lat="48.0021" lon="-4.11388">
        <ele>5.94461433988</ele>
        <time>2021-03-07T20:28:46.412Z</time>
      </trkpt>
      <trkpt lat="48.00204" lon="-4.11383">
        <ele>6.99573387906</ele>
        <time>2021-03-07T20:28:59.263Z</time>
      </trkpt>
      <trkpt lat="48.00201" lon="-4.11391">
        <ele>8.22235423016</ele>
        <time>2021-03-07T20:29:12.115Z</time>
      </trkpt>
      <trkpt lat="48.0019" lon="-4.1138">
        <ele>9.61890302121</ele>
        <time>2021-03-07T20:29:24.969Z</time>
      </trkpt>
      <trkpt lat="48.00146" lon="-4.11345">
        <ele>11.25671621027</ele>
        <time>2021-03-07T20:29:37.831Z</time>
      </trkpt>
      <trkpt lat="48.00102" lon="-4.11311">
        <ele>13.20675261139</ele>
        <time>2021-03-07T20:29:50.701Z</time>
      </trkpt>
      <trkpt lat="48.00057" lon="-4.11272">
        <ele>15.16648030839</ele>
        <time>2021-03-07T20:30:03.579Z</time>
      </trkpt>
      <trkpt lat="48.00024" lon="-4.11247">
        <ele>17.10672340797</ele>
        <time>2021-03-07T20:30:16.463Z</time>
      </trkpt>
      <trkpt lat="48.00013" lon="-4.11239">
        <ele>19.17288310614</ele>
        <time>2021-03-07T20:30:29.349Z</time>
      </trkpt>
      <trkpt lat="48.00012" lon="-4.11256">
        <ele>21.00232614123</ele>
        <time>2021-03-07T20:30:42.237Z</time>
      </trkpt>
      <trkpt lat="48.00007" lon="-4.11282">
        <ele>22.7785559101</ele>
        <time>2021-03-07T20:30:55.128Z</time>
      </trkpt>
      <trkpt lat="48.00001" lon="-4.11301">
        <ele>24.45871190707</ele>
        <time>2021-03-07T20:31:08.021Z</time>
      </trkpt>
      <trkpt lat="47.99976" lon="-4.11365">
        <ele>26.09694555241</ele>
        <time>2021-03-07T20:31:20.922Z</time>
      </trkpt>
      <trkpt lat="47.99951" lon="-4.11428">
        <ele>27.64408750757</ele>
        <time>2021-03-07T20:31:33.831Z</time>
      </trkpt>
      <trkpt lat="47.99941" lon="-4.11463">
        <ele>29.09149803624</ele>
        <time>2021-03-07T20:31:46.744Z</time>
      </trkpt>
      <trkpt lat="47.99905" lon="-4.11552">
        <ele>30.56751951451</ele>
        <time>2021-03-07T20:31:59.668Z</time>
      </trkpt>
      <trkpt lat="47.99881" lon="-4.11608">
        <ele>31.86844673772</ele>
        <time>2021-03-07T20:32:12.599Z</time>
      </trkpt>
      <trkpt lat="47.9988" lon="-4.11608">
        <ele>33.16039743602</ele>
        <time>2021-03-07T20:32:25.531Z</time>
      </trkpt>
      <trkpt lat="47.99865" lon="-4.11634">
        <ele>34.46774350826</ele>
        <time>2021-03-07T20:32:38.466Z</time>
      </trkpt>
      <trkpt lat="47.99818" lon="-4.11688">
        <ele>35.95010465208</ele>
        <time>2021-03-07T20:32:51.411Z</time>
      </trkpt>
      <trkpt lat="47.99794" lon="-4.11719">
        <ele>37.25107383732</ele>
        <time>2021-03-07T20:33:04.361Z</time>
      </trkpt>
      <trkpt lat="47.99774" lon="-4.11756">
        <ele>38.49523878554</ele>
        <time>2021-03-07T20:33:17.316Z</time>
      </trkpt>
      <trkpt lat="47.99761" lon="-4.11787">
        <ele>39.77314788203</ele>
        <time>2021-03-07T20:33:30.275Z</time>
      </trkpt>
      <trkpt lat="47.99754" lon="-4.11819">
        <ele>41.11583418718</ele>
        <time>2021-03-07T20:33:43.237Z</time>
      </trkpt>
      <trkpt lat="47.9975" lon="-4.11848">
        <ele>42.52783459136</ele>
        <time>2021-03-07T20:33:56.203Z</time>
      </trkpt>
      <trkpt lat="47.99749" lon="-4.11953">
        <ele>43.98626713884</ele>
        <time>2021-03-07T20:34:09.180Z</time>
      </trkpt>
      <trkpt lat="47.99748" lon="-4.12058">
        <ele>45.72428127357</ele>
        <time>2021-03-07T20:34:22.168Z</time>
      </trkpt>
      <trkpt lat="47.99751" lon="-4.12099">
        <ele>47.29545191206</ele>
        <time>2021-03-07T20:34:35.161Z</time>
      </trkpt>
      <trkpt lat="47.9976" lon="-4.12143">
        <ele>48.82595200911</ele>
        <time>2021-03-07T20:34:48.159Z</time>
      </trkpt>
      <trkpt lat="47.99771" lon="-4.12171">
        <ele>50.23958925792</ele>
        <time>2021-03-07T20:35:01.160Z</time>
      </trkpt>
      <trkpt lat="47.99785" lon="-4.12195">
        <ele>51.55522177504</ele>
        <time>2021-03-07T20:35:14.165Z</time>
      </trkpt>
      <trkpt lat="47.99815" lon="-4.12233">
        <ele>52.84602365138</ele>
        <time>2021-03-07T20:35:27.176Z</time>
      </trkpt>
      <trkpt lat="47.99829" lon="-4.12253">
        <ele>54.15178637211</ele>
        <time>2021-03-07T20:35:40.190Z</time>
      </trkpt>
      <trkpt lat="47.99851" lon="-4.12293">
        <ele>55.46839435219</ele>
        <time>2021-03-07T20:35:53.209Z</time>
      </trkpt>
      <trkpt lat="47.99859" lon="-4.12319">
        <ele>56.65619797802</ele>
        <time>2021-03-07T20:36:06.232Z</time>
      </trkpt>
      <trkpt lat="47.99878" lon="-4.12436">
        <ele>57.77931286557</ele>
        <time>2021-03-07T20:36:19.268Z</time>
      </trkpt>
      <trkpt lat="47.99897" lon="-4.12554">
        <ele>58.94735959324</ele>
        <time>2021-03-07T20:36:32.317Z</time>
      </trkpt>
      <trkpt lat="47.99899" lon="-4.12572">
        <ele>59.98906001258</ele>
        <time>2021-03-07T20:36:45.368Z</time>
      </trkpt>
      <trkpt lat="47.99898" lon="-4.12588">
        <ele>60.96046128464</ele>
        <time>2021-03-07T20:36:58.420Z</time>
      </trkpt>
      <trkpt lat="47.99898" lon="-4.12589">
        <ele>61.92433051762</ele>
        <time>2021-03-07T20:37:11.472Z</time>
      </trkpt>
      <trkpt lat="47.99893" lon="-4.12615">
        <ele>62.82719972153</ele>
        <time>2021-03-07T20:37:24.527Z</time>
      </trkpt>
      <trkpt lat="47.99879" lon="-4.12645">
        <ele>63.76917564043</ele>
        <time>2021-03-07T20:37:37.586Z</time>
      </trkpt>
      <trkpt lat="47.99847" lon="-4.12701">
        <ele>64.99353825676</ele>
        <time>2021-03-07T20:37:50.653Z</time>
      </trkpt>
      <trkpt lat="47.99841" lon="-4.12723">
        <ele>65.99733691153</ele>
        <time>2021-03-07T20:38:03.723Z</time>
      </trkpt>
      <trkpt lat="47.99837" lon="-4.12745">
        <ele>66.96494362276</ele>
        <time>2021-03-07T20:38:16.795Z</time>
      </trkpt>
      <trkpt lat="47.99839" lon="-4.12765">
        <ele>67.91477542981</ele>
        <time>2021-03-07T20:38:29.869Z</time>
      </trkpt>
      <trkpt lat="47.99845" lon="-4.12781">
        <ele>68.77128044456</ele>
        <time>2021-03-07T20:38:42.945Z</time>
      </trkpt>
      <trkpt lat="47.99857" lon="-4.12798">
        <ele>69.54490747323</ele>
        <time>2021-03-07T20:38:56.024Z</time>
      </trkpt>
      <trkpt lat="47.99875" lon="-4.12816">
        <ele>70.31331175582</ele>
        <time>2021-03-07T20:39:09.106Z</time>
      </trkpt>
      <trkpt lat="47.99893" lon="-4.12842">
        <ele>71.04991192899</ele>
        <time>2021-03-07T20:39:22.192Z</time>
      </trkpt>
      <trkpt lat="47.99906" lon="-4.12868">
        <ele>71.72949488883</ele>
        <time>2021-03-07T20:39:35.282Z</time>
      </trkpt>
      <trkpt lat="47.99923" lon="-4.12913">
        <ele>72.46908984607</ele>
        <time>2021-03-07T20:39:48.377Z</time>
      </trkpt>
      <trkpt lat="47.9993" lon="-4.1295">
        <ele>73.27556089037</ele>
        <time>2021-03-07T20:40:01.477Z</time>
      </trkpt>
      <trkpt lat="47.99933" lon="-4.12981">
        <ele>74.16068360724</ele>
        <time>2021-03-07T20:40:14.580Z</time>
      </trkpt>
      <trkpt lat="47.99932" lon="-4.13016">
        <ele>74.99743823827</ele>
        <time>2021-03-07T20:40:27.687Z</time>
      </trkpt>
      <trkpt lat="47.99926" lon="-4.13056">
        <ele>75.82694057886</ele>
        <time>2021-03-07T20:40:40.798Z</time>
      </trkpt>
      <trkpt lat="47.99914" lon="-4.13096">
        <ele>76.63574024266</ele>
        <time>2021-03-07T20:40:53.914Z</time>
      </trkpt>
      <trkpt lat="47.99885" lon="-4.13161">
        <ele>77.62759115915</ele>
        <time>2021-03-07T20:41:07.038Z</time>
      </trkpt>
      <trkpt lat="47.99879" lon="-4.13189">
        <ele>78.51872261331</ele>
        <time>2021-03-07T20:41:20.165Z</time>
      </trkpt>
      <trkpt lat="47.9988" lon="-4.13206">
        <ele>79.2626694569</ele>
        <time>2021-03-07T20:41:33.294Z</time>
      </trkpt>
      <trkpt lat="47.99884" lon="-4.13225">
        <ele>79.91007204249</ele>
        <time>2021-03-07T20:41:46.425Z</time>
      </trkpt>
      <trkpt lat="47.99916" lon="-4.13307">
        <ele>80.58873077012</ele>
        <time>2021-03-07T20:41:59.566Z</time>
      </trkpt>
      <trkpt lat="47.99921" lon="-4.13321">
        <ele>81.18584919034</ele>
        <time>2021-03-07T20:42:12.709Z</time>
      </trkpt>
      <trkpt lat="47.99924" lon="-4.1334">
        <ele>81.73087748113</ele>
        <time>2021-03-07T20:42:25.854Z</time>
      </trkpt>
      <trkpt lat="47.99923" lon="-4.13356">
        <ele>82.25089086239</ele>
        <time>2021-03-07T20:42:39.001Z</time>
      </trkpt>
      <trkpt lat="47.99918" lon="-4.13384">
        <ele>82.71146720196</ele>
        <time>2021-03-07T20:42:52.151Z</time>
      </trkpt>
      <trkpt lat="47.99897" lon="-4.1345">
        <ele>83.18738703235</ele>
        <time>2021-03-07T20:43:05.309Z</time>
      </trkpt>
      <trkpt lat="47.99893" lon="-4.13472">
        <ele>83.71328688289</ele>
        <time>2021-03-07T20:43:18.469Z</time>
      </trkpt>
      <trkpt lat="47.99892" lon="-4.13497">
        <ele>84.2462715282</ele>
        <time>2021-03-07T20:43:31.632Z</time>
      </trkpt>
      <trkpt lat="47.99892" lon="-4.13518">
        <ele>84.83737299397</ele>
        <time>2021-03-07T20:43:44.797Z</time>
      </trkpt>
      <trkpt lat="47.99903" lon="-4.13628">
        <ele>85.55457602633</ele>
        <time>2021-03-07T20:43:57.974Z</time>
      </trkpt>
      <trkpt lat="47.99913" lon="-4.13738">
        <ele>86.36100445222</ele>
        <time>2021-03-07T20:44:11.163Z</time>
      </trkpt>
      <trkpt lat="47.99913" lon="-4.13792">
        <ele>87.36890451962</ele>
        <time>2021-03-07T20:44:24.358Z</time>
      </trkpt>
      <trkpt lat="47.99908" lon="-4.13914">
        <ele>88.38383401758</ele>
        <time>2021-03-07T20:44:37.566Z</time>
      </trkpt>
      <trkpt lat="47.99902" lon="-4.14036">
        <ele>89.41814954157</ele>
        <time>2021-03-07T20:44:50.787Z</time>
      </trkpt>
      <trkpt lat="47.99904" lon="-4.14109">
        <ele>90.46474534665</ele>
        <time>2021-03-07T20:45:04.016Z</time>
      </trkpt>
      <trkpt lat="47.99906" lon="-4.14182">
        <ele>91.60053800471</ele>
        <time>2021-03-07T20:45:17.253Z</time>
      </trkpt>
      <trkpt lat="47.99915" lon="-4.14262">
        <ele>92.93004941766</ele>
        <time>2021-03-07T20:45:30.499Z</time>
      </trkpt>
      <trkpt lat="47.99933" lon="-4.1435">
        <ele>94.4236803111</ele>
        <time>2021-03-07T20:45:43.755Z</time>
      </trkpt>
      <trkpt lat="47.99952" lon="-4.14439">
        <ele>95.55039167703</ele>
        <time>2021-03-07T20:45:57.021Z</time>
      </trkpt>
      <trkpt lat="47.9997" lon="-4.14527">
        <ele>96.64531722789</ele>
        <time>2021-03-07T20:46:10.297Z</time>
      </trkpt>
      <trkpt lat="47.99974" lon="-4.1456">
        <ele>97.56349030602</ele>
        <time>2021-03-07T20:46:23.576Z</time>
      </trkpt>
      <trkpt lat="47.99975" lon="-4.14588">
        <ele>98.36767041089</ele>
        <time>2021-03-07T20:46:36.858Z</time>
      </trkpt>
      <trkpt lat="47.99974" lon="-4.14614">
        <ele>99.04325214508</ele>
        <time>2021-03-07T20:46:50.143Z</time>
      </trkpt>
      <trkpt lat="47.9997" lon="-4.14643">
        <ele>99.58517184878</ele>
        <time>2021-03-07T20:47:03.431Z</time>
      </trkpt>
      <trkpt lat="47.99962" lon="-4.1468">
        <ele>100.0070493911</ele>
        <time>2021-03-07T20:47:16.723Z</time>
      </trkpt>
      <trkpt lat="47.99962" lon="-4.14681">
        <ele>100.39708721388</ele>
        <time>2021-03-07T20:47:30.015Z</time>
      </trkpt>
      <trkpt lat="47.99956" lon="-4.14711">
        <ele>100.69926543404</ele>
        <time>2021-03-07T20:47:43.311Z</time>
      </trkpt>
      <trkpt lat="47.99951" lon="-4.14765">
        <ele>100.93656475425</ele>
        <time>2021-03-07T20:47:56.613Z</time>
      </trkpt>
      <trkpt lat="47.99961" lon="-4.14782">
        <ele>101.17668021512</ele>
        <time>2021-03-07T20:48:09.917Z</time>
      </trkpt>
      <trkpt lat="47.99962" lon="-4.14804">
        <ele>101.33281146058</ele>
        <time>2021-03-07T20:48:23.223Z</time>
      </trkpt>
      <trkpt lat="47.99965" lon="-4.14818">
        <ele>101.45328147357</ele>
        <time>2021-03-07T20:48:36.531Z</time>
      </trkpt>
      <trkpt lat="47.99972" lon="-4.14836">
        <ele>101.60265436357</ele>
        <time>2021-03-07T20:48:49.841Z</time>
      </trkpt>
      <trkpt lat="47.99984" lon="-4.14858">
        <ele>101.67823086198</ele>
        <time>2021-03-07T20:49:03.154Z</time>
      </trkpt>
      <trkpt lat="48.00019" lon="-4.14908">
        <ele>101.73104644369</ele>
        <time>2021-03-07T20:49:16.475Z</time>
      </trkpt>
      <trkpt lat="48.00042" lon="-4.14947">
        <ele>101.79364966055</ele>
        <time>2021-03-07T20:49:29.802Z</time>
      </trkpt>
      <trkpt lat="48.00048" lon="-4.14968">
        <ele>101.71203187896</ele>
        <time>2021-03-07T20:49:43.131Z</time>
      </trkpt>
      <trkpt lat="48.00065" lon="-4.15076">
        <ele>101.52876798353</ele>
        <time>2021-03-07T20:49:56.472Z</time>
      </trkpt>
      <trkpt lat="48.00071" lon="-4.15144">
        <ele>101.21100413909</ele>
        <time>2021-03-07T20:50:09.820Z</time>
      </trkpt>
      <trkpt lat="48.00075" lon="-4.15159">
        <ele>100.88167109019</ele>
        <time>2021-03-07T20:50:23.170Z</time>
      </trkpt>
      <trkpt lat="48.00082" lon="-4.15167">
        <ele>100.49597437918</ele>
        <time>2021-03-07T20:50:36.522Z</time>
      </trkpt>
      <trkpt lat="48.00085" lon="-4.15179">
        <ele>100.0633252923</ele>
        <time>2021-03-07T20:50:49.875Z</time>
      </trkpt>
      <trkpt lat="48.00082" lon="-4.15212">
        <ele>99.61045209014</ele>
        <time>2021-03-07T20:51:03.232Z</time>
      </trkpt>
      <trkpt lat="48.00091" lon="-4.15304">
        <ele>99.13694756914</ele>
        <time>2021-03-07T20:51:16.598Z</time>
      </trkpt>
      <trkpt lat="48.00091" lon="-4.15416">
        <ele>98.4887964498</ele>
        <time>2021-03-07T20:51:29.977Z</time>
      </trkpt>
      <trkpt lat="48.00094" lon="-4.15439">
        <ele>97.86860367688</ele>
        <time>2021-03-07T20:51:43.358Z</time>
      </trkpt>
      <trkpt lat="48.001" lon="-4.15465">
        <ele>97.20576907019</ele>
        <time>2021-03-07T20:51:56.742Z</time>
      </trkpt>
      <trkpt lat="48.00116" lon="-4.15503">
        <ele>96.56189623935</ele>
        <time>2021-03-07T20:52:10.131Z</time>
      </trkpt>
      <trkpt lat="48.00178" lon="-4.15592">
        <ele>95.91736476335</ele>
        <time>2021-03-07T20:52:23.534Z</time>
      </trkpt>
      <trkpt lat="48.00185" lon="-4.15608">
        <ele>95.17910033197</ele>
        <time>2021-03-07T20:52:36.939Z</time>
      </trkpt>
      <trkpt lat="48.00188" lon="-4.15627">
        <ele>94.40023852214</ele>
        <time>2021-03-07T20:52:50.346Z</time>
      </trkpt>
      <trkpt lat="48.00188" lon="-4.15662">
        <ele>93.54176544699</ele>
        <time>2021-03-07T20:53:03.757Z</time>
      </trkpt>
      <trkpt lat="48.00191" lon="-4.15673">
        <ele>92.6274993945</ele>
        <time>2021-03-07T20:53:17.169Z</time>
      </trkpt>
      <trkpt lat="48.00199" lon="-4.15687">
        <ele>91.71672286803</ele>
        <time>2021-03-07T20:53:30.583Z</time>
      </trkpt>
      <trkpt lat="48.00202" lon="-4.15715">
        <ele>90.75603295201</ele>
        <time>2021-03-07T20:53:44.000Z</time>
      </trkpt>
      <trkpt lat="48.00201" lon="-4.15727">
        <ele>89.86576652709</ele>
        <time>2021-03-07T20:53:57.418Z</time>
      </trkpt>
      <trkpt lat="48.00213" lon="-4.15756">
        <ele>89.01724446525</ele>
        <time>2021-03-07T20:54:10.840Z</time>
      </trkpt>
      <trkpt lat="48.00229" lon="-4.15782">
        <ele>88.25561187293</ele>
        <time>2021-03-07T20:54:24.266Z</time>
      </trkpt>
      <trkpt lat="48.00252" lon="-4.15812">
        <ele>87.60790635745</ele>
        <time>2021-03-07T20:54:37.696Z</time>
      </trkpt>
      <trkpt lat="48.00305" lon="-4.15854">
        <ele>87.20332795308</ele>
        <time>2021-03-07T20:54:51.136Z</time>
      </trkpt>
      <trkpt lat="48.0032" lon="-4.15869">
        <ele>86.93096809672</ele>
        <time>2021-03-07T20:55:04.579Z</time>
      </trkpt>
      <trkpt lat="48.0034" lon="-4.15895">
        <ele>86.72722922302</ele>
        <time>2021-03-07T20:55:18.026Z</time>
      </trkpt>
      <trkpt lat="48.00352" lon="-4.15916">
        <ele>86.66035983833</ele>
        <time>2021-03-07T20:55:31.476Z</time>
      </trkpt>
      <trkpt lat="48.00361" lon="-4.15941">
        <ele>86.77623274123</ele>
        <time>2021-03-07T20:55:44.929Z</time>
      </trkpt>
      <trkpt lat="48.00369" lon="-4.15979">
        <ele>87.21063466216</ele>
        <time>2021-03-07T20:55:58.387Z</time>
      </trkpt>
      <trkpt lat="48.00379" lon="-4.16055">
        <ele>87.97424884467</ele>
        <time>2021-03-07T20:56:11.853Z</time>
      </trkpt>
      <trkpt lat="48.0039" lon="-4.16154">
        <ele>88.94365960556</ele>
        <time>2021-03-07T20:56:25.330Z</time>
      </trkpt>
      <trkpt lat="48.00401" lon="-4.16254">
        <ele>90.09794901072</ele>
        <time>2021-03-07T20:56:38.817Z</time>
      </trkpt>
      <trkpt lat="48.00412" lon="-4.16353">
        <ele>90.99185498535</ele>
        <time>2021-03-07T20:56:52.315Z</time>
      </trkpt>
      <trkpt lat="48.00423" lon="-4.16453">
        <ele>92.29677436822</ele>
        <time>2021-03-07T20:57:05.824Z</time>
      </trkpt>
      <trkpt lat="48.00438" lon="-4.16538">
        <ele>93.77453086213</ele>
        <time>2021-03-07T20:57:19.343Z</time>
      </trkpt>
      <trkpt lat="48.00456" lon="-4.16612">
        <ele>95.11893281828</ele>
        <time>2021-03-07T20:57:32.870Z</time>
      </trkpt>
      <trkpt lat="48.00466" lon="-4.16641">
        <ele>96.48217700916</ele>
        <time>2021-03-07T20:57:46.401Z</time>
      </trkpt>
      <trkpt lat="48.00481" lon="-4.16678">
        <ele>97.84191674518</ele>
        <time>2021-03-07T20:57:59.936Z</time>
      </trkpt>
      <trkpt lat="48.00505" lon="-4.16723">
        <ele>99.33699486036</ele>
        <time>2021-03-07T20:58:13.477Z</time>
      </trkpt>
      <trkpt lat="48.00557" lon="-4.16791">
        <ele>100.82863978657</ele>
        <time>2021-03-07T20:58:27.029Z</time>
      </trkpt>
      <trkpt lat="48.00574" lon="-4.16817">
        <ele>102.2566513304</ele>
        <time>2021-03-07T20:58:40.585Z</time>
      </trkpt>
      <trkpt lat="48.00594" lon="-4.16859">
        <ele>103.70412673549</ele>
        <time>2021-03-07T20:58:54.147Z</time>
      </trkpt>
      <trkpt lat="48.0061" lon="-4.1691">
        <ele>105.17762684878</ele>
        <time>2021-03-07T20:59:07.715Z</time>
      </trkpt>
      <trkpt lat="48.00616" lon="-4.16939">
        <ele>106.56619254648</ele>
        <time>2021-03-07T20:59:21.286Z</time>
      </trkpt>
      <trkpt lat="48.00634" lon="-4.17058">
        <ele>108.30276881505</ele>
        <time>2021-03-07T20:59:34.870Z</time>
      </trkpt>
      <trkpt lat="48.00637" lon="-4.17097">
        <ele>109.70639765702</ele>
        <time>2021-03-07T20:59:48.459Z</time>
      </trkpt>
      <trkpt lat="48.00641" lon="-4.17133">
        <ele>111.07004586974</ele>
        <time>2021-03-07T21:00:02.051Z</time>
      </trkpt>
      <trkpt lat="48.00642" lon="-4.17171">
        <ele>112.46987055612</ele>
        <time>2021-03-07T21:00:15.648Z</time>
      </trkpt>
      <trkpt lat="48.00639" lon="-4.17255">
        <ele>113.7585116137</ele>
        <time>2021-03-07T21:00:29.254Z</time>
      </trkpt>
      <trkpt lat="48.00637" lon="-4.17356">
        <ele>115.2413926354</ele>
        <time>2021-03-07T21:00:42.870Z</time>
      </trkpt>
      <trkpt lat="48.00646" lon="-4.17435">
        <ele>116.72929896213</ele>
        <time>2021-03-07T21:00:56.495Z</time>
      </trkpt>
      <trkpt lat="48.00657" lon="-4.17488">
        <ele>118.2644735309</ele>
        <time>2021-03-07T21:01:10.126Z</time>
      </trkpt>
      <trkpt lat="48.00664" lon="-4.17513">
        <ele>119.81911768155</ele>
        <time>2021-03-07T21:01:23.760Z</time>
      </trkpt>
      <trkpt lat="48.00679" lon="-4.17554">
        <ele>121.4575554611</ele>
        <time>2021-03-07T21:01:37.399Z</time>
      </trkpt>
      <trkpt lat="48.00703" lon="-4.17605">
        <ele>123.15379955956</ele>
        <time>2021-03-07T21:01:51.045Z</time>
      </trkpt>
      <trkpt lat="48.00723" lon="-4.1764">
        <ele>124.9394700898</ele>
        <time>2021-03-07T21:02:04.696Z</time>
      </trkpt>
      <trkpt lat="48.00746" lon="-4.17685">
        <ele>126.74686924481</ele>
        <time>2021-03-07T21:02:18.353Z</time>
      </trkpt>
      <trkpt lat="48.0077" lon="-4.17739">
        <ele>128.51329600086</ele>
        <time>2021-03-07T21:02:32.017Z</time>
      </trkpt>
      <trkpt lat="48.00799" lon="-4.17818">
        <ele>130.43654291889</ele>
        <time>2021-03-07T21:02:45.690Z</time>
      </trkpt>
      <trkpt lat="48.00829" lon="-4.17897">
        <ele>132.28060832175</ele>
        <time>2021-03-07T21:02:59.373Z</time>
      </trkpt>
      <trkpt lat="48.00858" lon="-4.17976">
        <ele>134.31952286484</ele>
        <time>2021-03-07T21:03:13.066Z</time>
      </trkpt>
      <trkpt lat="48.00893" lon="-4.18062">
        <ele>136.36125106012</ele>
        <time>2021-03-07T21:03:26.770Z</time>
      </trkpt>
      <trkpt lat="48.0091" lon="-4.18116">
        <ele>138.34299105119</ele>
        <time>2021-03-07T21:03:40.480Z</time>
      </trkpt>
      <trkpt lat="48.00939" lon="-4.18219">
        <ele>140.3096241385</ele>
        <time>2021-03-07T21:03:54.202Z</time>
      </trkpt>
      <trkpt lat="48.00967" lon="-4.18323">
        <ele>142.24571898828</ele>
        <time>2021-03-07T21:04:07.936Z</time>
      </trkpt>
      <trkpt lat="48.0098" lon="-4.18381">
        <ele>144.00231346992</ele>
        <time>2021-03-07T21:04:21.677Z</time>
      </trkpt>
      <trkpt lat="48.00995" lon="-4.18477">
        <ele>145.51490590317</ele>
        <time>2021-03-07T21:04:35.428Z</time>
      </trkpt>
      <trkpt lat="48.01009" lon="-4.18574">
        <ele>146.90033739058</ele>
        <time>2021-03-07T21:04:49.190Z</time>
      </trkpt>
      <trkpt lat="48.01015" lon="-4.18693">
        <ele>148.00170506343</ele>
        <time>2021-03-07T21:05:02.965Z</time>
      </trkpt>
      <trkpt lat="48.01015" lon="-4.18694">
        <ele>149.00882717838</ele>
        <time>2021-03-07T21:05:16.740Z</time>
      </trkpt>
      <trkpt lat="48.0102" lon="-4.18772">
        <ele>150.07500886216</ele>
        <time>2021-03-07T21:05:30.523Z</time>
      </trkpt>
      <trkpt lat="48.01024" lon="-4.18851">
        <ele>150.56586518725</ele>
        <time>2021-03-07T21:05:44.315Z</time>
      </trkpt>
      <trkpt lat="48.01029" lon="-4.18869">
        <ele>151.03183519141</ele>
        <time>2021-03-07T21:05:58.109Z</time>
      </trkpt>
      <trkpt lat="48.01036" lon="-4.18881">
        <ele>151.36212962941</ele>
        <time>2021-03-07T21:06:11.904Z</time>
      </trkpt>
      <trkpt lat="48.01034" lon="-4.18926">
        <ele>151.60934837657</ele>
        <time>2021-03-07T21:06:25.704Z</time>
      </trkpt>
      <trkpt lat="48.01052" lon="-4.19032">
        <ele>151.67461142538</ele>
        <time>2021-03-07T21:06:39.516Z</time>
      </trkpt>
      <trkpt lat="48.01071" lon="-4.19155">
        <ele>151.64355912224</ele>
        <time>2021-03-07T21:06:53.342Z</time>
      </trkpt>
      <trkpt lat="48.01091" lon="-4.19279">
        <ele>151.22311836709</ele>
        <time>2021-03-07T21:07:07.181Z</time>
      </trkpt>
      <trkpt lat="48.0111" lon="-4.19402">
        <ele>150.94687927447</ele>
        <time>2021-03-07T21:07:21.034Z</time>
      </trkpt>
      <trkpt lat="48.01117" lon="-4.19472">
        <ele>150.41202242082</ele>
        <time>2021-03-07T21:07:34.894Z</time>
      </trkpt>
      <trkpt lat="48.01136" lon="-4.19564">
        <ele>149.9887641503</ele>
        <time>2021-03-07T21:07:48.765Z</time>
      </trkpt>
      <trkpt lat="48.01148" lon="-4.19608">
        <ele>149.56806144802</ele>
        <time>2021-03-07T21:08:02.641Z</time>
      </trkpt>
      <trkpt lat="48.01161" lon="-4.19641">
        <ele>149.11693847351</ele>
        <time>2021-03-07T21:08:16.521Z</time>
      </trkpt>
      <trkpt lat="48.01175" lon="-4.19665">
        <ele>148.73364299624</ele>
        <time>2021-03-07T21:08:30.404Z</time>
      </trkpt>
      <trkpt lat="48.01181" lon="-4.19669">
        <ele>148.38080829412</ele>
        <time>2021-03-07T21:08:44.288Z</time>
      </trkpt>
      <trkpt lat="48.01196" lon="-4.19672">
        <ele>148.07839918778</ele>
        <time>2021-03-07T21:08:58.175Z</time>
      </trkpt>
      <trkpt lat="48.01207" lon="-4.19684">
        <ele>147.77280339736</ele>
        <time>2021-03-07T21:09:12.064Z</time>
      </trkpt>
      <trkpt lat="48.01213" lon="-4.19702">
        <ele>147.57400015544</ele>
        <time>2021-03-07T21:09:25.955Z</time>
      </trkpt>
      <trkpt lat="48.01214" lon="-4.1972">
        <ele>147.38909336968</ele>
        <time>2021-03-07T21:09:39.848Z</time>
      </trkpt>
      <trkpt lat="48.01214" lon="-4.1973">
        <ele>147.23128708776</ele>
        <time>2021-03-07T21:09:53.742Z</time>
      </trkpt>
      <trkpt lat="48.01206" lon="-4.19745">
        <ele>147.09600972585</ele>
        <time>2021-03-07T21:10:07.638Z</time>
      </trkpt>
      <trkpt lat="48.012" lon="-4.19751">
        <ele>147.00415594208</ele>
        <time>2021-03-07T21:10:21.535Z</time>
      </trkpt>
      <trkpt lat="48.01196" lon="-4.1977">
        <ele>146.97600401072</ele>
        <time>2021-03-07T21:10:35.435Z</time>
      </trkpt>
      <trkpt lat="48.01195" lon="-4.19787">
        <ele>147.01859324775</ele>
        <time>2021-03-07T21:10:49.336Z</time>
      </trkpt>
      <trkpt lat="48.01201" lon="-4.19836">
        <ele>147.18291222489</ele>
        <time>2021-03-07T21:11:03.243Z</time>
      </trkpt>
      <trkpt lat="48.0122" lon="-4.19932">
        <ele>147.28013380403</ele>
        <time>2021-03-07T21:11:17.161Z</time>
      </trkpt>
      <trkpt lat="48.01239" lon="-4.20028">
        <ele>147.25096144001</ele>
        <time>2021-03-07T21:11:31.089Z</time>
      </trkpt>
      <trkpt lat="48.01259" lon="-4.20123">
        <ele>147.3933679712</ele>
        <time>2021-03-07T21:11:45.028Z</time>
      </trkpt>
      <trkpt lat="48.0128" lon="-4.20217">
        <ele>147.47557346483</ele>
        <time>2021-03-07T21:11:58.978Z</time>
      </trkpt>
      <trkpt lat="48.013" lon="-4.20312">
        <ele>147.70818589346</ele>
        <time>2021-03-07T21:12:12.938Z</time>
      </trkpt>
      <trkpt lat="48.01319" lon="-4.20403">
        <ele>148.00238269203</ele>
        <time>2021-03-07T21:12:26.909Z</time>
      </trkpt>
      <trkpt lat="48.01337" lon="-4.20495">
        <ele>148.3075105072</ele>
        <time>2021-03-07T21:12:40.890Z</time>
      </trkpt>
      <trkpt lat="48.01356" lon="-4.20605">
        <ele>148.3328613714</ele>
        <time>2021-03-07T21:12:54.883Z</time>
      </trkpt>
      <trkpt lat="48.01375" lon="-4.20714">
        <ele>148.21426455148</ele>
        <time>2021-03-07T21:13:08.888Z</time>
      </trkpt>
      <trkpt lat="48.01394" lon="-4.20824">
        <ele>147.82841783023</ele>
        <time>2021-03-07T21:13:22.905Z</time>
      </trkpt>
      <trkpt lat="48.01412" lon="-4.2091">
        <ele>147.11050869245</ele>
        <time>2021-03-07T21:13:36.932Z</time>
      </trkpt>
      <trkpt lat="48.01437" lon="-4.21009">
        <ele>146.17037481356</ele>
        <time>2021-03-07T21:13:50.970Z</time>
      </trkpt>
      <trkpt lat="48.01462" lon="-4.21108">
        <ele>145.18143832101</ele>
        <time>2021-03-07T21:14:05.020Z</time>
      </trkpt>
      <trkpt lat="48.01481" lon="-4.21169">
        <ele>144.35835303743</ele>
        <time>2021-03-07T21:14:19.077Z</time>
      </trkpt>
      <trkpt lat="48.015" lon="-4.2123">
        <ele>143.63349483343</ele>
        <time>2021-03-07T21:14:33.141Z</time>
      </trkpt>
      <trkpt lat="48.0153" lon="-4.21314">
        <ele>142.97304661185</ele>
        <time>2021-03-07T21:14:47.215Z</time>
      </trkpt>
      <trkpt lat="48.0156" lon="-4.21398">
        <ele>142.82421818675</ele>
        <time>2021-03-07T21:15:01.300Z</time>
      </trkpt>
      <trkpt lat="48.0159" lon="-4.2147">
        <ele>142.68432041244</ele>
        <time>2021-03-07T21:15:15.394Z</time>
      </trkpt>
      <trkpt lat="48.01611" lon="-4.21518">
        <ele>142.58178825897</ele>
        <time>2021-03-07T21:15:29.494Z</time>
      </trkpt>
      <trkpt lat="48.01643" lon="-4.21584">
        <ele>142.47406991306</ele>
        <time>2021-03-07T21:15:43.603Z</time>
      </trkpt>
      <trkpt lat="48.01688" lon="-4.21669">
        <ele>142.29035680227</ele>
        <time>2021-03-07T21:15:57.723Z</time>
      </trkpt>
      <trkpt lat="48.01733" lon="-4.21753">
        <ele>142.53576187881</ele>
        <time>2021-03-07T21:16:11.855Z</time>
      </trkpt>
      <trkpt lat="48.01777" lon="-4.21838">
        <ele>142.63798562289</ele>
        <time>2021-03-07T21:16:25.998Z</time>
      </trkpt>
      <trkpt lat="48.01822" lon="-4.21922">
        <ele>143.77599581156</ele>
        <time>2021-03-07T21:16:40.153Z</time>
      </trkpt>
      <trkpt lat="48.01867" lon="-4.22007">
        <ele>145.02333136394</ele>
        <time>2021-03-07T21:16:54.320Z</time>
      </trkpt>
      <trkpt lat="48.0191" lon="-4.22074">
        <ele>146.07773164273</ele>
        <time>2021-03-07T21:17:08.497Z</time>
      </trkpt>
      <trkpt lat="48.01952" lon="-4.22142">
        <ele>147.34651289551</ele>
        <time>2021-03-07T21:17:22.683Z</time>
      </trkpt>
      <trkpt lat="48.0199" lon="-4.22192">
        <ele>148.43476457527</ele>
        <time>2021-03-07T21:17:36.878Z</time>
      </trkpt>
      <trkpt lat="48.02027" lon="-4.22243">
        <ele>149.30492440555</ele>
        <time>2021-03-07T21:17:51.081Z</time>
      </trkpt>
      <trkpt lat="48.02058" lon="-4.22281">
        <ele>150.04320138163</ele>
        <time>2021-03-07T21:18:05.290Z</time>
      </trkpt>
      <trkpt lat="48.02108" lon="-4.2233">
        <ele>150.48522325698</ele>
        <time>2021-03-07T21:18:19.509Z</time>
      </trkpt>
      <trkpt lat="48.02125" lon="-4.22344">
        <ele>150.62381458926</ele>
        <time>2021-03-07T21:18:33.731Z</time>
      </trkpt>
      <trkpt lat="48.02159" lon="-4.2237">
        <ele>150.61678195798</ele>
        <time>2021-03-07T21:18:47.959Z</time>
      </trkpt>
      <trkpt lat="48.02207" lon="-4.22397">
        <ele>150.47798415416</ele>
        <time>2021-03-07T21:19:02.195Z</time>
      </trkpt>
      <trkpt lat="48.02267" lon="-4.22424">
        <ele>150.43243211525</ele>
        <time>2021-03-07T21:19:16.441Z</time>
      </trkpt>
      <trkpt lat="48.02311" lon="-4.22451">
        <ele>150.09463265506</ele>
        <time>2021-03-07T21:19:30.695Z</time>
      </trkpt>
      <trkpt lat="48.02355" lon="-4.22478">
        <ele>149.73672554578</ele>
        <time>2021-03-07T21:19:44.956Z</time>
      </trkpt>
      <trkpt lat="48.0236" lon="-4.22452">
        <ele>149.72272780379</ele>
        <time>2021-03-07T21:19:59.220Z</time>
      </trkpt>
      <trkpt lat="48.0236" lon="-4.22448">
        <ele>149.82295454264</ele>
        <time>2021-03-07T21:20:13.485Z</time>
      </trkpt>
      <trkpt lat="48.02355" lon="-4.22435">
        <ele>149.97657419453</ele>
        <time>2021-03-07T21:20:27.751Z</time>
      </trkpt>
      <trkpt lat="48.02341" lon="-4.22414">
        <ele>150.10831564288</ele>
        <time>2021-03-07T21:20:42.021Z</time>
      </trkpt>
      <trkpt lat="48.02324" lon="-4.22384">
        <ele>149.97348969175</ele>
        <time>2021-03-07T21:20:56.295Z</time>
      </trkpt>
      <trkpt lat="48.02307" lon="-4.22351">
        <ele>149.58305230916</ele>
        <time>2021-03-07T21:21:10.573Z</time>
      </trkpt>
      <trkpt lat="48.02263" lon="-4.22247">
        <ele>148.84870524225</ele>
        <time>2021-03-07T21:21:24.864Z</time>
      </trkpt>
      <trkpt lat="48.02219" lon="-4.22144">
        <ele>147.52351935305</ele>
        <time>2021-03-07T21:21:39.169Z</time>
      </trkpt>
      <trkpt lat="48.02175" lon="-4.2204">
        <ele>147.05325420239</ele>
        <time>2021-03-07T21:21:53.487Z</time>
      </trkpt>
      <trkpt lat="48.02131" lon="-4.21937">
        <ele>145.22595502514</ele>
        <time>2021-03-07T21:22:07.818Z</time>
      </trkpt>
      <trkpt lat="48.02087" lon="-4.21833">
        <ele>143.34178436312</ele>
        <time>2021-03-07T21:22:22.162Z</time>
      </trkpt>
    </trkseg>
  </trk>
</gpx>